[[{"header":{"parameterUnit":"m.s-1","parameterCategory":1,"la1":30.6,"la2":29.2853,"lo1":-89.7004,"lo2":-87.6739,"dy":0.0162,"dx":0.0183,"nx":112,"ny":82,"refTime":"2023-03-11T06:00:00:Z","depth":0,"parameterNumber":2,"parameterNumberName":"U-component_of_WINDS"},"data":[0.0,0.0,0.0,0.0,0.0,0.0,0.0,0.0,0.0,0.0,0.0,0.0,0.0,0.0,0.0,0.0,0.0,0.0,0.0,0.0,0.0,0.0,0.0,0.0,0.0,0.0,0.0,0.0,0.0,0.0,0.0,0.0,0.0,0.0,0.0,0.0,0.0,0.0,0.0,0.0,0.0,0.0,0.0,0.0,0.0,0.0,0.0,0.0,0.0,0.0,0.0,0.0,0.0,0.0,0.0,0.0,0.0,0.0,0.0,0.0,0.0,0.0,0.0,0.0,0.0,0.0,0.0,0.0,0.0,0.0,0.0,0.0,0.0,0.0,0.0,0.0,0.0,0.0,0.0,0.0,0.0,0.0,0.0,0.0,0.0,0.0,0.0,0.0,0.0,0.0,0.0,7.0814,7.8728,8.2655,8.0367,7.9074,7.5102,6.7357,0.0,0.0,0.0,0.0,0.0,0.0,0.0,0.0,0.0,0.0,0.0,0.0,0.0,0.0,0.0,0.0,0.0,0.0,0.0,0.0,0.0,0.0,0.0,0.0,0.0,0.0,0.0,0.0,0.0,0.0,0.0,0.0,0.0,0.0,0.0,0.0,0.0,0.0,0.0,0.0,0.0,0.0,0.0,0.0,0.0,0.0,0.0,0.0,0.0,0.0,0.0,0.0,0.0,0.0,0.0,0.0,0.0,0.0,0.0,0.0,0.0,0.0,0.0,0.0,0.0,0.0,0.0,0.0,0.0,0.0,0.0,0.0,0.0,0.0,0.0,0.0,0.0,0.0,0.0,0.0,0.0,0.0,0.0,0.0,0.0,0.0,0.0,0.0,0.0,0.0,0.0,0.0,0.0,0.0,0.0,0.0,0.0,0.0,0.0,0.0,0.0,0.0,0.0,0.0,6.7363,7.635,8.1562,8.3728,8.1974,7.9168,7.494,6.8928,0.0,0.0,0.0,0.0,0.0,0.0,0.0,0.0,0.0,0.0,0.0,0.0,0.0,0.0,0.0,0.0,0.0,0.0,0.0,0.0,0.0,0.0,0.0,0.0,0.0,0.0,0.0,0.0,0.0,0.0,0.0,0.0,0.0,0.0,0.0,0.0,0.0,0.0,0.0,0.0,0.0,0.0,0.0,0.0,0.0,0.0,0.0,0.0,0.0,0.0,0.0,0.0,0.0,0.0,0.0,0.0,0.0,0.0,0.0,0.0,0.0,0.0,0.0,0.0,0.0,0.0,0.0,0.0,0.0,0.0,0.0,0.0,0.0,0.0,0.0,0.0,0.0,0.0,0.0,0.0,0.0,0.0,0.0,0.0,0.0,0.0,0.0,0.0,0.0,0.0,0.0,0.0,0.0,0.0,0.0,0.0,0.0,0.0,0.0,0.0,0.0,0.0,0.0,6.768,7.2826,8.038,8.4425,8.5563,8.3059,7.9866,7.5388,6.9295,6.6219,0.0,0.0,0.0,0.0,0.0,0.0,0.0,0.0,0.0,0.0,0.0,0.0,0.0,0.0,0.0,0.0,0.0,0.0,0.0,0.0,0.0,0.0,0.0,0.0,0.0,0.0,0.0,0.0,0.0,0.0,0.0,0.0,0.0,0.0,0.0,0.0,0.0,0.0,0.0,0.0,0.0,0.0,0.0,0.0,0.0,0.0,0.0,0.0,0.0,0.0,0.0,0.0,0.0,0.0,0.0,0.0,0.0,0.0,0.0,0.0,0.0,0.0,0.0,0.0,0.0,0.0,0.0,0.0,0.0,0.0,0.0,0.0,0.0,0.0,0.0,0.0,0.0,0.0,0.0,0.0,0.0,0.0,0.0,0.0,0.0,0.0,0.0,0.0,0.0,0.0,0.0,0.0,0.0,0.0,0.0,0.0,0.0,0.0,0.0,0.0,0.0,0.0,7.2855,7.7582,8.3096,8.6215,8.6619,8.3389,8.0351,7.5909,6.9589,6.5968,0.0,0.0,0.0,0.0,0.0,0.0,0.0,0.0,0.0,0.0,0.0,0.0,0.0,0.0,0.0,0.0,0.0,0.0,0.0,0.0,0.0,0.0,0.0,0.0,0.0,0.0,0.0,0.0,0.0,0.0,0.0,0.0,0.0,0.0,0.0,0.0,0.0,0.0,0.0,0.0,0.0,0.0,0.0,0.0,0.0,0.0,0.0,0.0,0.0,0.0,0.0,0.0,0.0,0.0,0.0,0.0,0.0,0.0,0.0,0.0,0.0,0.0,0.0,0.0,0.0,0.0,0.0,0.0,0.0,0.0,0.0,0.0,0.0,0.0,0.0,0.0,0.0,0.0,0.0,0.0,0.0,0.0,0.0,0.0,0.0,0.0,0.0,0.0,0.0,0.0,0.0,0.0,0.0,0.0,0.0,0.0,0.0,0.0,0.0,0.0,0.0,0.0,7.4177,7.9014,8.3985,8.6069,8.5775,8.2553,8.0028,7.613,7.0374,6.6299,0.0,0.0,0.0,0.0,0.0,0.0,0.0,0.0,0.0,0.0,0.0,0.0,0.0,0.0,0.0,0.0,0.0,0.0,0.0,0.0,0.0,0.0,0.0,0.0,0.0,0.0,0.0,0.0,0.0,0.0,0.0,0.0,0.0,0.0,0.0,0.0,0.0,0.0,0.0,0.0,0.0,0.0,0.0,0.0,0.0,0.0,0.0,0.0,0.0,0.0,0.0,0.0,0.0,0.0,0.0,0.0,0.0,0.0,0.0,0.0,0.0,0.0,0.0,0.0,0.0,0.0,0.0,0.0,0.0,0.0,0.0,0.0,0.0,0.0,0.0,0.0,0.0,0.0,0.0,0.0,0.0,0.0,0.0,0.0,0.0,0.0,0.0,0.0,0.0,0.0,0.0,0.0,0.0,0.0,0.0,0.0,0.0,0.0,0.0,0.0,0.0,0.0,7.5212,8.0534,0.0,8.6775,8.6436,8.3206,8.0277,7.6174,7.0447,0.0,0.0,0.0,0.0,0.0,0.0,0.0,0.0,0.0,0.0,0.0,0.0,0.0,0.0,0.0,0.0,0.0,0.0,0.0,0.0,0.0,0.0,0.0,0.0,0.0,0.0,0.0,0.0,0.0,0.0,0.0,0.0,0.0,0.0,0.0,0.0,0.0,0.0,0.0,0.0,0.0,0.0,0.0,0.0,0.0,0.0,0.0,0.0,0.0,0.0,0.0,0.0,0.0,0.0,0.0,0.0,0.0,0.0,0.0,0.0,0.0,0.0,0.0,0.0,0.0,0.0,0.0,0.0,0.0,0.0,0.0,0.0,0.0,0.0,0.0,0.0,0.0,0.0,0.0,0.0,0.0,0.0,0.0,0.0,0.0,0.0,0.0,0.0,0.0,0.0,0.0,0.0,0.0,0.0,0.0,0.0,0.0,0.0,0.0,0.0,0.0,0.0,7.0704,7.6468,8.1717,0.0,8.693,8.6224,8.3279,7.9837,7.5726,7.0807,0.0,0.0,0.0,0.0,0.0,0.0,0.0,0.0,0.0,0.0,0.0,0.0,0.0,0.0,0.0,0.0,0.0,0.0,0.0,0.0,0.0,0.0,0.0,0.0,0.0,0.0,0.0,0.0,0.0,0.0,0.0,0.0,0.0,0.0,0.0,0.0,0.0,0.0,0.0,0.0,0.0,0.0,0.0,0.0,0.0,0.0,0.0,0.0,0.0,0.0,0.0,0.0,0.0,0.0,0.0,0.0,0.0,0.0,0.0,0.0,0.0,0.0,0.0,0.0,0.0,0.0,0.0,0.0,0.0,0.0,0.0,0.0,0.0,0.0,0.0,0.0,0.0,0.0,0.0,0.0,0.0,0.0,0.0,0.0,0.0,0.0,0.0,0.0,0.0,0.0,0.0,0.0,0.0,0.0,0.0,0.0,0.0,0.0,0.0,0.0,0.0,0.0,7.3053,7.7965,8.2545,8.6546,8.6261,8.4837,8.2415,7.8442,7.4727,0.0,0.0,0.0,0.0,0.0,0.0,0.0,0.0,0.0,0.0,0.0,0.0,0.0,0.0,0.0,0.0,0.0,0.0,0.0,0.0,0.0,0.0,0.0,0.0,0.0,0.0,0.0,0.0,0.0,0.0,0.0,0.0,0.0,0.0,0.0,0.0,0.0,0.0,0.0,0.0,0.0,0.0,0.0,0.0,0.0,0.0,0.0,0.0,0.0,0.0,0.0,0.0,0.0,0.0,0.0,0.0,0.0,0.0,0.0,0.0,0.0,0.0,0.0,0.0,0.0,0.0,0.0,0.0,0.0,0.0,0.0,0.0,0.0,0.0,0.0,0.0,0.0,0.0,0.0,0.0,0.0,0.0,0.0,0.0,0.0,0.0,0.0,0.0,0.0,0.0,0.0,0.0,0.0,0.0,0.0,0.0,0.0,0.0,0.0,0.0,0.0,0.0,0.0,7.2459,7.8112,8.2957,8.5857,8.5939,8.4837,8.2415,7.8985,7.5344,7.1527,0.0,0.0,0.0,0.0,0.0,0.0,0.0,0.0,0.0,0.0,0.0,0.0,0.0,0.0,0.0,0.0,0.0,0.0,0.0,0.0,0.0,0.0,0.0,0.0,0.0,0.0,0.0,0.0,0.0,0.0,0.0,0.0,0.0,0.0,0.0,0.0,0.0,0.0,0.0,0.0,0.0,0.0,0.0,0.0,0.0,0.0,0.0,0.0,0.0,0.0,0.0,0.0,0.0,0.0,0.0,0.0,0.0,0.0,0.0,0.0,0.0,0.0,0.0,0.0,0.0,0.0,0.0,0.0,0.0,0.0,0.0,0.0,0.0,0.0,0.0,0.0,0.0,0.0,0.0,0.0,0.0,0.0,0.0,0.0,0.0,0.0,0.0,0.0,0.0,0.0,0.0,0.0,0.0,0.0,0.0,0.0,0.0,0.0,0.0,0.0,0.0,0.0,7.3076,7.8589,8.3251,8.6004,8.571,8.4609,8.2847,7.9381,7.5997,7.2922,0.0,0.0,0.0,0.0,0.0,0.0,0.0,0.0,0.0,0.0,0.0,0.0,0.0,0.0,0.0,0.0,0.0,0.0,0.0,0.0,0.0,0.0,0.0,0.0,0.0,0.0,0.0,0.0,0.0,0.0,0.0,0.0,0.0,0.0,0.0,0.0,0.0,0.0,0.0,0.0,0.0,0.0,0.0,0.0,0.0,0.0,0.0,0.0,0.0,0.0,0.0,0.0,0.0,0.0,0.0,0.0,0.0,0.0,0.0,0.0,0.0,0.0,0.0,0.0,0.0,0.0,0.0,0.0,0.0,0.0,0.0,0.0,0.0,0.0,0.0,0.0,0.0,0.0,0.0,0.0,0.0,0.0,0.0,0.0,0.0,0.0,0.0,0.0,0.0,0.0,0.0,0.0,0.0,0.0,0.0,0.0,0.0,0.0,0.0,0.0,0.0,0.0,7.4507,7.9213,8.3434,8.6656,8.5487,8.4186,8.3454,7.9639,7.655,7.4872,0.0,0.0,0.0,0.0,0.0,0.0,0.0,0.0,0.0,0.0,0.0,0.0,0.0,0.0,0.0,0.0,0.0,0.0,0.0,0.0,0.0,0.0,0.0,0.0,0.0,0.0,0.0,0.0,0.0,0.0,0.0,0.0,0.0,0.0,0.0,0.0,0.0,0.0,0.0,0.0,0.0,0.0,0.0,0.0,0.0,0.0,0.0,0.0,0.0,0.0,0.0,0.0,0.0,0.0,0.0,0.0,0.0,0.0,0.0,0.0,6.0055,0.0,0.0,0.0,0.0,0.0,0.0,0.0,0.0,0.0,0.0,0.0,0.0,0.0,0.0,0.0,0.0,0.0,0.0,0.0,0.0,0.0,0.0,0.0,0.0,0.0,0.0,0.0,0.0,0.0,0.0,0.0,0.0,0.0,0.0,0.0,0.0,0.0,0.0,0.0,0.0,0.0,7.5425,7.9543,8.3434,8.6656,8.479,8.3364,8.3396,7.9439,7.6049,7.3934,0.0,0.0,0.0,0.0,0.0,0.0,0.0,0.0,0.0,0.0,0.0,0.0,0.0,0.0,0.0,0.0,0.0,0.0,0.0,0.0,0.0,0.0,0.0,0.0,0.0,0.0,0.0,0.0,0.0,0.0,0.0,0.0,0.0,0.0,0.0,0.0,0.0,0.0,0.0,0.0,0.0,0.0,0.0,0.0,0.0,0.0,0.0,0.0,0.0,0.0,0.0,0.0,0.0,0.0,0.0,0.0,0.0,0.0,0.0,0.0,0.0,6.2291,0.0,0.0,0.0,0.0,0.0,0.0,0.0,0.0,0.0,0.0,0.0,0.0,0.0,0.0,0.0,0.0,0.0,0.0,0.0,0.0,0.0,0.0,0.0,0.0,0.0,0.0,0.0,0.0,0.0,0.0,0.0,0.0,0.0,0.0,0.0,0.0,0.0,0.0,0.0,0.0,7.5471,7.9078,8.2421,8.5095,8.3791,8.2633,8.2391,7.9281,7.6496,7.453,7.183,0.0,0.0,0.0,0.0,0.0,0.0,0.0,0.0,0.0,0.0,0.0,0.0,0.0,0.0,0.0,0.0,0.0,0.0,0.0,0.0,0.0,0.0,0.0,0.0,0.0,0.0,0.0,0.0,0.0,0.0,0.0,0.0,0.0,0.0,0.0,0.0,0.0,0.0,0.0,0.0,0.0,0.0,0.0,0.0,0.0,0.0,0.0,0.0,0.0,0.0,0.0,0.0,0.0,6.55,6.668,6.8217,6.8217,6.8926,7.001,6.7682,6.5551,6.3736,0.0,0.0,0.0,0.0,0.0,0.0,0.0,0.0,0.0,0.0,0.0,0.0,0.0,0.0,0.0,0.0,0.0,0.0,0.0,0.0,0.0,0.0,0.0,0.0,0.0,6.8462,6.949,0.0,0.0,0.0,0.0,0.0,0.0,0.0,0.0,0.0,0.0,0.0,0.0,7.5222,7.8412,8.1285,8.3553,8.2793,8.2009,8.1713,7.923,7.7027,7.545,7.27,7.0602,0.0,0.0,0.0,0.0,0.0,0.0,0.0,0.0,0.0,0.0,0.0,0.0,0.0,0.0,0.0,0.0,0.0,0.0,0.0,0.0,0.0,0.0,0.0,0.0,0.0,0.0,0.0,0.0,0.0,0.0,0.0,0.0,5.4566,5.5327,0.0,0.0,0.0,0.0,0.0,0.0,0.0,0.0,0.0,0.0,0.0,0.0,0.0,6.4117,6.4976,6.6356,6.78,6.9354,7.0064,7.1195,7.2654,7.2654,7.3119,7.3898,7.4138,0.0,6.8349,6.7779,0.0,0.0,0.0,0.0,0.0,0.0,0.0,0.0,0.0,0.0,0.0,0.0,0.0,0.0,0.0,0.0,0.0,0.0,0.0,0.0,0.0,0.0,6.7418,6.7913,6.9485,7.055,0.0,6.8757,6.8105,6.6482,6.5684,0.0,0.0,0.0,0.0,0.0,0.0,0.0,7.5229,7.8201,8.1281,8.4237,8.2437,8.1596,8.3061,7.9608,7.6736,7.5223,7.3499,7.127,6.8488,6.8107,0.0,0.0,0.0,0.0,0.0,0.0,0.0,0.0,0.0,0.0,0.0,0.0,0.0,0.0,0.0,0.0,0.0,0.0,0.0,0.0,0.0,0.0,0.0,0.0,0.0,0.0,0.0,0.0,0.0,5.5488,5.6436,5.6316,5.7052,5.7221,0.0,0.0,0.0,0.0,0.0,0.0,0.0,0.0,0.0,6.6237,6.7658,6.891,7.0071,7.1142,7.2225,7.3319,7.4086,7.5236,7.6623,7.6229,7.6872,7.8348,7.828,7.6909,7.4548,7.1271,6.8619,6.6556,0.0,0.0,0.0,0.0,6.545,6.5851,6.6117,6.6487,0.0,6.6092,0.0,0.0,0.0,0.0,0.0,0.0,0.0,0.0,0.0,0.0,0.0,7.0603,7.2773,7.4315,7.2707,7.312,7.2655,0.0,6.8283,6.8669,6.9307,0.0,0.0,0.0,0.0,0.0,7.6146,7.871,8.1175,8.3185,8.2389,8.1696,8.1651,7.923,7.7042,7.5538,7.3247,7.1345,6.9993,6.8821,6.7957,0.0,0.0,0.0,0.0,0.0,0.0,0.0,0.0,0.0,0.0,0.0,0.0,0.0,0.0,0.0,0.0,0.0,0.0,0.0,0.0,0.0,0.0,0.0,0.0,0.0,0.0,0.0,0.0,5.6943,5.8195,5.7433,5.8853,5.9293,0.0,0.0,0.0,0.0,0.0,0.0,6.5686,6.7884,6.9958,7.1864,7.3003,7.4187,7.5484,7.642,7.7367,7.828,7.9092,8.0128,8.1346,8.0999,8.1541,8.2725,8.234,8.1562,8.0162,7.5292,7.1802,6.9313,6.7604,6.7138,6.741,6.8015,6.8704,6.9348,6.9272,6.9752,7.01,6.834,0.0,6.623,6.5163,0.0,0.0,0.0,0.0,6.647,6.8751,7.0845,7.2557,7.3477,7.5857,7.7453,7.5818,7.6842,7.6608,0.0,7.1081,7.133,7.0711,0.0,0.0,0.0,0.0,7.4885,7.7134,7.9382,8.1278,8.2566,8.2496,8.2022,8.1122,7.9511,7.7988,7.6657,7.3972,7.218,7.1605,6.993,6.8783,6.8368,0.0,0.0,0.0,0.0,0.0,0.0,0.0,0.0,0.0,0.0,0.0,0.0,0.0,0.0,0.0,0.0,0.0,0.0,0.0,0.0,0.0,0.0,0.0,0.0,0.0,0.0,0.0,0.0,0.0,5.8989,6.0858,0.0,0.0,0.0,0.0,6.5131,6.7421,6.9654,7.1853,7.4052,7.5676,7.6555,7.8653,8.0107,8.0898,8.234,8.3808,8.5296,8.6027,8.6792,8.7583,8.824,8.782,8.6656,8.7313,8.6399,8.4133,8.0297,7.6545,7.323,7.3095,7.2225,7.1039,7.1073,7.1559,7.2203,7.218,7.2677,7.3264,7.3163,7.2223,7.0754,6.8625,6.8518,0.0,0.0,6.9065,6.9562,7.1655,7.2976,7.4285,7.62,7.7547,7.8258,7.7917,7.8677,7.8252,0.0,7.3064,7.2688,7.2802,0.0,7.1654,7.2492,7.51,7.7238,7.7881,7.9903,8.1808,8.33,8.2813,8.2631,8.3287,8.1325,7.9769,7.8978,7.6758,7.4525,7.2428,7.156,7.0217,6.8264,6.827,0.0,0.0,0.0,0.0,0.0,0.0,0.0,0.0,0.0,0.0,0.0,0.0,0.0,0.0,0.0,0.0,0.0,0.0,0.0,0.0,0.0,0.0,0.0,0.0,0.0,0.0,0.0,0.0,6.4705,6.7996,0.0,6.8166,6.8504,6.936,7.0612,7.2834,7.51,7.7299,7.9498,8.1731,8.3964,8.5263,8.6514,8.7719,8.8274,8.8815,8.9357,8.9613,9.0121,9.0817,9.0121,8.9782,8.9681,8.9018,8.8003,8.6704,8.5384,8.2069,7.7671,7.6251,7.5371,7.4886,7.4886,7.5371,7.5992,7.5992,7.6487,7.6792,7.483,7.3255,7.1821,7.0582,7.0417,7.0833,7.1737,7.2333,7.3129,7.4856,7.6267,7.7557,7.8751,7.9664,8.0359,8.0737,8.1112,8.082,7.898,7.7033,7.5812,7.6306,7.4816,7.4159,7.6013,7.7525,7.8822,7.9967,8.1642,8.3084,8.4086,8.3984,8.3714,8.3524,8.1913,8.0378,7.9181,7.6509,7.4424,7.315,7.1492,7.004,6.8917,6.8499,6.7623,0.0,0.0,0.0,0.0,0.0,0.0,0.0,0.0,0.0,0.0,0.0,0.0,0.0,0.0,0.0,0.0,0.0,0.0,0.0,0.0,0.0,0.0,0.0,0.0,0.0,0.0,6.8696,6.9654,7.3544,7.5528,7.4052,7.4593,7.5439,7.6432,7.8855,8.1122,8.3097,8.5317,8.7414,8.941,9.0236,9.1217,9.2455,9.2455,9.2692,9.318,9.318,9.3436,9.3909,9.2928,9.2455,9.2387,9.115,9.0202,8.9444,8.8937,8.6535,8.2962,8.0479,7.9363,7.9092,7.8855,7.9228,7.9849,7.9849,7.9837,7.9464,7.722,7.5506,7.4187,7.3713,7.3397,7.3499,7.4965,7.5743,7.6475,7.7976,7.9092,8.0128,8.138,8.2069,8.2611,8.3389,8.3558,8.3321,8.2543,8.038,7.8613,7.8566,7.7407,7.7045,7.8689,7.9663,8.0648,8.1879,8.3118,8.4052,8.4546,8.4614,8.4289,8.3558,8.2374,8.0953,7.9215,7.6509,7.4424,7.3184,7.1481,7.0151,6.9265,6.8547,6.7526,6.6204,0.0,0.0,0.0,0.0,0.0,0.0,0.0,0.0,0.0,0.0,0.0,0.0,0.0,0.0,0.0,0.0,0.0,0.0,0.0,0.0,0.0,0.0,0.0,6.4918,6.873,7.2146,7.3657,7.7164,7.8877,7.7502,7.9295,8.1156,8.2598,8.5473,8.7786,8.9221,9.1358,9.2575,9.2595,9.3368,9.4112,9.4876,9.4876,9.5601,9.7003,9.7003,9.7003,9.7003,9.6969,9.6176,9.4823,9.406,9.3267,9.2406,9.0952,8.9918,8.8917,8.5878,8.4255,8.3524,8.28,8.2983,8.3558,8.3558,8.259,8.1236,8.0547,7.9342,7.8124,7.8124,7.765,7.7367,7.8809,7.9215,7.9553,8.0999,8.1405,8.1981,8.412,8.4647,8.4898,8.5669,8.5838,8.5587,8.4817,8.2949,8.0999,7.952,7.987,8.031,8.0344,8.1549,0.0,8.3422,8.4153,8.4614,8.4614,8.4614,8.4323,8.3592,8.2813,8.1414,7.9215,7.6893,7.4661,7.2462,7.1672,7.0624,6.918,6.8472,6.7473,6.607,0.0,0.0,0.0,0.0,0.0,0.0,0.0,0.0,0.0,0.0,0.0,0.0,0.0,0.0,0.0,0.0,0.0,0.0,0.0,0.0,0.0,0.0,6.9677,6.9474,7.4255,7.872,8.1245,8.4864,8.7211,8.7313,8.8348,8.9227,8.9633,9.1459,9.2962,9.3924,9.5041,9.6142,9.7225,9.7461,9.7935,9.8698,9.8698,9.8901,9.9273,9.9273,9.9273,9.9273,9.8747,9.8273,9.7834,9.7123,9.6074,9.4823,9.4417,9.3165,9.1189,8.8212,8.6602,8.5946,8.5743,8.5452,8.5161,8.5161,8.418,8.286,8.2644,8.1968,8.1177,8.1177,8.1042,8.0974,8.138,8.1887,8.2374,8.278,8.3706,8.4721,8.5317,8.5892,8.6318,8.6569,8.6602,8.6535,8.6318,8.579,8.4877,8.3328,8.28,8.278,8.3308,8.3748,0.0,8.4289,8.4478,8.4614,8.4614,8.4614,8.4512,8.4323,8.2158,8.0073,7.8428,7.5654,7.3341,7.1672,7.1402,7.0861,6.9936,6.8221,6.743,0.0,0.0,0.0,0.0,0.0,0.0,0.0,0.0,0.0,0.0,0.0,0.0,0.0,0.0,0.0,0.0,0.0,0.0,0.0,0.0,0.0,0.0,7.2935,7.6048,7.7625,8.0547,8.3761,8.7028,9.0445,9.2725,9.3131,9.4131,9.474,9.474,9.5856,9.6717,9.7157,9.7867,9.8679,9.9525,9.9559,9.9931,10.0709,10.0709,10.0912,10.1216,10.1216,10.1216,10.1083,10.0405,10.0082,0.0,9.8916,9.78,9.6683,9.6394,9.5127,0.0,0.0,0.0,0.0,0.0,8.6907,8.6264,8.6264,8.5655,8.4877,8.4539,8.3964,8.3308,8.3308,8.3308,8.3375,8.3727,8.437,8.4911,8.4911,8.5587,8.6332,8.665,8.7042,8.738,8.738,8.738,8.7279,8.6961,8.6893,0.0,8.5709,8.5202,8.508,8.5506,8.5574,8.5574,8.5574,8.5303,8.51,8.51,8.4796,8.4478,8.4153,8.2259,0.0,0.0,0.0,7.3037,7.0939,7.0838,0.0,0.0,0.0,6.8418,6.8566,0.0,0.0,0.0,6.8603,6.9155,0.0,0.0,0.0,0.0,0.0,0.0,0.0,0.0,0.0,0.0,0.0,0.0,0.0,0.0,0.0,0.0,7.8766,8.3402,8.7231,8.7347,8.8274,9.1556,9.4349,9.6108,9.6277,9.7563,9.8341,9.8258,9.9018,9.9457,9.9356,0.0,0.0,0.0,0.0,10.0912,10.1503,10.1503,10.1909,10.2486,10.2486,10.2486,10.2502,10.1792,10.1503,10.1386,10.0116,9.9051,9.8341,9.768,9.6529,9.4943,9.2522,9.1169,9.0411,8.9004,8.7989,8.7265,8.7164,0.0,0.0,8.6142,8.5452,8.485,8.485,8.485,8.5033,8.5838,8.6467,8.6927,8.6995,8.7028,8.7198,8.7854,8.8057,8.8125,8.8125,8.8192,8.8057,8.74,8.7333,8.74,8.74,8.713,8.6893,8.6893,8.6893,8.6893,8.6893,8.6332,8.5905,8.5905,0.0,0.0,8.3795,8.2847,8.0839,7.7468,7.5596,7.3431,7.0815,7.0477,7.0375,7.0443,7.0206,6.98,6.9214,7.0089,7.0539,7.0654,7.1267,7.1911,0.0,0.0,0.0,0.0,0.0,0.0,0.0,0.0,0.0,0.0,0.0,0.0,0.0,0.0,0.0,7.9858,8.4065,8.8226,9.2575,9.4079,9.5007,9.5717,9.6853,9.8037,9.9239,10.0202,10.0522,9.9814,10.1115,10.1589,10.0996,10.2198,10.2705,10.2096,10.2587,10.2705,10.2299,10.2299,10.2401,10.2486,0.0,0.0,10.2486,10.2401,10.2299,10.2299,10.1995,10.1419,10.0709,10.059,9.9642,9.7901,9.4499,9.3078,9.2841,9.1899,9.0715,8.9464,8.8869,8.7888,8.6893,8.6724,8.6589,8.6453,8.6453,8.6453,0.0,8.7347,8.7245,8.7028,8.7617,8.7786,8.782,8.7955,8.8443,8.8883,8.8883,8.9342,8.9734,8.9599,9.0053,9.0459,9.0459,8.8497,8.6893,8.6893,8.6893,8.6893,8.6893,8.6758,8.6704,8.6704,8.6027,8.5499,8.5364,8.2996,8.0966,7.9634,7.6442,7.4345,7.377,7.2045,7.1368,7.1954,7.0229,6.9553,7.0003,7.033,7.0827,7.1496,7.2511,7.3076,0.0,0.0,0.0,0.0,0.0,0.0,0.0,0.0,0.0,0.0,0.0,6.8853,0.0,0.0,7.9858,8.3984,8.8415,9.2387,9.5364,9.7071,9.8018,9.8018,9.8999,10.01,10.1185,10.1978,10.2518,10.2518,10.3195,10.3415,10.311,10.3786,10.4007,10.3585,10.4007,10.4007,10.3585,10.3585,10.3585,10.3585,10.3585,10.3415,10.3093,10.3093,10.279,10.2486,10.2486,10.2096,10.1418,10.0996,10.0287,9.9424,9.724,9.5684,9.4601,9.3827,9.2609,9.1256,9.0899,9.0019,8.897,8.8226,8.826,8.8415,8.7685,8.7989,8.8618,8.9004,8.9106,8.9207,8.9545,8.9376,8.9207,8.9545,8.9647,8.9748,9.0135,9.0493,9.0763,9.0763,9.1034,9.1305,9.1305,9.0087,8.9106,8.9106,8.9106,8.897,8.8584,8.8226,8.7989,8.7989,8.7008,8.6501,8.6887,8.3795,8.1393,8.0276,7.7739,7.6149,7.5765,7.4683,7.3905,7.3499,7.2417,7.1853,7.183,7.157,7.1647,7.2088,7.2775,7.3636,0.0,0.0,0.0,0.0,0.0,0.0,0.0,0.0,6.6779,6.9147,7.0973,7.3218,7.6792,8.0974,8.4931,8.8125,9.2508,9.6108,9.7747,9.9018,9.9863,10.0184,10.098,10.2011,10.279,10.3499,10.4108,10.47,10.4684,10.4684,10.4684,10.4802,10.4802,10.4684,10.4802,10.4802,10.4684,10.4684,10.4684,10.4684,10.4684,10.4413,10.3787,10.3787,10.3483,10.2892,10.2806,10.2299,10.1605,10.0896,10.061,10.0592,9.9829,9.8341,9.6514,9.5499,9.4233,9.3015,9.2745,9.2136,9.1305,8.9966,8.9918,9.0174,8.9004,8.9579,9.0648,9.0831,9.1169,9.1541,9.1725,9.1203,9.0749,9.1169,9.0966,9.0749,9.1203,9.1406,9.1575,9.1711,9.1759,9.1778,9.1947,9.1846,9.1643,9.1338,9.1305,9.1102,9.0493,8.9884,8.9526,8.9526,8.8192,8.7448,8.7753,8.4877,8.2509,8.1156,7.9667,7.8517,7.7773,7.7333,7.6521,7.5292,7.4953,7.4458,7.3725,7.3105,7.2766,7.2631,7.3054,7.3926,6.0071,6.0388,6.1704,6.2844,6.369,6.529,0.0,0.0,7.236,7.5303,7.7604,8.0006,8.3071,8.6724,9.0527,9.4214,9.692,9.9356,10.1589,10.1978,10.2603,10.3905,10.3093,10.2908,10.4311,10.4514,10.4582,10.4684,10.4684,10.4684,10.4684,10.531,10.5394,10.4684,10.531,10.5394,10.4684,10.4684,10.4684,10.4684,10.4684,10.47,10.4598,10.4598,10.4514,10.4413,10.3804,10.3093,10.2401,10.2299,10.2215,10.2198,10.1386,10.059,9.9476,9.7409,9.6123,9.5229,9.3924,9.2928,9.2136,9.1305,9.1102,9.1135,9.0966,9.1493,9.2305,9.303,9.2759,9.244,9.318,9.2759,9.2,9.144,9.1744,9.2,9.1406,9.1798,9.2474,9.3214,9.3349,9.3552,9.4214,9.3774,9.2875,9.1508,9.1305,9.1271,9.1169,9.1102,9.1048,9.1048,8.9729,8.8375,8.7144,8.6027,8.5046,8.414,8.2733,8.1596,8.083,7.8902,7.7785,7.7616,7.6284,7.5202,7.448,7.4378,7.4018,7.3388,7.4328,7.4174,6.2954,6.3413,0.0,0.0,6.7952,7.0094,7.3747,7.5811,7.7773,8.0771,8.3524,8.6163,8.8686,9.188,9.489,0.0,9.9627,10.1605,10.2892,10.3095,10.3398,10.4007,10.3483,10.372,10.5208,10.531,10.5479,10.5885,10.6003,10.6206,10.6595,10.6883,10.7221,10.7289,10.7593,10.761,10.7289,10.6917,10.6595,10.6595,10.6206,10.58,10.531,10.531,10.4887,10.399,10.3686,10.3179,10.2486,10.2486,10.2486,10.2384,10.1706,10.1199,10.0691,9.8864,9.7443,9.636,9.5717,9.5041,9.4248,9.3537,9.3571,9.3842,9.3402,9.3808,9.4451,9.4789,9.4654,9.4451,9.4789,9.3977,9.3233,9.3774,9.3503,9.3131,9.3267,9.3523,9.3692,9.362,9.3586,9.3687,9.4011,9.3789,9.3518,9.33,9.2895,9.2469,9.2,9.1933,9.1778,9.1338,9.1135,9.0256,8.8328,8.7496,8.6569,8.5384,8.4289,8.3342,8.2611,8.1697,8.0796,7.9951,7.8868,7.7976,7.722,7.6352,7.5777,7.5484,7.5445,7.5094,6.5511,0.0,0.0,7.0534,7.2766,7.5202,7.8822,8.1224,8.349,8.6453,8.9309,9.1793,9.3624,9.6244,9.8559,9.9829,10.1808,10.3382,10.4092,10.3905,10.3517,10.3314,10.2908,10.3196,10.4684,10.5395,10.6189,10.7103,10.7204,10.7492,10.8321,10.8304,10.8591,10.9183,10.9183,10.9183,10.9183,10.8591,10.8304,10.8304,10.761,10.6883,10.6376,10.6189,10.5411,10.4193,10.4007,10.3483,10.2806,10.2603,10.2486,10.2418,10.1893,10.1605,10.1316,10.01,9.8932,9.7732,9.7341,9.6853,9.6244,9.533,9.5364,9.5702,9.5161,9.5533,9.6108,9.6108,9.6108,9.6108,9.6108,9.5311,9.4736,9.5601,9.5142,9.4601,9.4924,9.5011,9.4857,9.4296,9.4195,9.4195,9.4195,9.4195,9.4398,9.4924,9.4552,9.3992,9.3421,9.3353,9.3049,9.2319,9.2508,9.1913,8.9864,8.8849,8.7665,8.621,8.5384,8.4593,8.3828,8.3625,8.2996,8.1913,8.119,8.0445,7.9689,7.8619,7.7908,7.7502,7.6927,7.6521,0.0,0.0,7.112,7.5574,7.7795,8.0264,8.5405,8.7753,8.9695,9.2706,9.5108,9.6902,9.7698,9.9694,10.1503,10.2299,10.3702,10.4887,10.5598,10.4498,10.3298,10.2587,10.1201,10.0896,0.0,10.4515,10.6409,10.7915,10.7999,10.8304,10.9116,10.9201,10.9183,10.9183,10.9183,10.9183,10.9183,10.9183,10.9201,10.9201,10.8388,10.8016,10.7898,10.7204,10.6511,10.5716,10.4988,10.4193,10.3483,10.2806,10.2486,10.2486,10.2502,10.1995,10.1402,10.1284,10.0811,9.9915,9.8461,9.7953,9.7683,9.6244,9.577,9.5804,9.577,9.6293,9.6868,9.6868,9.6868,9.6868,9.6868,9.6834,9.6631,9.5939,9.6326,9.6597,9.592,9.577,9.577,9.5736,9.5736,9.5736,9.5736,9.5736,9.5736,9.577,9.5736,9.5702,9.5702,9.5702,9.5398,9.4687,9.3992,9.2943,9.1372,8.9898,8.8443,8.6961,8.6163,8.5384,8.4614,8.3896,8.349,8.3422,8.2699,8.1968,8.1236,8.1202,8.0424,7.9046,7.9012,7.8606,0.0,0.0,7.5659,8.073,8.4255,8.7434,9.1223,9.3605,9.5432,9.6935,9.7071,9.6969,9.724,9.8307,9.9559,10.0795,10.3517,10.5513,10.5783,10.5783,10.4599,10.1419,10.1403,0.0,0.0,0.0,0.0,10.7712,10.7999,10.8794,11.0605,11.0706,11.1095,11.2109,11.1214,11.0909,11.1383,11.0384,10.9911,10.9911,10.8608,10.7678,10.7323,10.7001,10.6494,10.5817,10.5496,10.4701,10.3601,10.3314,10.2892,10.2486,10.2486,10.2283,10.2096,10.2096,10.1995,10.1505,9.9983,9.9476,9.9374,9.8867,9.8375,9.7969,9.7969,9.8138,9.8255,9.7766,9.7969,9.8255,9.7766,9.7274,9.6969,9.7191,9.7071,9.6834,9.6597,9.6529,9.6394,9.5872,9.5804,9.5804,9.5804,9.5804,9.5988,9.6462,9.6123,9.5804,9.5804,9.5804,9.5702,9.5466,9.4755,9.3706,9.217,9.0696,8.9207,8.7719,8.6481,8.5669,8.5418,8.4661,8.4221,8.4221,8.3511,8.3016,8.2759,8.2272,8.1752,8.1278,8.1278,8.1143,0.0,7.5685,8.0308,8.5778,8.9337,9.236,9.5551,9.7581,9.8765,9.8713,9.7747,9.6665,9.5853,9.5872,9.6499,9.7987,10.0506,10.2806,10.4396,10.4092,10.2992,10.0912,10.059,10.0389,0.0,0.0,0.0,10.7306,10.8101,10.92,11.0892,11.1789,11.2482,11.3192,11.2296,11.1992,11.2499,11.0993,10.9995,10.9505,10.8506,10.7593,10.69,10.69,10.6595,10.6189,10.5919,10.5107,10.4007,10.3686,10.3195,10.2486,10.2486,10.2486,10.2486,10.2486,10.2486,10.2283,10.1115,10.0592,10.0608,10.0287,9.9881,9.9491,9.9491,9.9491,9.939,9.8901,9.9153,9.939,9.8901,9.8442,9.8206,9.8664,9.8206,9.7747,9.8003,9.7883,9.7477,9.6717,9.6785,9.6819,9.6277,9.6413,9.6751,9.724,9.6886,9.6582,9.6582,9.6582,9.6582,9.6582,9.5702,9.4571,9.332,9.1595,8.9951,8.8511,8.7259,8.6481,8.6196,8.5452,8.5033,8.5033,8.4289,8.3883,8.3883,8.3409,8.3037,8.278,8.278,8.2631,7.64,8.0888,8.4969,9.052,9.3055,9.5092,9.8439,9.9678,9.9746,9.824,9.7123,9.5751,0.0,0.0,9.2798,9.4402,9.5567,9.7834,10.2198,10.0405,9.9288,0.0,0.0,0.0,0.0,0.0,0.0,10.6494,0.0,10.9505,11.0384,11.2396,11.3293,11.2702,11.2601,11.2618,11.2618,11.1095,10.9606,10.8118,10.8118,10.7712,10.69,10.69,10.69,10.6917,10.6189,10.5411,10.4616,10.3889,10.3212,10.2486,10.2486,10.2486,10.2486,10.2486,10.2486,10.2384,10.1706,10.1519,10.1284,10.0608,10.0287,10.0287,10.0287,10.0287,10.0287,10.0204,10.0204,10.0287,10.0204,10.022,10.022,10.022,9.966,9.9356,10.0001,9.966,9.895,9.824,9.8645,9.8661,9.724,9.7563,9.8021,9.8055,9.8021,9.7987,9.7987,9.7987,9.7987,9.7987,9.6683,9.5499,9.474,9.2658,9.0744,8.9289,8.8511,8.7753,8.7028,8.6278,8.5872,8.5872,8.5067,8.4647,8.4647,8.4614,8.4255,8.3558,8.3558,8.3186,7.8562,8.4108,8.9487,9.3285,9.6425,9.8972,10.0494,10.0116,9.895,9.7477,9.347,8.9579,0.0,0.0,0.0,9.3537,9.9153,0.0,10.6308,10.6511,0.0,0.0,0.0,10.3111,10.2012,10.2705,0.0,0.0,10.7779,10.9403,11.1789,11.2989,11.3986,11.4899,11.3902,11.3293,11.3293,11.189,11.0402,10.8913,10.8913,10.8202,10.69,10.69,10.69,10.6917,10.6697,10.5902,10.47,10.4514,10.3702,10.2486,10.2486,10.2486,10.2486,10.2486,10.2486,10.2502,10.2299,10.2198,10.2198,10.1995,10.1505,10.1097,10.1097,10.1097,10.0996,10.0405,10.0592,10.0996,10.0405,10.022,10.022,10.022,10.01,9.9983,10.0186,10.01,9.9848,9.9678,9.9356,9.8984,9.8578,9.824,9.8206,9.8747,9.8341,9.7987,9.7987,9.7987,9.7987,9.7987,9.6683,9.5499,9.474,9.3117,9.173,9.0811,8.9526,8.8748,8.8545,8.7313,8.6636,8.6636,8.5892,8.5486,8.5486,8.4898,8.4512,8.4323,8.4323,8.4221,8.2033,8.6545,9.109,9.5204,9.7171,9.8338,9.9228,9.8526,9.648,9.2353,8.8835,0.0,0.0,0.0,0.0,0.0,0.0,0.0,10.6494,10.7103,10.7103,0.0,10.6392,0.0,10.4989,10.5394,10.6308,0.0,10.8591,10.9911,11.189,11.3293,11.4477,11.5289,11.3902,11.2786,11.2211,11.1721,11.0503,10.8693,10.8693,10.8219,10.7407,10.7001,10.712,10.7407,0.0,10.6189,10.5191,10.4819,10.399,10.2976,10.2587,10.2486,10.2486,10.2486,10.2486,10.2486,10.2486,10.2486,10.2486,10.2486,10.2198,10.1909,10.1909,10.1909,10.1792,10.1302,10.1505,10.1792,10.1302,10.1201,10.1201,10.1201,10.1014,10.0795,10.1083,10.1014,10.0693,10.0693,9.9829,9.9187,9.9525,9.8984,9.8612,9.9051,9.8747,9.8375,9.8037,9.7987,9.7987,9.7987,9.6954,9.5973,9.5263,9.3808,9.2609,9.1831,9.0391,8.9579,8.9579,8.8158,8.738,8.738,8.667,8.6129,8.5804,8.5351,8.4931,8.4614,8.4614,8.4614,8.6133,8.8828,9.1566,9.6656,9.6795,9.5813,9.6598,9.5717,9.2793,8.5743,0.0,8.2361,7.8428,8.1325,8.527,8.826,0.0,9.9541,10.5817,10.6003,10.6697,11.0181,10.8794,10.7711,10.8011,10.7795,10.81,10.9091,11.0177,11.0993,11.1687,11.3598,11.4714,11.4816,11.3413,11.2008,11.079,11.1214,11.0316,10.8219,10.8321,10.8084,10.7779,10.7306,10.7289,10.7796,10.7204,0.0,10.5614,10.4988,10.421,10.3382,10.2689,10.2486,10.2486,10.2486,10.2486,10.2486,10.2486,10.2486,10.2486,10.2486,10.2486,10.2486,10.2486,10.2486,10.2486,10.2486,10.2486,10.2486,10.2486,10.2486,10.2486,10.2486,10.1995,10.169,10.2401,10.1995,10.1487,10.1487,10.0387,9.9559,10.0118,9.9593,9.9085,9.9085,9.9033,9.8747,9.824,9.807,9.7987,9.7987,9.7341,9.6631,9.6007,9.4669,9.3571,9.2914,9.1459,9.0662,9.0662,8.914,8.8294,8.8294,8.7468,8.6738,8.6075,8.6007,8.5587,8.4884,8.4783,8.4762,8.9648,9.2227,9.4611,9.8297,9.8019,9.6725,9.6141,9.2556,0.0,0.0,0.0,7.7807,7.6352,7.9769,8.4931,9.1556,9.6582,0.0,0.0,0.0,11.0012,0.0,0.0,0.0,0.0,0.0,0.0,0.0,0.0,11.309,11.3192,11.4191,11.4985,11.5609,11.4207,11.3293,11.3005,11.1889,11.0605,10.9014,10.9606,10.8896,10.7103,10.761,10.7492,10.7103,10.6984,0.0,10.4887,10.4802,10.3889,10.2705,10.252,10.2486,10.2486,10.2486,10.2486,10.2486,10.2486,10.2486,10.2486,10.2486,10.2486,10.2486,10.2486,10.2486,10.2486,10.2486,10.2486,10.2486,10.2486,10.2486,10.2486,10.2486,10.2384,10.2283,10.2502,10.2384,10.2299,10.2299,10.1605,10.0811,10.0287,9.9593,9.9085,9.9085,9.8578,9.8375,9.8848,9.8375,9.7987,9.7987,9.7341,9.6834,9.6732,9.592,9.5364,9.5229,9.3823,9.3011,9.3011,9.0966,8.9816,8.9816,8.8497,8.7753,8.7631,8.7008,8.6623,8.6487,8.5892,8.5587,9.0698,9.31,9.538,9.8325,9.6915,9.438,9.2704,0.0,0.0,0.0,0.0,7.5359,7.4187,7.8572,0.0,8.8748,9.3943,10.01,10.7881,0.0,0.0,0.0,0.0,0.0,0.0,0.0,0.0,0.0,0.0,11.2997,11.4085,11.4883,11.5086,11.4714,11.4696,11.441,11.3598,11.2888,11.1805,11.0283,11.0316,10.969,10.871,10.8202,10.7999,10.8118,10.7204,0.0,10.5208,10.4903,10.4108,10.2993,10.2587,10.2486,10.2486,10.2486,10.2486,10.2486,10.2486,10.2486,10.2486,10.2486,10.2486,10.2486,10.2486,10.2486,10.2486,10.2486,10.2486,10.2486,10.2486,10.2486,10.2486,10.2486,10.2486,10.2486,10.2486,10.2486,10.2486,10.2486,10.1589,10.0811,10.0811,9.9863,9.9221,9.9611,9.9374,9.9137,9.9085,9.8781,9.8442,9.8037,9.7698,9.7341,9.6935,9.6563,9.6056,9.5296,9.418,9.3417,9.2996,9.1189,9.0208,9.0208,8.914,8.8375,8.7989,8.7651,8.7279,8.6893,8.6535,8.6366,9.1591,9.3536,9.5614,9.84,9.5675,9.1728,8.9403,8.4342,0.0,0.0,7.3195,7.3634,7.28,7.7063,8.1887,0.0,8.9985,9.5958,10.4396,10.6189,0.0,0.0,0.0,0.0,0.0,0.0,0.0,0.0,0.0,0.0,11.4809,11.5492,11.5305,11.4087,11.5001,11.5001,11.3783,11.3699,11.2905,11.1399,11.0993,11.0401,10.9809,10.8709,10.8422,10.8608,10.7407,0.0,0.0,10.4904,10.421,10.3314,10.2689,10.2486,10.2486,10.2486,10.2486,10.2486,10.2486,10.2486,10.2486,10.2486,10.2486,10.2486,10.2486,10.2486,10.2486,10.2486,10.2486,10.2486,10.2486,10.2486,10.2486,10.2486,10.2486,10.2486,10.2486,10.2486,10.2486,10.2486,10.1505,10.0795,10.13,10.0387,9.9728,10.0102,10.022,9.9915,9.9187,9.9085,9.8815,9.807,9.7987,9.7766,9.7172,9.7138,9.6548,9.5263,9.4499,9.3706,9.2948,9.1459,9.0681,9.0681,8.9782,8.9052,8.8463,8.8294,8.7955,8.7367,8.7198,8.713,9.3916,9.4939,9.6366,9.9553,9.5906,9.0915,8.8602,0.0,0.0,7.3051,7.1988,7.1977,7.3184,7.4458,7.7828,8.554,8.7265,9.1643,10.3195,10.5411,10.7796,0.0,0.0,0.0,0.0,0.0,0.0,0.0,0.0,0.0,11.562,11.5779,11.5711,11.5609,11.5086,11.4714,11.4579,11.3902,11.2905,11.1399,11.1992,11.0909,10.8185,10.8794,10.8405,10.7103,10.6984,0.0,0.0,10.4717,10.3905,10.2603,10.2486,10.2486,10.2486,10.2486,10.2486,10.2486,10.2486,10.2486,10.2486,10.2486,10.2486,10.2486,10.2486,10.2486,10.2486,10.2486,10.2486,10.2486,10.2486,10.2486,10.2486,10.2486,10.2486,10.2486,10.2486,10.2486,10.2486,10.2486,10.2384,10.2096,10.1503,10.1316,10.0996,10.0287,10.022,9.9915,9.9187,9.9085,9.8815,9.807,9.7987,9.7969,9.7901,9.7901,9.7563,9.6732,9.6022,9.5263,9.4503,9.3015,9.2203,9.2203,9.0817,9.0073,9.0005,8.9323,8.8951,8.8883,8.8192,8.7888,9.4237,9.724,9.9315,9.9388,9.5966,9.132,8.6612,0.0,7.515,7.2332,7.1503,7.1605,7.2665,7.3443,7.5608,8.0716,8.1934,8.5439,9.4687,9.6973,10.0195,10.6815,0.0,0.0,0.0,0.0,0.0,0.0,0.0,0.0,11.3707,11.3788,11.4403,11.5794,11.5508,11.5391,11.5391,11.4207,11.3293,11.2718,11.2109,11.1011,10.9403,10.9285,10.8608,10.7492,10.7103,0.0,0.0,10.5394,10.4785,10.3804,10.3298,10.3195,10.3111,10.2705,10.2486,10.2486,10.2486,10.2486,10.2486,10.2486,10.2486,10.2486,10.2486,10.2486,10.2486,10.2486,10.2486,10.2486,10.2486,10.2486,10.2486,10.2486,10.2486,10.2486,10.2486,10.2486,10.2486,10.2486,10.208,10.169,10.1485,10.098,10.0693,10.0912,10.0912,10.0811,10.0506,10.0488,9.9999,9.8781,9.8273,9.7987,9.7987,9.7987,9.7698,9.6935,9.6631,9.5939,9.474,9.3673,9.288,9.2406,9.1406,9.0628,9.0208,9.0357,8.9966,8.9086,8.9241,8.9072,9.4058,9.8401,10.1384,9.991,9.64,9.1855,0.0,0.0,7.4774,7.2152,7.1436,7.147,7.1988,7.2665,7.4165,7.7176,7.8483,8.1684,8.9159,9.1459,9.4935,0.0,0.0,0.0,0.0,0.0,0.0,0.0,0.0,0.0,11.1394,11.1494,11.2819,11.5706,11.5812,11.5711,11.5492,11.4392,11.3699,11.3311,11.2211,11.1095,10.9996,10.9403,10.8591,10.7593,10.7103,0.0,0.0,10.5817,10.5208,10.4311,10.3804,10.3499,10.3212,10.2705,10.2486,10.2486,10.2486,10.2486,10.2486,10.2486,10.2486,10.2486,10.2486,10.2486,10.2486,10.2486,10.2486,10.2486,10.2486,10.2486,10.2486,10.2486,10.2486,10.2486,10.2486,10.2486,10.2486,10.2486,10.2096,10.169,10.169,10.1284,10.1115,10.1589,10.169,10.1589,10.1402,10.1402,10.0894,9.9559,9.895,9.8461,9.8037,9.7987,9.7698,9.6935,9.6902,9.6326,9.5093,9.4315,9.3673,9.3083,9.2102,9.1358,9.085,9.1135,9.0778,8.9763,9.0053,8.9816,9.3552,9.7865,10.1686,10.1597,9.7404,9.2366,0.0,0.0,7.4919,7.2815,7.1808,7.13,7.1289,7.1921,7.3409,7.642,7.8133,8.1684,8.9159,9.1459,9.4353,0.0,0.0,9.7362,0.0,0.0,0.0,0.0,0.0,0.0,10.8998,10.9102,11.1201,11.5703,11.5812,11.5407,11.468,11.4698,11.3988,11.2499,11.2499,11.1315,10.9217,10.9183,10.8405,0.0,0.0,0.0,0.0,10.5817,10.4887,10.3585,10.3585,10.3195,10.2486,10.2486,10.2486,10.2486,10.2486,10.2486,10.2486,10.2486,10.2486,10.2486,10.2486,10.2486,10.2486,10.2486,10.2486,10.2486,10.2486,10.2486,10.2486,10.2486,10.2486,10.2486,10.2486,10.2486,10.2486,10.2486,10.2486,10.2502,10.2502,10.2502,10.2502,10.2502,10.2502,10.2198,10.1503,10.1402,10.1097,10.0287,10.0186,9.9577,9.8123,9.7987,9.7698,9.6935,9.6902,9.6563,9.5804,9.5093,9.4673,9.4673,9.3184,9.2358,9.2358,9.1643,9.1271,9.1271,9.0527,8.9816,8.7874,9.2336,9.5602,9.3166,9.1495,8.8975,8.3456,0.0,7.6276,7.3046,7.2225,7.1909,7.1402,7.1909,7.3375,7.642,7.8133,8.0236,8.3537,0.0,0.0,9.3753,9.771,10.0812,0.0,0.0,0.0,0.0,0.0,0.0,10.6705,10.8305,11.1201,11.5703,11.5812,11.5407,11.4698,11.4207,11.3514,11.2517,11.1518,11.0402,10.9183,10.8608,10.7796,0.0,0.0,0.0,0.0,10.602,10.5496,10.5005,10.399,10.3499,10.3212,10.2705,10.2486,10.2486,10.2486,10.2486,10.2486,10.2486,10.2486,10.2486,10.2486,10.2486,10.2486,10.2486,10.2486,10.2486,10.2486,10.2486,10.2486,10.2486,10.2486,10.2486,10.2486,10.2486,10.2486,10.2486,10.2486,10.2486,10.2486,10.2486,10.2486,10.2486,10.2486,10.2384,10.2198,10.2214,10.1909,10.1081,10.1014,10.0405,9.8882,9.8747,9.8442,9.7698,9.7664,9.7326,9.6597,9.6326,9.5988,9.5466,9.4958,9.4485,9.3962,9.3726,9.3083,9.2034,9.0783,9.0073,0.0,8.9052,9.2206,9.0038,8.9081,0.0,0.0,0.0,7.6601,7.3105,7.2394,7.2259,7.1808,7.2326,7.3612,7.6048,7.7705,7.9316,8.1157,0.0,0.0,9.0949,0.0,0.0,0.0,0.0,0.0,0.0,0.0,0.0,10.5699,10.7902,11.0787,11.4389,11.509,11.5001,11.4308,11.3616,11.2702,11.1687,11.0705,10.9793,10.8693,10.8202,10.761,0.0,0.0,0.0,0.0,10.6122,10.5598,10.5293,10.4108,10.3415,10.3111,10.2705,10.2486,10.2486,10.2486,10.2486,10.2486,10.2486,10.2486,10.2486,10.2486,10.2486,10.2486,10.2486,10.2486,10.2486,10.2486,10.2486,10.2486,10.2486,10.2486,10.2486,10.2486,10.2486,10.2486,10.2486,10.2486,10.2486,10.2486,10.2486,10.2486,10.2486,10.2486,10.2486,10.2486,10.2486,10.2283,10.1909,10.1792,10.1284,10.0082,9.9694,9.9187,9.8476,9.8409,9.807,9.7341,9.7037,9.6665,9.6225,9.5939,9.5567,9.5112,9.4857,9.4064,9.2812,9.1305,9.0478,0.0,0.0,0.0,0.0,0.0,0.0,0.0,0.0,0.0,7.3003,7.2428,7.2462,7.2462,7.3071,7.4063,7.5608,7.7142,0.0,0.0,8.4829,0.0,0.0,9.6162,0.0,0.0,0.0,0.0,0.0,0.0,0.0,10.5699,10.7902,11.0104,11.2396,11.3891,11.4308,11.3598,11.2905,11.1789,11.0316,11.0316,10.9487,10.7999,10.7999,10.761,0.0,0.0,0.0,0.0,10.6122,10.5377,10.4684,10.3889,10.3179,10.2603,10.2486,10.2486,10.2486,10.2486,10.2486,10.2486,10.2486,10.2486,10.2486,10.2486,10.2486,10.2486,10.2486,10.2486,10.2486,10.2486,10.2486,10.2486,10.2486,10.2486,10.2486,10.2486,10.2486,10.2486,10.2486,10.2486,10.2486,10.2486,10.2486,10.2486,10.2486,10.2486,10.2486,10.2486,10.2486,10.2486,10.2486,10.2486,10.2198,10.1487,10.0693,9.9949,9.9221,9.9119,9.8781,9.8104,9.736,9.6969,9.6969,9.6326,9.5939,9.5872,9.5195,9.4451,9.3654,9.2165,9.1068,0.0,0.0,0.0,0.0,0.0,0.0,0.0,0.0,0.0,0.0,0.0,7.3251,7.3251,7.3849,7.5033,0.0,0.0,7.9585,7.9345,0.0,0.0,9.5441,0.0,0.0,0.0,0.0,0.0,0.0,0.0,10.3491,10.5699,10.7902,11.0104,11.2396,11.3421,11.3801,11.3598,11.2905,11.1789,11.0316,11.0316,10.9487,10.7999,10.7999,10.761,0.0,0.0,0.0,10.6798,10.6122,10.5716,10.5411,10.4092,10.3483,10.3296,10.2705,10.2486,10.2486,10.2486,10.2486,10.2486,10.2486,10.2486,10.2486,10.2486,10.2486,10.2486,10.2486,10.2486,10.2486,10.2486,10.2486,10.2486,10.2486,10.2486,10.2486,10.2486,10.2486,10.2486,10.2486,10.2486,10.2486,10.2486,10.2486,10.2486,10.2486,10.2486,10.2486,10.2486,10.2486,10.2486,10.2486,10.2486,10.2384,10.2315,10.1605,10.0777,9.9983,9.9424,9.9018,9.8848,9.8138,9.7732,9.7732,9.7563,9.7225,9.6631,9.6462,9.5717,9.4417,9.347,9.2624,6.8944,7.2124,7.519,7.5134,0.0,0.0,0.0,0.0,0.0,0.0,0.0,7.3505,7.3447,7.3794,0.0,0.0,7.7722,0.0,0.0,0.0,9.0958,9.6803,9.9376,0.0,0.0,0.0,0.0,0.0,0.0,10.3012,10.4195,10.7292,10.9705,11.09,11.2704,11.3598,11.3598,11.2211,11.0892,10.9809,10.9386,10.8608,10.7509,10.7509,10.7306,0.0,0.0,0.0,10.6798,10.6122,10.5614,10.5191,10.399,10.3382,10.2993,10.2587,10.2486,10.2486,10.2486,10.2486,10.2486,10.2486,10.2486,10.2486,10.2486,10.2486,10.2486,10.2486,10.2486,10.2486,10.2486,10.2486,10.2486,10.2486,10.2486,10.2486,10.2486,10.2486,10.2486,10.2486,10.2486,10.2486,10.2486,10.2486,10.2486,10.2486,10.2486,10.2486,10.2486,10.2486,10.2486,10.2486,10.2486,10.2486,10.2486,10.208,10.1605,10.0811,10.042,9.9981,9.9627,9.9205,9.8833,9.851,9.851,9.8138,9.7394,9.7071,9.6496,9.5669,9.4263,9.3383,6.8132,7.1379,7.448,7.4796,7.5642,0.0,0.0,0.0,0.0,0.0,0.0,0.0,0.0,7.3939,0.0,0.0,0.0,0.0,8.6307,8.8133,9.0968,9.6952,9.8538,0.0,10.1913,0.0,0.0,0.0,0.0,10.2599,10.2989,10.6615,10.8905,10.959,11.1922,11.3293,11.3598,11.1381,10.9911,10.9183,10.849,10.7695,10.69,10.7001,10.7001,10.69,0.0,0.0,10.6798,10.6122,10.5411,10.4785,10.3889,10.3212,10.2705,10.2486,10.2486,10.2486,10.2486,10.2486,10.2486,10.2486,10.2486,10.2486,10.2486,10.2486,10.2486,10.2486,10.2486,10.2486,10.2486,10.2486,10.2486,10.2486,10.2486,10.2486,10.2486,10.2486,10.2486,10.2486,10.2486,10.2486,10.2486,10.2486,10.2486,10.2486,10.2486,10.2486,10.2486,10.2486,10.2486,10.2486,10.2486,10.2486,10.2486,10.2486,10.2181,10.1605,10.1519,10.1014,10.0204,10.0084,9.9746,9.9119,9.8984,9.8612,9.7987,9.736,9.7003,9.6834,9.4973,9.3992,7.0049,7.2191,7.3251,7.1492,7.2541,0.0,0.0,0.0,0.0,0.0,0.0,0.0,0.0,7.646,0.0,0.0,0.0,8.5431,0.0,0.0,9.4716,9.7947,0.0,10.1381,10.0094,10.1501,10.2488,0.0,0.0,10.3306,10.5195,10.5903,10.7998,11.1917,11.1187,11.1713,11.3614,11.1381,10.9911,10.9183,10.9082,10.8304,10.69,10.7492,10.7509,10.69,0.0,10.69,10.6798,10.6122,10.5699,10.5513,10.4092,10.3517,10.3398,10.2689,10.2486,10.2486,10.2486,10.2486,10.2486,10.2486,10.2486,10.2486,10.2486,10.2486,10.2486,10.2486,10.2486,10.2486,10.2486,10.2486,10.2486,10.2486,10.2486,10.2486,10.2486,10.2486,10.2486,10.2486,10.2486,10.2486,10.2486,10.2486,10.2486,10.2486,10.2486,10.2486,10.2486,10.2486,10.2486,10.2486,10.2486,10.2486,10.2486,10.2486,10.2502,10.2283,10.169,10.1014,10.0204,9.9593,9.9221,9.9085,9.8476,9.8104,9.7987,9.7901,9.7495,9.6902,9.6529,9.5717,6.8967,7.0872,7.2259,7.2033,0.0,7.4414,0.0,0.0,0.0,0.0,0.0,0.0,0.0,0.0,7.9273,0.0,0.0,0.0,0.0,0.0,0.0,0.0,0.0,10.049,10.1082,10.2003,10.2488,10.2488,0.0,0.0,10.3982,10.5203,10.6601,10.8289,10.9597,11.0587,11.1298,11.0618,10.9911,10.9183,10.8811,10.7999,10.69,10.7289,10.7204,10.6917,0.0,10.6291,10.6206,10.5479,10.4988,10.4481,10.3905,10.3398,10.2976,10.2587,10.2486,10.2486,10.2486,10.2486,10.2486,10.2486,10.2486,10.2486,10.2486,10.2486,10.2486,10.2486,10.2486,10.2486,10.2486,10.2486,10.2486,10.2486,10.2486,10.2486,10.2486,10.2486,10.2486,10.2486,10.2486,10.2486,10.2486,10.2486,10.2587,10.2993,10.2806,10.2587,10.2993,10.2689,10.2486,10.2486,10.2486,10.2486,10.2486,10.2486,10.2486,10.2486,10.2198,10.1606,10.0878,10.0912,10.049,9.9712,9.9374,9.9002,9.8578,9.819,9.7834,9.7461,9.7105,9.6529,6.8808,7.0364,7.2011,7.3827,0.0,7.5386,7.5233,0.0,0.0,0.0,0.0,0.0,0.0,7.8439,0.0,8.5323,0.0,0.0,0.0,0.0,0.0,0.0,0.0,10.0221,10.2309,10.2488,10.2488,10.2488,10.2488,10.2488,10.2488,10.4111,10.4985,10.5004,10.8103,10.9714,10.9495,11.0205,11.0114,10.9183,10.8388,10.7593,10.69,10.6697,10.6595,10.6595,10.5902,10.5496,10.5479,10.4701,10.4108,10.3601,10.3415,10.3009,10.2486,10.2486,10.2486,10.2486,10.2486,10.2486,10.2486,10.2486,10.2486,10.2486,10.2486,10.2486,10.2486,10.2486,10.2486,10.2486,10.2486,10.2486,10.2486,10.2486,10.2486,10.2486,10.2486,10.2486,10.2486,10.2486,10.2587,10.2806,10.2806,10.2908,10.3212,10.3804,10.3212,10.2976,10.3517,10.2976,10.2486,10.2486,10.2486,10.2486,10.2486,10.2486,10.2486,10.2486,10.2486,10.2215,10.1706,10.1995,10.1606,10.0204,10.0001,9.9593,9.8848,9.8273,9.7987,9.8003,9.7428,9.7071,7.2135,7.271,7.3037,7.5946,7.5672,0.0,7.688,7.711,0.0,0.0,0.0,0.0,0.0,8.1617,8.5549,8.93,9.2687,9.58,0.0,0.0,0.0,0.0,0.0,10.2309,10.2512,10.2488,10.2488,10.2488,10.2488,10.2488,10.2488,10.2705,10.3714,10.5703,10.729,10.8792,11.019,11.101,11.0605,10.9183,10.8388,10.7593,10.6917,10.6189,10.5885,10.5801,10.509,10.4785,10.4717,10.4007,10.3618,10.3517,10.279,10.252,10.2486,10.2486,10.2486,10.2486,10.2486,10.2486,10.2486,10.2486,10.2486,10.2486,10.2486,10.2486,10.2486,10.2486,10.2486,10.2486,10.2486,10.2486,10.2486,10.2486,10.2486,10.2486,10.2486,10.2486,10.2486,10.2486,10.3093,10.3517,10.3517,10.4108,10.4598,10.4582,10.4007,10.3517,10.3585,10.2976,10.2486,10.2486,10.2486,10.2486,10.2486,10.2486,10.2486,10.2486,10.2486,10.2502,10.2384,10.1792,10.1097,10.0204,9.9525,9.8815,9.807,9.8037,9.7987,9.7987,9.7953,9.7563,7.0815,7.1177,7.1975,7.6472,0.0,0.0,0.0,0.0,0.0,0.0,0.0,0.0,0.0,0.0,8.7133,9.0546,9.4563,9.7919,9.9849,10.1105,10.192,10.2375,10.2488,10.2488,10.2488,10.2488,10.2488,10.2488,10.2488,10.2309,10.1913,10.2302,10.3114,10.4486,10.6404,10.8102,10.9707,11.0406,11.0181,10.9183,10.8388,10.7593,10.6917,10.6105,10.5817,10.5699,10.4498,10.399,10.4007,10.3212,10.2892,10.2908,10.2587,10.2486,10.2486,10.2486,10.2486,10.2486,10.2486,10.2486,10.2486,10.2486,10.2486,10.2486,10.2486,10.2486,10.2486,10.2486,10.2486,10.2486,10.2486,10.2486,10.2486,10.2486,10.2486,10.2587,10.3111,10.3179,10.3179,10.3179,10.3804,10.4092,10.3702,10.421,10.4903,10.531,10.4785,10.4311,10.4311,10.3618,10.3009,10.252,10.2486,10.2486,10.2486,10.2486,10.2486,10.2486,10.2486,10.2299,10.1792,10.2011,10.169,10.0996,10.0691,10.01,9.9374,9.8916,9.8442,9.7987,9.7987,9.7867,6.9244,6.9466,7.0429,0.0,0.0,0.0,0.0,0.0,0.0,0.0,0.0,0.0,0.0,0.0,0.0,0.0,9.5943,9.9376,10.0902,10.189,10.2488,10.2488,10.2488,10.2488,10.2488,10.2488,10.2488,10.2488,10.2488,10.2189,10.1494,10.189,10.2713,10.369,10.5782,10.7606,10.8897,10.9785,10.9809,10.8794,10.7999,10.7407,10.6917,10.5885,10.5496,10.5394,10.3889,10.3296,10.3212,10.2705,10.2486,10.2486,10.2486,10.2486,10.2486,10.2486,10.2486,10.2486,10.2486,10.2486,10.2486,10.2486,10.2486,10.2486,10.2486,10.2486,10.2486,10.2486,10.2486,10.2486,10.2486,10.2486,10.2486,10.2486,10.2486,10.2587,10.3095,10.3296,10.3314,10.3601,10.421,10.4616,10.4295,10.492,10.5597,10.6088,10.5513,10.5005,10.5005,10.421,10.3314,10.2603,10.2486,10.2486,10.2486,10.2486,10.2486,10.2486,10.2486,10.2299,10.1808,10.2181,10.2214,10.1402,10.1402,10.098,10.022,9.9457,9.895,9.8664,9.8224,9.8123,6.8127,6.8104,0.0,0.0,0.0,0.0,0.0,0.0,0.0,0.0,0.0,0.0,0.0,0.0,0.0,0.0,0.0,10.0214,10.2189,10.2488,10.2488,10.2488,10.2488,10.2488,10.2488,10.2488,10.2488,10.2488,10.2488,10.2212,10.1494,10.1517,10.2199,10.3603,10.5898,10.7287,10.7989,10.9496,10.9402,10.7914,10.7187,10.6883,10.6798,10.5394,10.4684,10.4616,10.3095,10.2486,10.2486,10.2486,10.2486,10.2486,10.2486,10.2486,10.2486,10.2486,10.2486,10.2486,10.2486,10.2486,10.2486,10.2486,10.2486,10.2486,10.2486,10.2486,10.2486,10.2486,10.2486,10.2486,10.2486,10.2486,10.2486,10.2486,10.2486,10.2486,10.2486,10.2486,10.2689,10.3499,10.421,10.4904,10.5682,10.6392,10.6917,10.6917,10.6291,10.5817,10.5817,10.4498,10.3314,10.2603,10.2486,10.2486,10.2486,10.2486,10.2486,10.2486,10.2486,10.2486,10.2486,10.2486,10.2214,10.1402,10.1402,10.1014,10.022,9.9491,9.9491,10.0186,9.8664,9.8375,6.986,6.9154,0.0,7.3873,0.0,0.0,0.0,8.5582,0.0,0.0,0.0,0.0,0.0,0.0,0.0,0.0,0.0,0.0,10.0902,10.189,10.2488,10.2488,10.2488,10.2488,10.2488,10.2488,10.2279,10.18,10.1793,10.1314,10.0207,10.0513,10.1291,10.2392,10.3011,10.3906,10.5203,10.4705,10.3901,10.3007,10.229,10.3703,10.6798,10.5394,10.4684,10.4616,10.3095,10.2486,10.2486,10.2486,10.2486,10.2486,10.2486,10.2486,10.2486,10.2486,10.2486,10.2486,10.2486,10.2486,10.2486,10.2486,10.2486,10.2486,10.2486,10.2486,10.2486,10.2486,10.2486,10.2486,10.2486,10.2486,10.2486,10.2486,10.2486,10.2587,10.3195,10.3296,10.3298,10.3601,10.421,10.4582,10.4295,10.531,10.6105,10.6105,10.5902,10.5395,10.4396,10.3415,10.2689,10.2486,10.2486,10.2486,10.2486,10.2486,10.2486,10.2486,10.2486,10.2486,10.2486,10.2486,10.2401,10.2198,10.2198,10.1792,10.1014,10.0303,9.9728,9.939,9.8442,9.8138,6.8784,6.8589,0.0,7.4665,7.7214,8.0028,8.5713,0.0,0.0,0.0,0.0,0.0,0.0,0.0,0.0,0.0,0.0,0.0,10.0806,10.18,10.2398,10.2099,10.2309,10.2398,10.2099,10.2093,10.189,10.1494,10.1308,10.0603,9.9556,9.9615,10.0209,10.14,10.1102,10.1689,10.3216,10.2094,10.1306,10.0807,9.9865,10.0993,10.4091,10.3391,10.3481,10.421,10.3009,10.2486,10.2486,10.2486,10.2486,10.2486,10.2486,10.2486,10.2486,10.2486,10.2486,10.2486,10.2486,10.2486,10.2486,10.2486,10.2486,10.2486,10.2486,10.2486,10.2486,10.2486,10.2486,10.2486,10.2486,10.2486,10.2486,10.2486,10.2486,10.2587,10.3077,10.3195,10.3196,10.3517,10.4007,10.421,10.4108,10.4785,10.5394,10.5394,10.5394,10.4904,10.3804,10.3212,10.279,10.2486,10.2486,10.2486,10.2486,10.2486,10.2486,10.2486,10.2486,10.2486,10.2486,10.2486,10.2486,10.2486,10.2486,10.2299,10.1792,10.1097,10.0389,9.9981,9.8916,9.8442,6.6536,6.7446,6.9475,7.4181,7.7644,0.0,8.6184,0.0,0.0,0.0,0.0,0.0,0.0,0.0,0.0,9.7917,9.9615,10.0686,10.1225,10.2003,10.2189,10.1494,10.2003,10.2099,10.1517,10.1404,10.1397,10.1314,10.0716,10.0004,9.9346,9.8695,9.8949,10.0319,9.9744,9.9974,10.1099,10.0501,10.0087,9.9953,9.8737,9.8533,9.9253,9.999,10.1291,10.2906,10.2317,10.1997,10.1997,10.1997,10.2095,10.2209,10.2012,10.2095,10.2209,10.2012,10.1997,10.2013,10.221,10.2192,10.2292,10.2404,10.2486,10.2486,10.2486,10.2486,10.2486,10.2486,10.2486,10.2486,10.2486,10.2486,10.2486,10.2486,10.2486,10.2486,10.2486,10.2486,10.2705,10.3398,10.3483,10.3686,10.4413,10.4598,10.4582,10.4582,10.4582,10.4295,10.3585,10.3483,10.3196,10.2603,10.2486,10.2486,10.2486,10.2486,10.2486,10.2486,10.2486,10.2486,10.2486,10.2486,10.2486,10.2486,10.2486,10.2486,10.2486,10.1808,10.1418,10.1316,9.9762,9.9051,7.0539,7.0594,0.0,7.7408,8.3142,8.8206,9.1401,9.4341,9.5987,0.0,0.0,0.0,9.7977,9.7618,9.7499,9.8366,9.9615,10.0387,9.9975,10.1411,10.2093,10.0918,10.1314,10.1517,10.0806,10.0716,10.0506,9.9975,9.9316,9.8658,9.797,9.7341,9.6926,9.6729,9.66,9.6142,9.5378,9.5226,9.4648,9.3563,9.329,9.3757,9.4993,9.7274,9.824,9.8103,9.7941,9.7876,9.7876,9.7876,9.8779,10.0007,9.8446,9.8814,9.9972,9.8411,9.7876,9.809,9.9613,10.0093,10.0414,10.198,10.2486,10.2486,10.2486,10.2486,10.2486,10.2486,10.2486,10.2486,10.2486,10.2486,10.2486,10.2486,10.2486,10.2486,10.2486,10.2486,10.252,10.2705,10.2689,10.2806,10.2892,10.3499,10.3787,10.3787,10.3787,10.3601,10.279,10.2689,10.2705,10.2486,10.2486,10.2486,10.2486,10.2486,10.2486,10.2486,10.2486,10.2486,10.2486,10.2486,10.2486,10.2486,10.2486,10.2486,10.2486,10.1808,10.1097,10.0423,9.9525,9.8781,7.0936,7.2267,7.4956,8.1134,0.0,9.1467,9.2814,9.467,9.5927,9.5179,9.6892,9.8605,9.8905,9.8725,9.8605,9.8935,9.9556,9.9885,9.9556,10.0716,10.1195,10.0101,10.0895,10.1105,10.0094,10.0004,9.9735,9.9054,9.8149,9.7431,9.7094,9.6466,9.5957,9.5606,9.4999,9.4311,9.3622,9.2943,9.2464,9.2054,9.1425,9.1488,9.2285,9.5653,9.6959,9.6589,9.6589,9.6589,9.6589,9.6589,9.7193,9.8019,9.6992,9.7211,9.8001,9.6956,9.6589,9.6736,9.7754,9.8126,9.8286,9.9336,9.968,9.9852,10.0785,10.112,10.1286,10.2192,10.2486,10.2486,10.2486,10.2486,10.2486,10.2486,10.2486,10.2486,10.2486,10.2486,10.2486,10.2486,10.2486,10.2486,10.2486,10.2806,10.3077,10.3077,10.3077,10.2892,10.252,10.2486,10.2486,10.2486,10.2486,10.2486,10.2486,10.2486,10.2486,10.2486,10.2486,10.2486,10.2486,10.2486,10.2486,10.2486,10.2486,10.2486,10.2486,10.2096,10.1487,10.0777,10.042,9.9796,7.0072,7.3509,7.8424,8.4389,8.9262,0.0,9.2613,9.4169,9.5755,9.6316,9.7521,9.8695,9.9376,9.9054,9.8845,9.9406,9.9406,9.9346,9.9346,9.9885,10.0117,9.9406,10.0304,10.0506,9.9256,9.9047,9.8778,9.8217,9.7072,9.6376,9.6256,9.5628,9.5209,9.5067,9.4011,9.3383,9.3263,9.2165,9.1814,9.2254,9.1126,9.0597,9.0721,9.4039,9.5545,9.5545,9.5545,9.5545,9.5545,9.5545,9.5752,9.6051,9.5696,9.5771,9.6032,9.5677,9.5545,9.5602,9.5958,9.607,9.6144,9.6478,9.6589,9.6956,9.8904,9.9494,9.9905,10.1897,10.2486,10.2486,10.2486,10.2486,10.2486,10.2486,10.2486,10.2486,10.2486,10.2486,10.2486,10.2486,10.2486,10.2486,10.2486,10.2486,10.2486,10.2486,10.2486,10.2486,10.2486,10.2486,10.2486,10.2486,10.2486,10.2486,10.2486,10.2486,10.2486,10.2486,10.2486,10.2486,10.2486,10.2486,10.2486,10.2486,10.2486,10.2486,10.2486,10.2486,10.2096,10.1402,10.1402,10.0996,7.0163,7.5469,8.122,8.5501,8.9621,9.2613,0.0,0.0,9.5628,0.0,9.7222,9.8695,9.9376,9.9436,9.9406,9.9496,9.8994,9.8635,9.8635,9.9226,9.9376,9.8695,9.8785,9.8576,9.785,9.7304,9.6945,9.6855,9.6166,9.5486,9.4917,9.4229,9.3592,9.3032,9.2823,9.2464,9.1874,9.1695,9.1366,9.0866,9.0687,9.0597,9.0618,9.1156,9.1392,9.1392,9.1392,9.1392,9.1392,9.1392,9.2435,9.3845,9.2083,9.2475,9.3806,9.2043,9.1392,9.1648,9.3406,9.3989,9.4279,9.6032,9.6589,9.6956,9.8904,9.9494,9.9905,10.1897,10.2486,10.2486,10.2486,10.2486,10.2486,10.2486,10.2486,10.2486,10.2486,10.2486,10.2486,10.2486,10.2486,10.2486,10.2486,10.2486,10.2486,10.2486,10.2486,10.2486,10.2486,10.2486,10.2486,10.2486,10.2486,10.2486,10.2486,10.2486,10.2486,10.2486,10.2486,10.2486,10.2486,10.2486,10.2486,10.2486,10.2486,10.2486,10.2486,10.2486,10.2096,10.1402,10.1402,10.0996,7.4452,7.7903,8.1482,8.6539,8.966,9.1665,9.2434,9.3571,9.47,9.5426,9.6294,9.7072,9.773,9.7872,9.7872,9.7872,9.7611,9.7431,9.7431,9.767,9.7783,9.7461,9.773,9.77,9.7064,9.6765,9.6436,9.6077,9.5426,9.4738,9.408,9.3772,9.3293,9.2613,9.2254,9.1904,9.1605,9.1246,9.0866,9.0597,9.0597,9.0597,9.0597,9.0597,9.0597,9.0597,9.0597,9.0597,9.0597,9.0597,9.1115,9.1851,9.096,9.1136,9.1831,9.0939,9.0597,9.0742,9.1607,9.1901,9.2063,9.2943,9.4,9.5281,9.7266,9.864,9.9905,10.1897,10.2486,10.2486,10.2486,10.2486,10.2486,10.2486,10.2486,10.2486,10.2486,10.2486,10.2486,10.2486,10.2486,10.2486,10.2486,10.2486,10.2486,10.2486,10.2486,10.2486,10.2486,10.2486,10.2486,10.2486,10.2486,10.2486,10.2486,10.2486,10.2486,10.2486,10.2486,10.2486,10.2486,10.2486,10.2486,10.2486,10.2486,10.2486,10.2486,10.2486,10.2283,10.1995,10.1995,10.1809,7.5167,7.7183,7.9429,8.5252,8.8304,9.0259,9.1754,9.2853,9.3892,9.4909,9.5217,9.5486,9.6017,9.6376,9.6585,9.6585,9.6466,9.6406,9.6585,9.6436,9.6406,9.6585,9.6855,9.6833,9.6406,9.6047,9.5628,9.5149,9.4469,9.381,9.3143,9.3113,9.2793,9.2135,9.1605,9.1366,9.1366,9.0836,9.0597,9.0597,9.0597,9.0597,9.0597,9.0597,9.0597,9.0597,9.0597,9.0597,9.0597,9.0597,9.0597,9.0597,9.0597,9.0597,9.0597,9.0597,9.0597,9.0597,9.0597,9.0597,9.0597,9.0597,9.1607,9.3307,9.5827,9.7591,9.9286,10.1816,10.2486,10.2486,10.2486,10.2486,10.2486,10.2486,10.2486,10.2486,10.2486,10.2486,10.2486,10.2486,10.2486,10.2486,10.2486,10.2486,10.2486,10.2486,10.2486,10.2486,10.2486,10.2486,10.2486,10.2486,10.2486,10.2486,10.2486,10.2486,10.2486,10.2486,10.2486,10.2486,10.2486,10.2486,10.2486,10.2486,10.2486,10.2486,10.2486,10.2486,10.2486,10.2486,10.2486,10.2486,6.8016,7.088,7.4522,7.9896,8.4564,8.8344,9.0268,9.2224,9.3622,9.3682,9.4199,9.4678,9.4708,9.5747,9.6585,9.6585,9.6077,9.5867,9.6496,9.6047,9.5897,9.6525,9.6077,9.5687,9.5658,9.449,9.3742,9.3712,9.3062,9.2404,9.1725,9.1695,9.1395,9.0717,9.0657,9.0657,9.0657,9.0627,9.0597,9.0597,9.0597,9.0597,9.0597,9.0597,9.0597,9.0597,9.0597,9.0597,9.0597,9.0597,9.0597,9.0597,9.0597,9.0597,9.0597,9.0597,9.0597,9.0597,9.0597,9.0597,9.0597,9.0597,9.068,9.1495,9.5394,9.6662,9.757,10.1403,10.2486,10.2486,10.2486,10.2486,10.2486,10.2486,10.2486,10.2486,10.2486,10.2486,10.2486,10.2486,10.2486,10.2486,10.2486,10.2486,10.2486,10.2486,10.2486,10.2486,10.2486,10.2486,10.2486,10.2486,10.2486,10.2486,10.2486,10.2486,10.2486,10.2486,10.2486,10.2486,10.2486,10.2486,10.2486,10.2486,10.2486,10.2486,10.2486,10.2486,10.2486,10.2486,10.2486,10.2486,6.8103,7.0111,7.2894,7.819,8.235,8.5771,8.8194,9.0588,9.2434,9.2853,9.3152,9.3332,9.3332,9.4409,9.5306,9.5306,9.5097,9.5037,9.5277,9.5097,9.5037,9.5277,9.5097,9.4798,9.4371,9.3892,9.3413,9.2972,9.2733,9.2314,9.1635,9.1605,9.1306,9.0627,9.0597,9.0597,9.0597,9.0219,9.0219,9.0597,9.0219,9.0249,9.0597,9.0597,9.0378,9.001,9.001,9.001,9.004,9.0438,9.0378,9.007,9.0468,9.0597,9.0597,9.0597,9.0597,9.0597,9.0597,9.0597,9.0597,9.0597,9.1474,9.3031,9.5752,9.7465,9.9024,10.1683,10.2486,10.2486,10.2486,10.2486,10.2486,10.2486,10.2486,10.2486,10.2486,10.2486,10.2486,10.2486,10.2486,10.2486,10.2486,10.2486,10.2486,10.2486,10.2486,10.2486,10.2486,10.2486,10.2486,10.2486,10.2486,10.2486,10.2486,10.2486,10.2486,10.2486,10.2486,10.2486,10.2486,10.2486,10.2486,10.2486,10.2486,10.2486,10.2486,10.2486,10.2486,10.2486,10.2486,10.2486,6.6913,6.8286,7.0649,7.6395,7.9297,8.1912,8.6359,8.8693,9.0279,9.1407,9.2135,9.2613,9.2613,9.3332,9.402,9.4229,9.4469,9.4618,9.4618,9.4409,9.4259,9.4259,9.408,9.375,9.3323,9.3062,9.2733,9.2314,9.2075,0.0,9.1306,9.1276,9.1066,9.0597,9.0597,9.0498,9.0289,8.9911,8.9791,8.996,8.9552,8.9561,8.996,8.996,8.9741,8.9342,8.9342,8.9342,8.9402,8.9801,8.986,8.9731,9.013,9.0408,9.0597,9.0597,9.0597,9.0597,9.0597,9.0597,9.0597,9.0597,9.1485,9.2952,9.4989,9.6515,9.7933,9.9955,10.1003,10.1485,10.1485,10.1996,10.2486,10.2486,10.2486,10.2486,10.2486,10.2486,10.2486,10.2486,10.2486,10.2486,10.2486,10.2486,10.2486,10.2486,10.2486,10.2486,10.2486,10.2486,10.2486,10.2486,10.2486,10.2486,10.2486,10.2486,10.2486,10.2486,10.2486,10.2486,10.2486,10.2486,10.2486,10.2486,10.2486,10.2486,10.2486,10.2486,10.2486,10.2486,10.2486,10.2486,0.0,0.0,0.0,7.4001,7.5198,7.6801,8.4583,8.6409,8.7038,8.9153,9.1078,9.2404,9.2524,9.2554,9.2793,9.3443,9.411,9.4558,9.4558,9.399,9.3562,9.3562,9.3002,9.2583,9.2583,9.1964,9.1575,9.1575,9.0977,9.0597,9.0597,9.0567,9.0567,9.0567,9.0537,9.0259,8.9692,8.9662,8.9312,8.8714,8.8684,8.8684,8.8714,8.8714,8.8684,8.8684,8.8684,8.8654,8.8654,8.8684,8.9073,8.9671,8.9692,9.007,9.0597,9.0597,9.0597,9.0597,9.0597,9.0597,9.0597,9.0597,9.0597,9.1001,9.2991,9.361,9.4008,9.6107,9.8055,9.9494,9.9545,10.1003,10.2486,10.2486,10.2486,10.2486,10.2486,10.2486,10.2486,10.2486,10.2486,10.2486,10.2486,10.2486,10.2486,10.2486,10.2486,10.2486,10.2486,10.2486,10.2486,10.2486,10.2486,10.2486,10.2486,10.2486,10.2486,10.2486,10.2486,10.2486,10.2486,10.2486,10.2486,10.2486,10.2486,10.2486,10.2486,10.2486,10.2486,10.2486,10.2486,10.2502,6.3303,0.0,0.0,0.0,0.0,0.0,7.722,7.9256,8.1512,8.5881,8.6838,8.7746,9.0648,9.1545,9.1934,9.2113,9.2733,9.3152,9.3152,9.3002,9.2883,9.2883,9.2703,9.2404,9.1904,9.1695,9.1395,0.0,9.0687,9.0597,9.0597,9.019,8.9971,8.9971,8.9471,8.9142,8.8983,8.8484,8.8394,8.8693,8.8215,8.8215,8.8714,8.8714,8.8424,8.7975,8.7975,8.7676,8.7337,8.8295,8.8803,8.9013,8.9492,9.007,9.0597,9.0597,9.0597,9.0597,9.0597,9.0597,9.0597,9.0597,9.0597,9.1001,9.2991,9.361,9.4318,9.7736,9.9094,9.9837,10.1303,10.2111,10.2486,10.2486,10.2486,10.2486,10.2486,10.2486,10.2486,10.2486,10.2486,10.2486,10.2486,10.2486,10.2486,10.2486,10.2486,10.2486,10.2486,10.2486,10.2486,10.2486,10.2486,10.2486,10.2486,10.2486,10.2486,10.2486,10.2486,10.2486,10.2486,10.2486,10.2486,10.2486,10.2486,10.2486,10.2486,10.2486,10.2486,10.2486,10.2486,10.2198,0.0,0.0,0.0,0.0,0.0,0.0,7.4569,7.6155,7.8071,8.3386,8.4803,8.5981,8.8853,9.019,9.0818,9.0818,9.1357,9.1964,9.2524,9.2374,9.2173,9.2173,9.1934,9.1605,9.1216,9.1186,9.1016,9.0627,9.0597,9.0597,9.0597,9.001,8.9722,8.9722,8.9043,8.8564,8.8274,8.7915,8.7766,8.7876,8.7487,8.7487,8.7876,8.7876,8.7666,8.7257,8.7257,8.7067,8.6768,8.7546,8.8025,8.8334,8.9013,8.9671,9.0259,9.0528,9.0597,9.0597,9.0597,9.0597,9.0597,9.0597,9.0597,9.0815,9.1982,9.2355,9.2843,9.5129,9.7011,9.8728,10.0701,10.1882,10.2486,10.2486,10.2486,10.2486,10.2486,10.2486,10.2486,10.2486,10.2486,10.2486,10.2486,10.2486,10.2486,10.2486,10.2486,10.2486,10.2486,10.2486,10.2486,10.2486,10.2486,10.2486,10.2486,10.2486,10.2486,10.2486,10.2486,10.2486,10.2486,10.2486,10.2486,10.2486,10.2486,10.2486,10.2486,10.2486,10.2486,10.2486,10.2486,10.2096,0.0,0.0,0.0,0.0,0.0,0.0,7.3967,7.4839,7.5664,8.0771,8.3177,8.4923,8.6718,8.8085,8.8914,8.8833,8.9651,9.0767,9.2194,9.1844,9.1485,9.1485,9.0917,9.0498,9.0498,9.0417,9.0388,9.0388,9.0388,9.0388,9.0388,8.9801,8.9482,8.9482,8.8833,8.8175,8.7496,8.7556,8.7257,8.6589,8.6648,8.6708,8.6708,8.6708,8.6708,8.6708,8.6708,8.6708,8.6708,8.6708,8.7157,8.7885,8.8474,8.9163,8.9851,9.0408,9.0597,9.0597,9.0597,9.0597,9.0597,9.0597,9.0597,9.0597,9.0597,9.0597,9.0659,9.0877,9.368,9.7047,9.9007,10.0785,10.2209,10.2404,10.2486,10.2486,10.2486,10.2486,10.2486,10.2486,10.2486,10.2486,10.2486,10.2486,10.2486,10.2486,10.2486,10.2486,10.2486,10.2486,10.2486,10.2486,10.2486,10.2486,10.2486,10.2486,10.2486,10.2486,10.2486,10.2486,10.2486,10.2486,10.2486,10.2486,10.2486,10.2486,10.2486,10.2486,10.2502,10.2401,10.2502,10.2096,0.0,0.0,0.0,0.0,0.0,0.0,6.7582,6.8778,7.1188,7.4886,7.5933,7.7562,8.2129,8.3596,8.3974,8.3416,8.612,8.8882,9.0737,9.0887,9.0806,9.0806,9.0249,8.9881,8.9881,8.9382,8.9052,8.9052,8.9052,8.9052,8.9052,8.8454,8.8095,8.8095,8.7457,8.6768,8.609,8.6648,8.6559,8.5881,8.6439,8.6708,8.6708,8.6708,8.6708,8.6708,8.6708,8.6708,8.6708,8.6708,8.7427,8.8534,8.8654,8.9412,9.0438,9.0567,9.0597,9.0597,9.0597,9.0597,9.0597,9.0597,9.0597,9.0597,9.0597,9.0597,9.0939,9.2544,9.476,9.7047,9.9007,9.9785,10.0499,10.2094,10.2486,10.2486,10.2486,10.2486,10.2486,10.2486,10.2486,10.2486,10.2486,10.2486,10.2486,10.2486,10.2486,10.2486,10.2486,10.2486,10.2486,10.2486,10.2486,10.2486,10.2486,10.2486,10.2486,10.2486,10.2486,10.2486,10.2486,10.2486,10.2486,10.2486,10.2486,10.2486,10.2486,10.2486,10.2198,10.1589,10.2198,10.2096,0.0,0.0,0.0,6.6086,0.0,0.0,0.0,6.7253,6.8734,7.3013,7.3373,7.421,7.8519,7.9567,8.0016,8.0704,8.3307,8.5701,8.6978,8.8882,9.016,9.016,8.9612,8.9193,8.9193,8.8893,8.8714,8.8714,8.8714,8.8714,8.8714,8.8065,8.7706,8.7706,8.6718,8.62,8.62,8.62,8.62,8.62,8.6529,8.6708,8.6708,8.6708,8.6708,8.6708,8.6708,8.6708,8.6708,8.6708,8.7307,8.8215,8.8574,8.9292,9.019,9.0498,9.0597,9.0597,9.0597,9.0597,9.0597,9.0597,9.0597,9.0597,9.0597,9.0597,9.0795,9.1831,9.3532,9.5564,9.7537,9.8764,9.9991,10.2012,10.2486,10.2486,10.2486,10.2486,10.2486,10.2486,10.2486,10.2486,10.2486,10.2486,10.2486,10.2486,10.2486,10.2486,10.2486,10.2486,10.2486,10.2486,10.2486,10.2486,10.2486,10.2486,10.2486,10.2486,10.2486,10.2486,10.2486,10.2486,10.2486,10.2486,10.2486,10.2486,10.2486,10.2486,10.2299,10.2011,10.2283,10.2096,0.0,0.0,0.0,0.0,0.0,6.64,0.0,0.0,0.0,7.1368,7.1427,7.1637,7.4552,7.5211,7.5779,7.7275,7.9836,8.174,8.1972,8.5462,0.0,8.8504,8.8175,8.7935,8.7935,8.7726,8.7726,8.8085,8.7885,8.7915,8.8295,8.7796,8.7496,8.7496,8.6329,8.594,8.6499,8.597,8.597,8.6499,8.6648,8.6708,8.6708,8.6708,8.6708,8.6708,8.6708,8.6708,8.6708,8.6708,8.7187,8.7945,8.8504,8.9103,8.9761,9.0378,9.0597,9.0597,9.0597,9.0597,9.0597,9.0597,9.0597,9.0597,9.0597,9.0597,9.0597,9.0597,9.177,9.3571,9.5976,9.7754,9.9544,10.1897,10.2486,10.2486,10.2486,10.2486,10.2486,10.2486,10.2486,10.2486,10.2486,10.2486,10.2486,10.2486,10.2486,10.2486,10.2486,10.2486,10.2486,10.2486,10.2486,10.2486,10.2486,10.2486,10.2486,10.2486,10.2486,10.2486,10.2486,10.2486,10.2486,10.2486,10.2486,10.2486,10.2486,10.2486,10.2486,10.2486,10.2486,10.2198,0.0,0.0,0.0,0.0,7.0785,0.0,0.0,0.0,6.7433,6.6265,0.0,0.0,0.0,0.0,0.0,0.0,0.0,0.0,7.6053,7.9316,8.2439,8.4186,8.4844,8.5143,8.5143,8.4134,8.4164,8.591,8.4933,8.5053,8.6828,8.6858,8.6798,8.6798,8.609,8.5731,8.5791,8.5731,8.5731,8.5821,8.6409,8.6708,8.6708,8.6708,8.6708,8.6708,8.6708,8.6708,8.6708,8.6708,8.7457,8.8574,8.8684,8.9103,8.9761,9.0378,9.0597,9.0597,9.0597,9.0597,9.0597,9.0597,9.0597,9.0597,9.0597,9.0597,9.0597,9.0597,9.0753,9.181,9.5602,9.6754,9.7876,10.1618,10.2486,10.2486,10.2486,10.2486,10.2486,10.2486,10.2486,10.2486,10.2486,10.2486,10.2486,10.2486,10.2486,10.2486,10.2486,10.2486,10.2486,10.2486,10.2486,10.2486,10.2486,10.2486,10.2486,10.2486,10.2486,10.2486,10.2486,10.2486,10.2486,10.2486,10.2486,10.2486,10.2486,10.2486,10.2486,10.2486,10.2486,10.2502,0.0,0.0,0.0,0.0,0.0,0.0,0.0,0.0,6.5248,0.0,0.0,0.0,0.0,0.0,0.0,0.0,7.0486,0.0,0.0,7.4779,7.825,8.214,0.0,0.0,8.238,8.2309,8.2548,8.3386,8.3296,8.3696,8.4893,8.5701,8.6289,8.6678,8.605,8.59,8.6289,8.5881,8.5881,8.6289,8.6559,8.6708,8.6708,8.6708,8.6708,8.6708,8.6708,8.6918,8.7257,8.7257,8.7826,8.8744,8.9133,8.9671,9.0229,9.0528,9.0597,9.0597,9.0597,9.0597,9.0597,9.0597,9.0597,9.0597,9.0597,9.0597,9.0597,9.0597,9.0597,9.1279,9.4136,9.5714,9.7284,10.0092,10.1701,10.2486,10.2486,10.2486,10.2486,10.2486,10.2486,10.2486,10.2486,10.2486,10.2486,10.2486,10.2486,10.2486,10.2486,10.2486,10.2486,10.2486,10.2486,10.2486,10.2486,10.2486,10.2486,10.2486,10.2486,10.2486,10.2486,10.2486,10.2486,10.2486,10.2486,10.2486,10.2486,10.2486,10.2486,10.2486,10.2486,10.2486,7.2445,0.0,0.0,0.0,0.0,0.0,0.0,0.0,0.0,0.0,0.0,0.0,0.0,0.0,0.0,0.0,0.0,6.9588,0.0,7.0965,0.0,0.0,0.0,0.0,0.0,8.0255,8.0644,8.1212,8.1351,8.2039,8.3378,8.4384,8.5302,8.614,8.5671,8.5671,8.617,8.5851,8.594,8.6439,8.6619,8.6708,8.6708,8.6888,8.6978,8.6978,8.7157,8.7516,8.7975,8.7975,8.8364,8.9013,8.9492,9.007,9.0597,9.0597,9.0597,9.0597,9.0597,9.0597,9.0597,9.0597,9.0597,9.0597,9.0597,9.0597,9.0597,9.0597,9.0597,9.1054,9.307,9.4683,9.6404,9.8904,10.06,10.1799,10.2389,10.2486,10.2486,10.2486,10.2486,10.2486,10.2486,10.2486,10.2486,10.2486,10.2486,10.2486,10.2486,10.2486,10.2486,10.2486,10.2486,10.2486,10.2486,10.2486,10.2486,10.2486,10.2486,10.2486,10.2486,10.2486,10.2486,10.2486,10.2486,10.2384,10.2198,10.2384,10.2401,10.2198,10.2384,10.2486,0.0,0.0,0.0,7.0649,0.0,0.0,0.0,0.0,6.7493,0.0,0.0,0.0,0.0,0.0,0.0,0.0,0.0,0.0,0.0,0.0,0.0,0.0,0.0,0.0,0.0,7.7335,7.7783,7.9728,7.8681,7.9387,8.2657,8.2866,8.3476,8.4724,8.4724,8.4724,8.4754,8.5402,8.5701,8.5731,8.6379,8.6708,8.6708,8.7377,8.7676,8.7706,8.8334,8.8654,8.8684,8.8684,8.9073,8.9671,8.9692,9.007,9.0597,9.0597,9.0597,9.0597,9.0597,9.0597,9.0597,9.0597,9.0597,9.0597,9.0597,9.0597,9.0597,9.0597,9.0597,9.1054,9.307,9.3649,9.4671,9.8587,9.9528,10.0093,10.2095,10.2486,10.2486,10.2486,10.2486,10.2486,10.2486,10.2486,10.2486,10.2486,10.2486,10.2486,10.2486,10.2486,10.2486,10.2486,10.2486,10.2486,10.2486,10.2486,10.2486,10.2486,10.2486,10.2486,10.2486,10.2486,10.2486,10.2486,10.2486,10.2114,10.1402,10.2214,10.208,10.1485,10.2198,10.2486,0.0,0.0,7.9525,7.4227,0.0,0.0,0.0,0.0,0.0,0.0,0.0,0.0,0.0,0.0,0.0,0.0,0.0,0.0,0.0,0.0,0.0,0.0,0.0,0.0,0.0,7.5138,7.5826,7.6532,7.6544,7.7412,7.9387,8.1171,8.2548,8.3416,8.4265,8.4694,8.4694,8.4904,8.5252,8.5701,8.593,8.6479,8.7377,8.7616,8.7945,8.8364,8.8594,8.8953,8.9342,8.9342,8.9731,9.0289,9.0289,9.0408,9.0597,9.0597,9.0597,9.0597,9.0597,9.0597,9.0597,9.0597,9.0597,9.0597,9.0597,9.0597,9.0597,9.0597,9.0597,9.0783,9.1433,9.2584,9.393,9.5281,9.761,9.9699,10.0381,10.1585,10.2486,10.2486,10.2486,10.2486,10.2486,10.2486,10.2486,10.2486,10.2486,10.2486,10.2486,10.2486,10.2486,10.2486,10.2486,10.2486,10.2486,10.2486,10.2486,10.2486,10.2486,10.2486,10.2486,10.2486,10.2486,10.2486,10.2486,10.2401,10.2096,10.2401,10.2401,10.208,10.2401,10.2486,7.9357,8.0614,0.0,7.6981,7.5617,0.0,6.9183,0.0,0.0,0.0,0.0,0.0,0.0,0.0,0.0,0.0,0.0,0.0,0.0,6.4919,0.0,0.0,0.0,0.0,0.0,7.3253,7.3479,7.3479,7.3881,7.4809,7.6335,7.8699,8.0662,8.2039,8.3356,8.4025,8.4025,8.4455,8.4923,8.5342,8.5581,8.627,8.7347,8.7586,8.8065,8.8714,8.8953,8.9432,9.001,9.001,9.0229,9.0597,9.0597,9.0597,9.0597,9.0597,9.0597,9.0597,9.0597,9.0597,9.0597,9.0597,9.0597,9.0597,9.0597,9.0597,9.0657,9.0866,9.0776,9.0657,9.0866,9.1728,9.2704,9.3414,9.5564,9.7789,9.9199,10.0516,10.1601,10.2389,10.2486,10.2486,10.2486,10.2486,10.2486,10.2486,10.2486,10.2486,10.2486,10.2486,10.2486,10.2486,10.2486,10.2486,10.2486,10.2486,10.2486,10.2486,10.2486,10.2486,10.2486,10.2486,10.2689,10.3296,10.2806,10.2587,10.2908,10.2587,10.2401,10.2096,10.2096,10.2215]},{"header":{"parameterUnit":"m.s-1","parameterCategory":1,"la1":30.6,"la2":29.2853,"lo1":-89.7004,"lo2":-87.6739,"dy":0.0162,"dx":0.0183,"nx":112,"ny":82,"refTime":"2023-03-11T06:00:00:Z","depth":0,"parameterNumber":3,"parameterNumberName":"V-component_of_WINDS"},"data":[0.0,0.0,0.0,0.0,0.0,0.0,0.0,0.0,0.0,0.0,0.0,0.0,0.0,0.0,0.0,0.0,0.0,0.0,0.0,0.0,0.0,0.0,0.0,0.0,0.0,0.0,0.0,0.0,0.0,0.0,0.0,0.0,0.0,0.0,0.0,0.0,0.0,0.0,0.0,0.0,0.0,0.0,0.0,0.0,0.0,0.0,0.0,0.0,0.0,0.0,0.0,0.0,0.0,0.0,0.0,0.0,0.0,0.0,0.0,0.0,0.0,0.0,0.0,0.0,0.0,0.0,0.0,0.0,0.0,0.0,0.0,0.0,0.0,0.0,0.0,0.0,0.0,0.0,0.0,0.0,0.0,0.0,0.0,0.0,0.0,0.0,0.0,0.0,0.0,0.0,0.0,2.5752,2.8679,3.011,2.9202,2.8756,2.7335,2.4516,0.0,0.0,0.0,0.0,0.0,0.0,0.0,0.0,0.0,0.0,0.0,0.0,0.0,0.0,0.0,0.0,0.0,0.0,0.0,0.0,0.0,0.0,0.0,0.0,0.0,0.0,0.0,0.0,0.0,0.0,0.0,0.0,0.0,0.0,0.0,0.0,0.0,0.0,0.0,0.0,0.0,0.0,0.0,0.0,0.0,0.0,0.0,0.0,0.0,0.0,0.0,0.0,0.0,0.0,0.0,0.0,0.0,0.0,0.0,0.0,0.0,0.0,0.0,0.0,0.0,0.0,0.0,0.0,0.0,0.0,0.0,0.0,0.0,0.0,0.0,0.0,0.0,0.0,0.0,0.0,0.0,0.0,0.0,0.0,0.0,0.0,0.0,0.0,0.0,0.0,0.0,0.0,0.0,0.0,0.0,0.0,0.0,0.0,0.0,0.0,0.0,0.0,0.0,0.0,2.4497,2.7789,2.9686,3.0474,2.9811,2.8839,2.7322,2.5109,0.0,0.0,0.0,0.0,0.0,0.0,0.0,0.0,0.0,0.0,0.0,0.0,0.0,0.0,0.0,0.0,0.0,0.0,0.0,0.0,0.0,0.0,0.0,0.0,0.0,0.0,0.0,0.0,0.0,0.0,0.0,0.0,0.0,0.0,0.0,0.0,0.0,0.0,0.0,0.0,0.0,0.0,0.0,0.0,0.0,0.0,0.0,0.0,0.0,0.0,0.0,0.0,0.0,0.0,0.0,0.0,0.0,0.0,0.0,0.0,0.0,0.0,0.0,0.0,0.0,0.0,0.0,0.0,0.0,0.0,0.0,0.0,0.0,0.0,0.0,0.0,0.0,0.0,0.0,0.0,0.0,0.0,0.0,0.0,0.0,0.0,0.0,0.0,0.0,0.0,0.0,0.0,0.0,0.0,0.0,0.0,0.0,0.0,0.0,0.0,0.0,0.0,0.0,2.4655,2.6507,2.9281,3.0728,3.1142,3.0257,2.9093,2.7462,2.5243,2.4102,0.0,0.0,0.0,0.0,0.0,0.0,0.0,0.0,0.0,0.0,0.0,0.0,0.0,0.0,0.0,0.0,0.0,0.0,0.0,0.0,0.0,0.0,0.0,0.0,0.0,0.0,0.0,0.0,0.0,0.0,0.0,0.0,0.0,0.0,0.0,0.0,0.0,0.0,0.0,0.0,0.0,0.0,0.0,0.0,0.0,0.0,0.0,0.0,0.0,0.0,0.0,0.0,0.0,0.0,0.0,0.0,0.0,0.0,0.0,0.0,0.0,0.0,0.0,0.0,0.0,0.0,0.0,0.0,0.0,0.0,0.0,0.0,0.0,0.0,0.0,0.0,0.0,0.0,0.0,0.0,0.0,0.0,0.0,0.0,0.0,0.0,0.0,0.0,0.0,0.0,0.0,0.0,0.0,0.0,0.0,0.0,0.0,0.0,0.0,0.0,0.0,0.0,2.654,2.8286,3.027,3.1406,3.1554,3.0377,2.9245,2.7629,2.535,2.399,0.0,0.0,0.0,0.0,0.0,0.0,0.0,0.0,0.0,0.0,0.0,0.0,0.0,0.0,0.0,0.0,0.0,0.0,0.0,0.0,0.0,0.0,0.0,0.0,0.0,0.0,0.0,0.0,0.0,0.0,0.0,0.0,0.0,0.0,0.0,0.0,0.0,0.0,0.0,0.0,0.0,0.0,0.0,0.0,0.0,0.0,0.0,0.0,0.0,0.0,0.0,0.0,0.0,0.0,0.0,0.0,0.0,0.0,0.0,0.0,0.0,0.0,0.0,0.0,0.0,0.0,0.0,0.0,0.0,0.0,0.0,0.0,0.0,0.0,0.0,0.0,0.0,0.0,0.0,0.0,0.0,0.0,0.0,0.0,0.0,0.0,0.0,0.0,0.0,0.0,0.0,0.0,0.0,0.0,0.0,0.0,0.0,0.0,0.0,0.0,0.0,0.0,2.7021,2.8807,3.0568,3.1353,3.1246,3.0047,2.9103,2.7709,2.5592,2.411,0.0,0.0,0.0,0.0,0.0,0.0,0.0,0.0,0.0,0.0,0.0,0.0,0.0,0.0,0.0,0.0,0.0,0.0,0.0,0.0,0.0,0.0,0.0,0.0,0.0,0.0,0.0,0.0,0.0,0.0,0.0,0.0,0.0,0.0,0.0,0.0,0.0,0.0,0.0,0.0,0.0,0.0,0.0,0.0,0.0,0.0,0.0,0.0,0.0,0.0,0.0,0.0,0.0,0.0,0.0,0.0,0.0,0.0,0.0,0.0,0.0,0.0,0.0,0.0,0.0,0.0,0.0,0.0,0.0,0.0,0.0,0.0,0.0,0.0,0.0,0.0,0.0,0.0,0.0,0.0,0.0,0.0,0.0,0.0,0.0,0.0,0.0,0.0,0.0,0.0,0.0,0.0,0.0,0.0,0.0,0.0,0.0,0.0,0.0,0.0,0.0,0.0,2.7375,2.9312,0.0,3.1583,3.1487,3.031,2.9219,2.7701,2.5619,0.0,0.0,0.0,0.0,0.0,0.0,0.0,0.0,0.0,0.0,0.0,0.0,0.0,0.0,0.0,0.0,0.0,0.0,0.0,0.0,0.0,0.0,0.0,0.0,0.0,0.0,0.0,0.0,0.0,0.0,0.0,0.0,0.0,0.0,0.0,0.0,0.0,0.0,0.0,0.0,0.0,0.0,0.0,0.0,0.0,0.0,0.0,0.0,0.0,0.0,0.0,0.0,0.0,0.0,0.0,0.0,0.0,0.0,0.0,0.0,0.0,0.0,0.0,0.0,0.0,0.0,0.0,0.0,0.0,0.0,0.0,0.0,0.0,0.0,0.0,0.0,0.0,0.0,0.0,0.0,0.0,0.0,0.0,0.0,0.0,0.0,0.0,0.0,0.0,0.0,0.0,0.0,0.0,0.0,0.0,0.0,0.0,0.0,0.0,0.0,0.0,0.0,2.5712,2.7808,2.9717,0.0,3.1613,3.1383,3.0337,2.9058,2.7562,2.5772,0.0,0.0,0.0,0.0,0.0,0.0,0.0,0.0,0.0,0.0,0.0,0.0,0.0,0.0,0.0,0.0,0.0,0.0,0.0,0.0,0.0,0.0,0.0,0.0,0.0,0.0,0.0,0.0,0.0,0.0,0.0,0.0,0.0,0.0,0.0,0.0,0.0,0.0,0.0,0.0,0.0,0.0,0.0,0.0,0.0,0.0,0.0,0.0,0.0,0.0,0.0,0.0,0.0,0.0,0.0,0.0,0.0,0.0,0.0,0.0,0.0,0.0,0.0,0.0,0.0,0.0,0.0,0.0,0.0,0.0,0.0,0.0,0.0,0.0,0.0,0.0,0.0,0.0,0.0,0.0,0.0,0.0,0.0,0.0,0.0,0.0,0.0,0.0,0.0,0.0,0.0,0.0,0.0,0.0,0.0,0.0,0.0,0.0,0.0,0.0,0.0,0.0,2.6567,2.8377,3.0069,3.1527,3.1396,3.0852,2.9971,2.8551,2.7222,0.0,0.0,0.0,0.0,0.0,0.0,0.0,0.0,0.0,0.0,0.0,0.0,0.0,0.0,0.0,0.0,0.0,0.0,0.0,0.0,0.0,0.0,0.0,0.0,0.0,0.0,0.0,0.0,0.0,0.0,0.0,0.0,0.0,0.0,0.0,0.0,0.0,0.0,0.0,0.0,0.0,0.0,0.0,0.0,0.0,0.0,0.0,0.0,0.0,0.0,0.0,0.0,0.0,0.0,0.0,0.0,0.0,0.0,0.0,0.0,0.0,0.0,0.0,0.0,0.0,0.0,0.0,0.0,0.0,0.0,0.0,0.0,0.0,0.0,0.0,0.0,0.0,0.0,0.0,0.0,0.0,0.0,0.0,0.0,0.0,0.0,0.0,0.0,0.0,0.0,0.0,0.0,0.0,0.0,0.0,0.0,0.0,0.0,0.0,0.0,0.0,0.0,0.0,2.6373,2.843,3.0194,3.1249,3.1253,3.0852,2.9971,2.8773,2.7469,2.6078,0.0,0.0,0.0,0.0,0.0,0.0,0.0,0.0,0.0,0.0,0.0,0.0,0.0,0.0,0.0,0.0,0.0,0.0,0.0,0.0,0.0,0.0,0.0,0.0,0.0,0.0,0.0,0.0,0.0,0.0,0.0,0.0,0.0,0.0,0.0,0.0,0.0,0.0,0.0,0.0,0.0,0.0,0.0,0.0,0.0,0.0,0.0,0.0,0.0,0.0,0.0,0.0,0.0,0.0,0.0,0.0,0.0,0.0,0.0,0.0,0.0,0.0,0.0,0.0,0.0,0.0,0.0,0.0,0.0,0.0,0.0,0.0,0.0,0.0,0.0,0.0,0.0,0.0,0.0,0.0,0.0,0.0,0.0,0.0,0.0,0.0,0.0,0.0,0.0,0.0,0.0,0.0,0.0,0.0,0.0,0.0,0.0,0.0,0.0,0.0,0.0,0.0,2.662,2.8604,3.0301,3.1303,3.1196,3.0795,3.0154,2.8941,2.7731,2.6586,0.0,0.0,0.0,0.0,0.0,0.0,0.0,0.0,0.0,0.0,0.0,0.0,0.0,0.0,0.0,0.0,0.0,0.0,0.0,0.0,0.0,0.0,0.0,0.0,0.0,0.0,0.0,0.0,0.0,0.0,0.0,0.0,0.0,0.0,0.0,0.0,0.0,0.0,0.0,0.0,0.0,0.0,0.0,0.0,0.0,0.0,0.0,0.0,0.0,0.0,0.0,0.0,0.0,0.0,0.0,0.0,0.0,0.0,0.0,0.0,0.0,0.0,0.0,0.0,0.0,0.0,0.0,0.0,0.0,0.0,0.0,0.0,0.0,0.0,0.0,0.0,0.0,0.0,0.0,0.0,0.0,0.0,0.0,0.0,0.0,0.0,0.0,0.0,0.0,0.0,0.0,0.0,0.0,0.0,0.0,0.0,0.0,0.0,0.0,0.0,0.0,0.0,2.7141,2.8831,3.0368,3.1567,3.1352,3.0928,3.0426,2.9257,2.8265,2.7622,0.0,0.0,0.0,0.0,0.0,0.0,0.0,0.0,0.0,0.0,0.0,0.0,0.0,0.0,0.0,0.0,0.0,0.0,0.0,0.0,0.0,0.0,0.0,0.0,0.0,0.0,0.0,0.0,0.0,0.0,0.0,0.0,0.0,0.0,0.0,0.0,0.0,0.0,0.0,0.0,0.0,0.0,0.0,0.0,0.0,0.0,0.0,0.0,0.0,0.0,0.0,0.0,0.0,0.0,0.0,0.0,0.0,0.0,0.0,0.0,2.7033,0.0,0.0,0.0,0.0,0.0,0.0,0.0,0.0,0.0,0.0,0.0,0.0,0.0,0.0,0.0,0.0,0.0,0.0,0.0,0.0,0.0,0.0,0.0,0.0,0.0,0.0,0.0,0.0,0.0,0.0,0.0,0.0,0.0,0.0,0.0,0.0,0.0,0.0,0.0,0.0,0.0,2.7476,2.8951,3.0368,3.1567,3.276,3.2654,3.0586,3.0892,3.075,2.973,0.0,0.0,0.0,0.0,0.0,0.0,0.0,0.0,0.0,0.0,0.0,0.0,0.0,0.0,0.0,0.0,0.0,0.0,0.0,0.0,0.0,0.0,0.0,0.0,0.0,0.0,0.0,0.0,0.0,0.0,0.0,0.0,0.0,0.0,0.0,0.0,0.0,0.0,0.0,0.0,0.0,0.0,0.0,0.0,0.0,0.0,0.0,0.0,0.0,0.0,0.0,0.0,0.0,0.0,0.0,0.0,0.0,0.0,0.0,0.0,0.0,2.8347,0.0,0.0,0.0,0.0,0.0,0.0,0.0,0.0,0.0,0.0,0.0,0.0,0.0,0.0,0.0,0.0,0.0,0.0,0.0,0.0,0.0,0.0,0.0,0.0,0.0,0.0,0.0,0.0,0.0,0.0,0.0,0.0,0.0,0.0,0.0,0.0,0.0,0.0,0.0,0.0,2.9349,3.0851,3.2596,3.4949,3.5837,3.5662,3.4128,3.4062,3.3709,3.2745,3.1606,0.0,0.0,0.0,0.0,0.0,0.0,0.0,0.0,0.0,0.0,0.0,0.0,0.0,0.0,0.0,0.0,0.0,0.0,0.0,0.0,0.0,0.0,0.0,0.0,0.0,0.0,0.0,0.0,0.0,0.0,0.0,0.0,0.0,0.0,0.0,0.0,0.0,0.0,0.0,0.0,0.0,0.0,0.0,0.0,0.0,0.0,0.0,0.0,0.0,0.0,0.0,0.0,0.0,3.4233,3.4758,3.3803,3.3803,3.5262,3.7568,3.4346,3.3108,3.3223,0.0,0.0,0.0,0.0,0.0,0.0,0.0,0.0,0.0,0.0,0.0,0.0,0.0,0.0,0.0,0.0,0.0,0.0,0.0,0.0,0.0,0.0,0.0,0.0,0.0,2.7422,2.6068,0.0,0.0,0.0,0.0,0.0,0.0,0.0,0.0,0.0,0.0,0.0,0.0,3.193,3.3511,3.5529,3.8768,3.9103,3.8842,3.8185,3.7499,3.6766,3.5988,3.4676,3.3723,0.0,0.0,0.0,0.0,0.0,0.0,0.0,0.0,0.0,0.0,0.0,0.0,0.0,0.0,0.0,0.0,0.0,0.0,0.0,0.0,0.0,0.0,0.0,0.0,0.0,0.0,0.0,0.0,0.0,0.0,0.0,0.0,3.1504,3.1983,0.0,0.0,0.0,0.0,0.0,0.0,0.0,0.0,0.0,0.0,0.0,0.0,0.0,3.66,3.7066,3.7878,3.8579,3.9164,3.9893,4.0511,4.1027,4.1027,4.1474,4.2236,4.2052,0.0,3.5865,3.5354,0.0,0.0,0.0,0.0,0.0,0.0,0.0,0.0,0.0,0.0,0.0,0.0,0.0,0.0,0.0,0.0,0.0,0.0,0.0,0.0,0.0,0.0,2.8119,3.1174,3.0438,2.9539,0.0,2.8151,2.5421,2.6903,2.6893,0.0,0.0,0.0,0.0,0.0,0.0,0.0,3.4432,3.6103,3.7632,3.9336,4.0737,4.0849,3.9174,3.9583,3.9548,3.8561,3.7728,3.6682,3.5344,3.489,0.0,0.0,0.0,0.0,0.0,0.0,0.0,0.0,0.0,0.0,0.0,0.0,0.0,0.0,0.0,0.0,0.0,0.0,0.0,0.0,0.0,0.0,0.0,0.0,0.0,0.0,0.0,0.0,0.0,3.2016,3.2563,3.2535,3.298,3.3078,0.0,0.0,0.0,0.0,0.0,0.0,0.0,0.0,0.0,3.8242,3.9062,3.9785,4.043,4.1074,4.1699,4.2304,4.2773,4.3437,4.4238,4.3983,4.4354,4.5234,4.5195,4.3818,4.1482,3.9659,3.6774,3.3456,0.0,0.0,0.0,0.0,3.0912,3.1343,3.2762,3.3421,0.0,3.3336,0.0,0.0,0.0,0.0,0.0,0.0,0.0,0.0,0.0,0.0,0.0,3.5057,3.4614,3.4456,3.7899,3.4975,3.1474,0.0,2.9381,2.8159,2.7519,0.0,0.0,0.0,0.0,0.0,3.7861,3.9458,4.1249,4.3824,4.4734,4.4617,4.33,4.3102,4.2623,4.171,4.0445,3.9445,3.8823,3.681,3.3975,0.0,0.0,0.0,0.0,0.0,0.0,0.0,0.0,0.0,0.0,0.0,0.0,0.0,0.0,0.0,0.0,0.0,0.0,0.0,0.0,0.0,0.0,0.0,0.0,0.0,0.0,0.0,0.0,3.2855,3.3578,3.318,3.4,3.4254,0.0,0.0,0.0,0.0,0.0,0.0,3.7948,3.9218,4.0391,4.1465,4.2148,4.2832,4.3554,4.4121,4.4668,4.5195,4.5664,4.6291,4.6995,4.6736,4.7048,4.7731,4.7539,4.709,4.6311,4.3497,4.0469,3.7463,3.6515,3.523,3.3932,3.412,3.4489,3.512,3.6711,3.7553,3.7814,3.6961,0.0,3.4523,3.2223,0.0,0.0,0.0,0.0,3.2577,3.4395,3.5009,3.5954,3.912,3.8781,3.8828,4.2732,4.0696,3.7364,0.0,3.2886,3.1386,3.0655,0.0,0.0,0.0,0.0,3.7413,4.131,4.2821,4.4648,4.746,4.7659,4.7386,4.6836,4.5877,4.4998,4.4258,4.2735,4.1699,4.1367,3.8613,3.5878,3.323,0.0,0.0,0.0,0.0,0.0,0.0,0.0,0.0,0.0,0.0,0.0,0.0,0.0,0.0,0.0,0.0,0.0,0.0,0.0,0.0,0.0,0.0,0.0,0.0,0.0,0.0,0.0,0.0,0.0,3.4079,3.5137,0.0,0.0,0.0,0.0,3.758,3.8926,4.0215,4.1484,4.2754,4.3691,4.4199,4.541,4.625,4.6677,4.7539,4.8356,4.9215,4.9668,5.0141,5.0566,5.0913,5.0703,5.0063,5.041,4.9883,4.8574,4.6389,4.4138,4.2067,4.1989,4.1463,4.0705,4.0725,4.0977,4.1346,4.1464,4.1775,4.2086,4.2028,3.9957,3.725,3.5843,3.4162,0.0,0.0,3.6097,3.6914,4.0412,3.9803,3.9264,4.3167,4.2434,4.161,4.4336,4.3136,4.0953,0.0,3.806,3.6912,3.4554,0.0,3.7301,3.7636,3.9225,4.1447,4.44,4.59,4.7054,4.8063,4.7812,4.7737,4.8086,4.6953,4.6055,4.5627,4.4316,4.3027,4.1816,4.1211,3.9223,3.5607,3.3252,0.0,0.0,0.0,0.0,0.0,0.0,0.0,0.0,0.0,0.0,0.0,0.0,0.0,0.0,0.0,0.0,0.0,0.0,0.0,0.0,0.0,0.0,0.0,0.0,0.0,0.0,0.0,0.0,3.7381,3.9258,0.0,3.9355,3.9551,4.002,4.0742,4.2051,4.3359,4.4629,4.5898,4.7187,4.8476,4.9195,4.9918,5.0644,5.0933,5.1245,5.1558,5.1738,5.2031,5.2466,5.2031,5.1836,5.1777,5.1362,5.0777,5.0058,4.9297,4.7383,4.4844,4.4023,4.3516,4.3263,4.3263,4.3516,4.3846,4.3846,4.416,4.4336,4.3203,4.171,4.0196,3.9452,3.8782,3.8509,3.9867,4.0482,4.1138,4.3001,4.3287,4.3545,4.5238,4.5215,4.5176,4.6408,4.6067,4.5233,4.4202,4.1663,3.9465,3.8932,4.0095,4.0896,4.0257,4.2312,4.4482,4.6024,4.7107,4.7969,4.8578,4.8519,4.8363,4.8223,4.7263,4.6406,4.5744,4.42,4.2969,4.2207,4.125,3.93,3.6211,3.5067,3.2255,0.0,0.0,0.0,0.0,0.0,0.0,0.0,0.0,0.0,0.0,0.0,0.0,0.0,0.0,0.0,0.0,0.0,0.0,0.0,0.0,0.0,0.0,0.0,0.0,0.0,0.0,3.9687,4.0215,4.2461,4.3634,4.2754,4.3066,4.3555,4.41,4.5527,4.6836,4.7946,4.9258,5.0469,5.1621,5.2065,5.2631,5.3379,5.3379,5.3516,5.3764,5.3764,5.3945,5.4219,5.3652,5.3379,5.334,5.2592,5.2046,5.1641,5.1348,4.9961,4.7868,4.6465,4.582,4.5664,4.5527,4.5742,4.6072,4.6072,4.6094,4.5879,4.4611,4.3594,4.2832,4.2558,4.2403,4.2461,4.3281,4.373,4.4181,4.5019,4.5664,4.6291,4.7014,4.7383,4.7695,4.8144,4.8242,4.8105,4.7656,4.49,4.2683,4.2769,4.3572,4.3895,4.3114,4.4899,4.6562,4.7243,4.7988,4.8558,4.8874,4.8913,4.8695,4.8242,4.7558,4.6738,4.5764,4.42,4.2969,4.2226,4.1269,3.974,3.7632,3.6327,3.3438,2.8872,0.0,0.0,0.0,0.0,0.0,0.0,0.0,0.0,0.0,0.0,0.0,0.0,0.0,0.0,0.0,0.0,0.0,0.0,0.0,0.0,0.0,0.0,0.0,3.748,3.9706,4.168,4.2499,4.4551,4.5568,4.4746,4.5781,4.6855,4.7718,4.9379,5.0683,5.1479,5.2779,5.3482,5.3527,5.3906,5.4336,5.4811,5.4811,5.5195,5.597,5.597,5.597,5.597,5.595,5.5527,5.4746,5.4271,5.3848,5.3384,5.2544,5.1914,5.1304,4.9613,4.8675,4.8223,4.7835,4.791,4.8242,4.8242,4.7653,4.6872,4.6504,4.5779,4.5076,4.5076,4.4803,4.4668,4.5529,4.5764,4.5959,4.6736,4.697,4.7302,4.8597,4.8933,4.9046,4.943,4.9527,4.9414,4.9031,4.7891,4.6736,4.594,4.6113,4.6367,4.6387,4.7112,0.0,4.8164,4.8617,4.8913,4.8913,4.8913,4.8714,4.8262,4.7812,4.7034,4.5764,4.4394,4.3105,4.1836,4.1406,4.08,3.9941,3.7129,3.424,3.1337,0.0,0.0,0.0,0.0,0.0,0.0,0.0,0.0,0.0,0.0,0.0,0.0,0.0,0.0,0.0,0.0,0.0,0.0,0.0,0.0,0.0,0.0,4.0253,4.0136,4.2871,4.5449,4.6936,4.9027,5.0351,5.041,5.104,5.1548,5.1782,5.2837,5.3672,5.4193,5.4837,5.5508,5.6133,5.6269,5.6543,5.7019,5.7019,5.7136,5.7351,5.7351,5.7351,5.7351,5.7012,5.6738,5.6484,5.6074,5.5469,5.4746,5.4512,5.3789,5.2681,5.0961,5.0,4.9652,4.9535,4.9336,4.9137,4.9137,4.8571,4.7809,4.7715,4.7324,4.6897,4.6897,4.6819,4.678,4.7014,4.7307,4.7558,4.7793,4.8297,4.8883,4.9258,4.959,4.9867,4.998,5.0,4.9961,4.9867,4.9531,4.9004,4.817,4.7835,4.7793,4.8128,4.8382,0.0,4.8695,4.8835,4.8913,4.8913,4.8913,4.8855,4.8714,4.7464,4.623,4.5252,4.3651,4.2344,4.1406,4.125,4.0937,4.0352,3.7017,3.5008,0.0,0.0,0.0,0.0,0.0,0.0,0.0,0.0,0.0,0.0,0.0,0.0,0.0,0.0,0.0,0.0,0.0,0.0,0.0,0.0,0.0,0.0,4.2109,4.3906,4.4845,4.6504,4.8359,5.0278,5.2251,5.3535,5.3769,5.4381,5.4733,5.4733,5.5378,5.584,5.6094,5.6504,5.6973,5.7461,5.748,5.7695,5.8144,5.8144,5.8262,5.8437,5.8437,5.8437,5.8434,5.7969,5.7746,0.0,5.7109,5.6465,5.582,5.5618,5.4922,0.0,0.0,0.0,0.0,0.0,5.0176,4.9805,4.9805,4.9453,4.9004,4.8808,4.8476,4.8128,4.8128,4.8128,4.8167,4.834,4.8711,4.9023,4.9023,4.9414,4.9844,4.9996,5.0254,5.0449,5.0449,5.0449,5.0391,5.0238,5.0199,0.0,4.9515,4.9222,4.9121,4.9398,4.9437,4.9437,4.9437,4.9281,4.9164,4.9164,4.8988,4.8835,4.8617,4.7522,0.0,0.0,0.0,4.2168,4.0957,4.0898,0.0,0.0,0.0,3.739,3.7446,0.0,0.0,0.0,2.7067,2.517,0.0,0.0,0.0,0.0,0.0,0.0,0.0,0.0,0.0,0.0,0.0,0.0,0.0,0.0,0.0,0.0,4.5447,4.8122,5.0395,5.043,5.0933,5.2826,5.4473,5.5488,5.5586,5.6328,5.6777,5.6765,5.7168,5.7422,5.7363,0.0,0.0,0.0,0.0,5.8262,5.8566,5.8566,5.88,5.9207,5.9207,5.9207,5.918,5.8769,5.8566,5.8535,5.7766,5.7187,5.6777,5.636,5.5696,5.485,5.3418,5.2637,5.2232,5.1387,5.0801,5.0414,5.0356,0.0,0.0,4.9703,4.9336,4.905,4.905,4.905,4.9125,4.9527,4.9922,5.0219,5.0258,5.0278,5.0375,5.0723,5.084,5.0879,5.0879,5.0918,5.084,5.0492,5.0453,5.0492,5.0492,5.0336,5.0199,5.0199,5.0199,5.0199,5.0199,4.9844,4.9566,4.9566,0.0,0.0,4.8379,4.7832,4.6702,4.4726,4.3673,4.2422,4.086,4.0664,4.0606,4.0645,4.0508,4.0274,3.9961,3.7833,3.6818,3.6682,2.9748,2.6619,0.0,0.0,0.0,0.0,0.0,0.0,0.0,0.0,0.0,0.0,0.0,0.0,0.0,0.0,0.0,4.6135,4.8535,5.0937,5.3482,5.4316,5.4818,5.5228,5.5918,5.6601,5.7332,5.7851,5.8,5.7664,5.8379,5.8652,5.8273,5.9004,5.9297,5.8945,5.9266,5.9297,5.9062,5.9062,5.9121,5.9207,0.0,0.0,5.9207,5.9121,5.9062,5.9062,5.8887,5.8555,5.8144,5.8039,5.7492,5.6523,5.4525,5.3705,5.3568,5.3091,5.2407,5.1684,5.1308,5.0742,5.0199,5.0102,5.0023,4.9945,4.9945,4.9945,0.0,5.043,5.0371,5.0278,5.0586,5.0683,5.0703,5.0781,5.103,5.1284,5.1284,5.1582,5.1841,5.1763,5.1992,5.2226,5.2226,5.1094,5.0199,5.0199,5.0199,5.0199,5.0199,5.0121,5.0058,5.0058,4.9668,4.9332,4.9254,4.7887,4.6716,4.5976,4.4161,4.295,4.2618,4.1621,4.123,4.1543,4.0547,4.0156,4.0391,3.7963,3.6944,3.7095,3.2,2.9664,0.0,0.0,0.0,0.0,0.0,0.0,0.0,0.0,0.0,0.0,0.0,3.9727,0.0,0.0,4.6135,4.8519,5.1079,5.334,5.5058,5.6009,5.6555,5.6555,5.7121,5.7793,5.8493,5.8914,5.9152,5.9152,5.9542,5.9707,5.9455,5.9846,6.0011,5.9805,6.0011,6.0011,5.9805,5.9805,5.9805,5.9805,5.9805,5.9707,5.9483,5.9483,5.9383,5.9207,5.9207,5.8945,5.848,5.8273,5.7937,5.7402,5.6106,5.5208,5.4583,5.4205,5.3502,5.272,5.248,5.1973,5.1367,5.0937,5.0957,5.1079,5.0625,5.0801,5.1196,5.1387,5.1445,5.1504,5.1699,5.1601,5.1504,5.1699,5.1758,5.1816,5.2007,5.2246,5.2402,5.2402,5.2558,5.2715,5.2715,5.2012,5.1445,5.1445,5.1445,5.1367,5.1176,5.0937,5.0801,5.0801,5.0234,4.9941,5.0132,4.8379,4.6992,4.6348,4.4883,4.3965,4.3771,4.3145,4.2696,4.2461,4.1836,4.1484,4.1445,4.0004,3.9383,3.9472,3.5864,3.3026,0.0,0.0,0.0,0.0,0.0,0.0,0.0,0.0,3.8555,3.9922,4.0976,4.2246,4.4336,4.678,4.9066,5.0879,5.3443,5.5488,5.6399,5.7168,5.7656,5.7805,5.8301,5.8859,5.9383,5.9718,6.0069,6.0372,6.0401,6.0401,6.0401,6.0508,6.0508,6.0401,6.0508,6.0508,6.0401,6.0401,6.0401,6.0401,6.0401,6.0245,5.9922,5.9922,5.9746,5.9442,5.9355,5.9062,5.8625,5.8289,5.816,5.8113,5.7637,5.6777,5.5723,5.5137,5.444,5.3736,5.358,5.3228,5.2715,5.1909,5.1914,5.2095,5.1387,5.1719,5.2368,5.2441,5.2637,5.2851,5.2924,5.2656,5.2427,5.2637,5.2519,5.2427,5.2656,5.2773,5.2871,5.2949,5.2944,5.2988,5.3086,5.3027,5.291,5.2734,5.2715,5.2598,5.2246,5.1894,5.1655,5.1655,5.0918,5.0488,5.0664,4.9004,4.7637,4.6855,4.5996,4.5332,4.4902,4.4648,4.418,4.3497,4.3302,4.2988,4.2538,4.2207,4.2012,4.1855,3.933,3.6181,3.8315,3.6622,3.5625,3.6306,3.6795,3.7695,0.0,0.0,4.1777,4.3476,4.4805,4.6191,4.7991,5.0102,5.2266,5.4394,5.5957,5.7363,5.8652,5.8914,5.9238,5.9952,5.9483,5.9414,6.0186,6.0303,6.0342,6.0401,6.0401,6.0401,6.0401,6.0801,6.0811,6.0401,6.0801,6.0811,6.0401,6.0401,6.0401,6.0401,6.0401,6.0372,6.0314,6.0314,6.0303,6.0245,5.9893,5.9483,5.9121,5.9062,5.9051,5.9004,5.8535,5.8039,5.7468,5.6204,5.5462,5.498,5.4193,5.3652,5.3228,5.2715,5.2598,5.2617,5.2519,5.2857,5.3326,5.3711,5.3555,5.3404,5.3764,5.3555,5.315,5.2793,5.2969,5.315,5.2773,5.3033,5.3424,5.3783,5.3861,5.3978,5.4394,5.4141,5.3588,5.2832,5.2715,5.2695,5.2637,5.2598,5.2534,5.2534,5.1772,5.0991,5.0312,4.9668,4.9101,4.864,4.7796,4.7109,4.6638,4.5525,4.4881,4.4783,4.4043,4.3418,4.3028,4.2969,4.2734,4.2264,4.0095,3.8381,3.8791,3.7423,0.0,0.0,3.9257,4.0469,4.2578,4.3769,4.4902,4.6663,4.8223,4.9746,5.1235,5.3047,5.4785,0.0,5.7519,5.8625,5.9442,5.9559,5.9659,6.0011,5.9746,5.9883,6.0742,6.0801,6.0898,6.1133,6.1162,6.1279,6.1543,6.1748,6.1865,6.1904,6.208,6.2129,6.1904,6.1689,6.1543,6.1543,6.1279,6.1045,6.0801,6.0801,6.0518,6.0039,5.9863,5.957,5.9207,5.9207,5.9207,5.9149,5.8683,5.839,5.8097,5.7043,5.6223,5.5599,5.5228,5.4837,5.4414,5.4004,5.4023,5.418,5.3926,5.416,5.4531,5.4726,5.4648,5.4531,5.4726,5.4258,5.3828,5.4141,5.3984,5.3769,5.3848,5.4029,5.4127,5.4017,5.3998,5.4056,5.4277,5.4115,5.3959,5.3867,5.3633,5.3354,5.315,5.3111,5.2988,5.2734,5.2617,5.2109,5.0996,5.0484,4.998,4.9297,4.8695,4.8148,4.7695,4.7168,4.6618,4.613,4.5506,4.5019,4.4611,4.4082,4.375,4.3554,4.2359,4.1625,3.9169,0.0,0.0,4.0723,4.2012,4.3418,4.5508,4.6894,4.8203,4.9945,5.1562,5.2963,5.4088,5.5566,5.6868,5.7637,5.8742,5.9687,6.0098,5.9952,5.9765,5.9648,5.9414,5.9618,6.0478,6.0888,6.1308,6.1836,6.1894,6.2099,6.2539,6.2568,6.2695,6.2997,6.2997,6.2997,6.2997,6.2695,6.2568,6.2568,6.2129,6.1748,6.1455,6.1308,6.0859,6.0156,6.0011,5.9746,5.9355,5.9238,5.9207,5.9168,5.8828,5.8625,5.8421,5.7793,5.7082,5.6426,5.6165,5.5918,5.5566,5.5039,5.5058,5.5254,5.4941,5.5156,5.5488,5.5488,5.5488,5.5488,5.5488,5.4993,5.4662,5.5195,5.4896,5.4583,5.4805,5.4889,5.4765,5.4408,5.4349,5.4349,5.4349,5.4349,5.4466,5.4805,5.459,5.4232,5.3971,5.3932,5.3756,5.3301,5.3443,5.3066,5.185,5.1265,5.0581,4.9742,4.9297,4.8871,4.8398,4.8281,4.7887,4.7263,4.6875,4.6445,4.6037,4.5391,4.498,4.4746,4.4414,4.418,0.0,0.0,4.1035,4.3633,4.4943,4.6369,4.934,5.0664,5.1753,5.349,5.4876,5.5911,5.6406,5.7558,5.8566,5.9062,5.9835,6.0518,6.1005,6.0332,5.9676,5.9266,5.8465,5.8289,0.0,6.038,6.1474,6.2305,6.2393,6.2568,6.2958,6.2968,6.2997,6.2997,6.2997,6.2997,6.2997,6.2997,6.2968,6.2968,6.2578,6.2363,6.2334,6.1894,6.1455,6.1035,6.0577,6.0156,5.9746,5.9355,5.9207,5.9207,5.918,5.8887,5.8507,5.8476,5.8203,5.7722,5.6882,5.6589,5.6433,5.5566,5.5293,5.5312,5.5293,5.556,5.5891,5.5891,5.5891,5.5891,5.5891,5.5872,5.5755,5.539,5.5579,5.5735,5.5345,5.5293,5.5293,5.5273,5.5273,5.5273,5.5273,5.5273,5.5273,5.5293,5.5273,5.5254,5.5254,5.5254,5.5078,5.4668,5.4232,5.3627,5.2754,5.187,5.103,5.0238,4.9746,4.9297,4.8913,4.8437,4.8203,4.8164,4.7776,4.7324,4.6872,4.6853,4.6404,4.5666,4.5646,4.5412,0.0,0.0,4.6392,4.7199,4.8675,5.0512,5.2701,5.4043,5.5098,5.593,5.6009,5.595,5.6106,5.6758,5.748,5.823,5.9765,6.0918,6.1074,6.1074,6.039,5.8555,5.8582,0.0,0.0,0.0,0.0,6.2266,6.2393,6.2812,6.3817,6.3876,6.414,6.4726,6.4169,6.3993,6.4266,6.373,6.3457,6.3457,6.2744,6.2246,6.1924,6.1777,6.1484,6.1094,6.0947,6.0449,5.9776,5.9648,5.9442,5.9207,5.9207,5.909,5.8945,5.8945,5.8887,5.8641,5.7762,5.7468,5.741,5.7117,5.6797,5.6562,5.6562,5.666,5.6692,5.6445,5.6562,5.6692,5.6445,5.6126,5.595,5.6113,5.6009,5.5872,5.5735,5.5696,5.5618,5.5351,5.5312,5.5312,5.5312,5.5312,5.5384,5.5657,5.5462,5.5312,5.5312,5.5312,5.5254,5.5117,5.4707,5.4101,5.3248,5.2363,5.1504,5.0644,4.9898,4.943,4.9316,4.891,4.8656,4.8656,4.8245,4.793,4.7751,4.75,4.7229,4.6956,4.6956,4.6877,0.0,5.0482,5.284,5.2532,5.3745,5.5085,5.5515,5.6374,5.7058,5.6992,5.6399,5.5774,5.5306,5.5351,5.5749,5.6609,5.8027,5.9355,6.0273,6.0098,5.9425,5.8262,5.8039,5.7996,0.0,0.0,0.0,6.1953,6.2451,6.3047,6.4023,6.4501,6.4941,6.5351,6.4793,6.4618,6.4911,6.4082,6.3545,6.3223,6.2686,6.2158,6.1719,6.1719,6.1543,6.1308,6.1152,6.0683,6.0011,5.9863,5.9542,5.9207,5.9207,5.9207,5.9207,5.9207,5.9207,5.909,5.8379,5.8113,5.8086,5.7937,5.7703,5.7441,5.7441,5.7441,5.7383,5.7136,5.7246,5.7383,5.7136,5.6836,5.6699,5.6999,5.6699,5.6399,5.6582,5.6477,5.6243,5.584,5.5879,5.5898,5.5586,5.5664,5.5859,5.6106,5.5937,5.5762,5.5762,5.5762,5.5762,5.5762,5.5254,5.4635,5.3912,5.2915,5.1933,5.1069,5.0347,4.9898,4.9766,4.9336,4.9125,4.9125,4.8695,4.846,4.846,4.8187,4.7972,4.7793,4.7793,4.7737,5.5604,5.7997,5.9738,5.9136,5.9532,5.9601,5.7696,5.7586,5.7625,5.6719,5.6074,5.5247,0.0,0.0,5.3644,5.4537,5.5176,5.6484,5.9004,5.7969,5.7324,0.0,0.0,0.0,0.0,0.0,0.0,6.1484,0.0,6.3223,6.373,6.4933,6.541,6.5028,6.4969,6.4938,6.4938,6.414,6.3281,6.2422,6.2422,6.2187,6.1719,6.1719,6.1719,6.1689,6.1308,6.0859,6.0362,5.998,5.959,5.9207,5.9207,5.9207,5.9207,5.9207,5.9207,5.9149,5.8683,5.8538,5.8476,5.8086,5.7937,5.7937,5.7937,5.7937,5.7937,5.7926,5.7926,5.7937,5.7926,5.7898,5.7898,5.7898,5.7539,5.7363,5.7808,5.7539,5.7129,5.6719,5.6953,5.6926,5.6106,5.6328,5.6628,5.6648,5.6628,5.6609,5.6609,5.6609,5.6609,5.6609,5.582,5.5137,5.4733,5.3496,5.2358,5.1519,5.1069,5.0664,5.0278,4.9781,4.9547,4.9547,4.9144,4.8933,4.8933,4.8913,4.8675,4.8242,4.8242,4.8027,5.9571,6.1143,6.1863,6.0616,5.9379,5.8408,5.8203,5.7766,5.7129,5.6243,5.3965,5.1719,0.0,0.0,0.0,5.4004,5.7246,0.0,6.1416,6.1455,0.0,0.0,0.0,5.9531,5.8934,5.9297,0.0,0.0,6.2226,6.3164,6.4501,6.5234,6.5851,6.6379,6.5762,6.541,6.541,6.4559,6.37,6.2841,6.2841,6.2431,6.1719,6.1719,6.1719,6.1689,6.1601,6.1104,6.0372,6.0303,5.9835,5.9207,5.9207,5.9207,5.9207,5.9207,5.9207,5.918,5.9062,5.9004,5.9004,5.8887,5.8641,5.8332,5.8332,5.8332,5.8273,5.7969,5.8113,5.8273,5.7969,5.7898,5.7898,5.7898,5.7793,5.7762,5.7879,5.7793,5.7683,5.7586,5.7363,5.7148,5.6914,5.6719,5.6699,5.7012,5.6777,5.6609,5.6609,5.6609,5.6609,5.6609,5.582,5.5137,5.4733,5.3795,5.2994,5.2397,5.1655,5.1206,5.1089,5.041,5.0019,5.0019,4.959,4.9355,4.9355,4.9046,4.8855,4.8714,4.8714,4.8656,6.5728,6.7389,6.7672,6.4784,6.2953,6.1113,5.805,5.6848,5.5703,5.332,5.1289,0.0,0.0,0.0,0.0,0.0,0.0,0.0,6.1562,6.1836,6.1758,0.0,6.1426,0.0,6.0653,6.0811,6.1338,0.0,6.2695,6.3457,6.4559,6.541,6.6094,6.6562,6.5762,6.5117,6.4785,6.4462,6.3759,6.2754,6.2754,6.248,6.2012,6.1777,6.1807,6.2012,0.0,6.1308,6.0694,6.0479,6.0039,5.9453,5.9266,5.9207,5.9207,5.9207,5.9207,5.9207,5.9207,5.9207,5.9207,5.9207,5.9004,5.88,5.88,5.88,5.8769,5.8524,5.8641,5.8769,5.8524,5.8465,5.8465,5.8465,5.832,5.823,5.8434,5.832,5.8172,5.8172,5.7637,5.7265,5.7461,5.7148,5.6933,5.7187,5.7012,5.6797,5.6601,5.6609,5.6609,5.6609,5.5976,5.541,5.5,5.416,5.3502,5.3052,5.2187,5.1719,5.1719,5.0898,5.0449,5.0449,5.0039,4.9726,4.9508,4.9277,4.9066,4.8913,4.8913,4.8913,7.1517,7.3591,7.3695,6.8785,6.6954,6.4513,5.7434,5.5228,5.3574,4.9535,0.0,4.7581,4.5252,4.6953,4.9261,5.0957,0.0,5.7434,6.1094,6.1162,6.1601,6.3613,6.2812,6.2422,6.3227,6.2589,6.2608,6.3779,6.3932,6.4082,6.4442,6.5586,6.623,6.6289,6.5438,6.4668,6.3965,6.4169,6.3691,6.248,6.2539,6.2481,6.2305,6.1953,6.1982,6.2275,6.1894,0.0,6.0976,6.0577,6.0128,5.9687,5.9325,5.9207,5.9207,5.9207,5.9207,5.9207,5.9207,5.9207,5.9207,5.9207,5.9207,5.9207,5.9207,5.9207,5.9207,5.9207,5.9207,5.9207,5.9207,5.9207,5.9207,5.9207,5.8887,5.8711,5.9121,5.8887,5.8594,5.8594,5.7922,5.748,5.784,5.75,5.7207,5.7207,5.7141,5.7012,5.6719,5.6621,5.6609,5.6609,5.6165,5.5755,5.543,5.4622,5.4023,5.3678,5.2837,5.2344,5.2344,5.1465,5.0976,5.0976,5.0532,5.0078,4.9664,4.9625,4.9414,4.907,4.9011,4.8968,7.0712,7.1854,7.17,6.5718,6.3655,6.1769,5.6596,5.3437,0.0,0.0,0.0,4.4922,4.4082,4.6055,4.9066,5.2826,5.5762,0.0,0.0,0.0,6.3515,0.0,0.0,0.0,0.0,0.0,0.0,0.0,0.0,6.5293,6.5351,6.5887,6.6387,6.6789,6.5937,6.541,6.5285,6.464,6.3817,6.29,6.3281,6.2871,6.1836,6.2129,6.2099,6.1836,6.1728,0.0,6.0518,6.0431,5.998,5.9297,5.9227,5.9207,5.9207,5.9207,5.9207,5.9207,5.9207,5.9207,5.9207,5.9207,5.9207,5.9207,5.9207,5.9207,5.9207,5.9207,5.9207,5.9207,5.9207,5.9207,5.9207,5.9207,5.9149,5.909,5.918,5.9149,5.9062,5.9062,5.8625,5.8203,5.7937,5.75,5.7207,5.7207,5.6914,5.6797,5.707,5.6797,5.6609,5.6609,5.6165,5.5872,5.5813,5.5345,5.5058,5.498,5.4134,5.3666,5.3666,5.2519,5.1855,5.1855,5.1094,5.0664,5.0562,5.0234,5.0043,4.9965,4.959,4.9414,7.3527,7.3147,7.1589,6.7419,6.4833,6.1584,5.4811,0.0,0.0,0.0,0.0,4.3536,4.2832,4.5392,0.0,5.1206,5.4238,5.7793,6.2285,0.0,0.0,0.0,0.0,0.0,0.0,0.0,0.0,0.0,0.0,6.7686,6.5992,6.6328,6.6445,6.623,6.6262,6.6055,6.5586,6.5176,6.4551,6.3672,6.3691,6.337,6.2724,6.251,6.2393,6.2343,6.1894,0.0,6.0742,6.049,6.0069,5.9501,5.9266,5.9207,5.9207,5.9207,5.9207,5.9207,5.9207,5.9207,5.9207,5.9207,5.9207,5.9207,5.9207,5.9207,5.9207,5.9207,5.9207,5.9207,5.9207,5.9207,5.9207,5.9207,5.9207,5.9207,5.9207,5.9207,5.9207,5.9207,5.8652,5.8203,5.8203,5.7656,5.7285,5.7547,5.741,5.7273,5.7207,5.7031,5.6836,5.6601,5.6406,5.6165,5.593,5.5716,5.5423,5.5019,5.4375,5.39,5.3691,5.2681,5.2114,5.2114,5.1465,5.0991,5.0801,5.0605,5.0391,5.0199,4.9961,4.9863,7.5459,7.436,7.1928,6.882,6.6102,6.1907,5.3255,5.1211,0.0,0.0,4.2285,4.254,4.2031,4.4492,4.7307,0.0,5.1953,5.5436,6.0273,6.1308,0.0,0.0,0.0,0.0,0.0,0.0,0.0,0.0,0.0,0.0,6.6535,6.668,6.6613,6.591,6.6437,6.6437,6.5734,6.5644,6.5145,6.4316,6.4082,6.378,6.3398,6.2803,6.2598,6.2666,6.2012,0.0,0.0,6.0566,6.0128,5.9648,5.9325,5.9207,5.9207,5.9207,5.9207,5.9207,5.9207,5.9207,5.9207,5.9207,5.9207,5.9207,5.9207,5.9207,5.9207,5.9207,5.9207,5.9207,5.9207,5.9207,5.9207,5.9207,5.9207,5.9207,5.9207,5.9207,5.9207,5.9207,5.8641,5.823,5.8449,5.7922,5.7578,5.7867,5.7898,5.7722,5.7265,5.7207,5.7051,5.6621,5.6609,5.6445,5.6067,5.6048,5.5742,5.5,5.4525,5.4101,5.3697,5.2837,5.2388,5.2388,5.1836,5.1382,5.1074,5.0976,5.0781,5.0473,5.0375,5.0336,7.28,7.3137,7.1837,6.6088,6.4234,6.1576,5.2844,0.0,0.0,4.2843,4.1562,4.1582,4.2226,4.2988,4.4963,4.9418,5.0414,5.291,5.9542,6.0859,6.2275,0.0,0.0,0.0,0.0,0.0,0.0,0.0,0.0,0.0,6.7006,6.6887,6.6848,6.6789,6.6445,6.623,6.6152,6.5762,6.5145,6.4316,6.4618,6.3993,6.2539,6.2812,6.2548,6.1836,6.1728,0.0,0.0,6.0421,5.9952,5.9238,5.9207,5.9207,5.9207,5.9207,5.9207,5.9207,5.9207,5.9207,5.9207,5.9207,5.9207,5.9207,5.9207,5.9207,5.9207,5.9207,5.9207,5.9207,5.9207,5.9207,5.9207,5.9207,5.9207,5.9207,5.9207,5.9207,5.9207,5.9207,5.9149,5.8945,5.8566,5.8421,5.8273,5.7937,5.7898,5.7722,5.7265,5.7207,5.7051,5.6621,5.6609,5.6562,5.6523,5.6523,5.6328,5.5813,5.5403,5.5,5.4596,5.3736,5.3267,5.3267,5.2466,5.2036,5.1997,5.1538,5.1323,5.1284,5.0918,5.0742,7.1741,7.0649,6.7978,6.7315,6.3933,5.941,5.4154,0.0,4.7359,4.2447,4.1308,4.1367,4.1953,4.2402,4.3652,4.6601,4.7305,4.9359,5.4668,5.6022,5.8872,6.5376,0.0,0.0,0.0,0.0,0.0,0.0,0.0,0.0,6.9979,6.9772,6.891,6.6938,6.6731,6.6621,6.6621,6.5937,6.541,6.5078,6.4726,6.4052,6.3164,6.3056,6.2666,6.2099,6.1836,0.0,0.0,6.0811,6.046,5.9893,5.9676,5.9542,5.9531,5.9297,5.9207,5.9207,5.9207,5.9207,5.9207,5.9207,5.9207,5.9207,5.9207,5.9207,5.9207,5.9207,5.9207,5.9207,5.9207,5.9207,5.9207,5.9207,5.9207,5.9207,5.9207,5.9207,5.9207,5.9207,5.8973,5.8711,5.8519,5.8301,5.8172,5.8262,5.8262,5.8203,5.8027,5.798,5.7734,5.7031,5.6738,5.6609,5.6609,5.6609,5.6406,5.593,5.5755,5.539,5.4733,5.4082,5.3658,5.3384,5.2773,5.2324,5.2114,5.2168,5.1909,5.1401,5.1523,5.1426,6.944,6.8065,6.5213,6.7311,6.3278,5.7851,0.0,0.0,4.715,4.2368,4.1269,4.1289,4.1562,4.1953,4.2792,4.453,4.5312,4.719,5.1509,5.2837,5.6026,0.0,0.0,0.0,0.0,0.0,0.0,0.0,0.0,0.0,7.325,7.3098,7.1183,6.7013,6.6906,6.6848,6.668,6.6086,6.5644,6.5379,6.4785,6.414,6.3466,6.3164,6.2695,6.2158,6.1836,0.0,0.0,6.1094,6.0742,6.0186,5.9893,5.9718,5.959,5.9297,5.9207,5.9207,5.9207,5.9207,5.9207,5.9207,5.9207,5.9207,5.9207,5.9207,5.9207,5.9207,5.9207,5.9207,5.9207,5.9207,5.9207,5.9207,5.9207,5.9207,5.9207,5.9207,5.9207,5.9207,5.8945,5.8711,5.8711,5.8476,5.8379,5.8652,5.8711,5.8652,5.8507,5.8507,5.8215,5.748,5.7129,5.6882,5.6601,5.6609,5.6406,5.593,5.5911,5.5579,5.4902,5.4453,5.4082,5.3775,5.3209,5.2779,5.2486,5.2617,5.2377,5.1792,5.1992,5.1855,6.505,6.5662,6.4742,6.4881,6.1866,5.7402,0.0,0.0,4.7213,4.2704,4.1484,4.1191,4.1211,4.1523,4.2383,4.4121,4.5138,4.719,5.1509,5.2837,5.4544,0.0,0.0,6.853,0.0,0.0,0.0,0.0,0.0,0.0,7.6499,7.635,7.3472,6.7096,6.6906,6.6672,6.6211,6.618,6.577,6.4911,6.4911,6.4227,6.3017,6.2997,6.2548,0.0,0.0,0.0,0.0,6.1094,6.0595,5.9805,5.9805,5.9542,5.9207,5.9207,5.9207,5.9207,5.9207,5.9207,5.9207,5.9207,5.9207,5.9207,5.9207,5.9207,5.9207,5.9207,5.9207,5.9207,5.9207,5.9207,5.9207,5.9207,5.9207,5.9207,5.9207,5.9207,5.9207,5.9207,5.9207,5.918,5.918,5.918,5.918,5.918,5.918,5.9004,5.8566,5.8507,5.8332,5.7937,5.7879,5.7527,5.6687,5.6609,5.6406,5.593,5.5911,5.5716,5.5312,5.4902,5.4694,5.4694,5.3834,5.339,5.339,5.291,5.2695,5.2695,5.2266,5.1855,5.7544,5.826,5.7728,5.9139,5.6584,5.3362,5.1833,0.0,4.5295,4.2386,4.1699,4.1543,4.125,4.1543,4.2363,4.4121,4.5138,4.7115,5.1254,0.0,0.0,6.599,7.4595,8.046,0.0,0.0,0.0,0.0,0.0,0.0,7.9862,7.761,7.3472,6.7096,6.6906,6.6672,6.618,6.5937,6.5496,6.488,6.4344,6.37,6.2997,6.2744,6.2275,0.0,0.0,0.0,0.0,6.1211,6.0947,6.0625,6.0039,5.9718,5.959,5.9297,5.9207,5.9207,5.9207,5.9207,5.9207,5.9207,5.9207,5.9207,5.9207,5.9207,5.9207,5.9207,5.9207,5.9207,5.9207,5.9207,5.9207,5.9207,5.9207,5.9207,5.9207,5.9207,5.9207,5.9207,5.9207,5.9207,5.9207,5.9207,5.9207,5.9207,5.9207,5.9149,5.9004,5.8976,5.88,5.8359,5.832,5.7969,5.709,5.7012,5.6836,5.6406,5.6387,5.6191,5.5735,5.5579,5.5384,5.5117,5.4824,5.4551,5.4283,5.4147,5.3775,5.317,5.2447,5.2036,0.0,5.331,5.3807,5.5074,5.3261,0.0,0.0,0.0,4.4198,4.2207,4.1797,4.1719,4.1484,4.1758,4.25,4.3906,4.4863,4.6983,5.1454,0.0,0.0,6.9867,0.0,0.0,0.0,0.0,0.0,0.0,0.0,0.0,8.1381,7.8171,7.4025,6.8859,6.7371,6.6437,6.5996,6.5555,6.5028,6.4442,6.3956,6.3349,6.2754,6.251,6.2129,0.0,0.0,0.0,0.0,6.1269,6.1005,6.0752,6.0069,5.9707,5.9531,5.9297,5.9207,5.9207,5.9207,5.9207,5.9207,5.9207,5.9207,5.9207,5.9207,5.9207,5.9207,5.9207,5.9207,5.9207,5.9207,5.9207,5.9207,5.9207,5.9207,5.9207,5.9207,5.9207,5.9207,5.9207,5.9207,5.9207,5.9207,5.9207,5.9207,5.9207,5.9207,5.9207,5.9207,5.9207,5.909,5.88,5.8769,5.8476,5.7746,5.7558,5.7265,5.6855,5.6816,5.6621,5.6165,5.5989,5.5774,5.5521,5.539,5.5176,5.4948,5.4765,5.4342,5.3619,5.2715,5.2271,0.0,0.0,0.0,0.0,0.0,0.0,0.0,0.0,0.0,4.2148,4.1816,4.1836,4.1836,4.2187,4.2734,4.3652,4.451,0.0,0.0,5.5848,0.0,0.0,7.5383,0.0,0.0,0.0,0.0,0.0,0.0,0.0,8.1381,7.8171,7.4967,7.1776,6.8095,6.5996,6.5586,6.5145,6.4501,6.3691,6.3691,6.3252,6.2393,6.2393,6.2129,0.0,0.0,0.0,0.0,6.1269,6.084,6.0401,5.998,5.957,5.9238,5.9207,5.9207,5.9207,5.9207,5.9207,5.9207,5.9207,5.9207,5.9207,5.9207,5.9207,5.9207,5.9207,5.9207,5.9207,5.9207,5.9207,5.9207,5.9207,5.9207,5.9207,5.9207,5.9207,5.9207,5.9207,5.9207,5.9207,5.9207,5.9207,5.9207,5.9207,5.9207,5.9207,5.9207,5.9207,5.9207,5.9207,5.9207,5.9004,5.8594,5.8172,5.7742,5.7285,5.7226,5.7031,5.664,5.6211,5.595,5.595,5.5579,5.539,5.5351,5.4961,5.4531,5.4037,5.3178,5.2578,0.0,0.0,0.0,0.0,0.0,0.0,0.0,0.0,0.0,0.0,0.0,4.2265,4.2265,4.2637,4.332,0.0,0.0,4.8056,5.3929,0.0,0.0,7.8588,0.0,0.0,0.0,0.0,0.0,0.0,0.0,8.4603,8.1381,7.8171,7.4967,7.1776,6.7814,6.5703,6.5586,6.5145,6.4501,6.3691,6.3691,6.3252,6.2393,6.2393,6.2129,0.0,0.0,0.0,6.166,6.1269,6.1035,6.0859,6.0098,5.9746,5.9601,5.9297,5.9207,5.9207,5.9207,5.9207,5.9207,5.9207,5.9207,5.9207,5.9207,5.9207,5.9207,5.9207,5.9207,5.9207,5.9207,5.9207,5.9207,5.9207,5.9207,5.9207,5.9207,5.9207,5.9207,5.9207,5.9207,5.9207,5.9207,5.9207,5.9207,5.9207,5.9207,5.9207,5.9207,5.9207,5.9207,5.9207,5.9207,5.9149,5.9034,5.8625,5.8183,5.7762,5.7402,5.7168,5.707,5.666,5.6426,5.6426,5.6328,5.6133,5.5755,5.5657,5.5228,5.4512,5.3965,5.3476,3.9805,4.1641,4.3438,4.3379,0.0,0.0,0.0,0.0,0.0,0.0,0.0,4.284,4.4241,4.4724,0.0,0.0,4.833,0.0,0.0,0.0,7.6281,8.1227,8.3386,0.0,0.0,0.0,0.0,0.0,0.0,8.5247,8.3485,7.894,7.5619,7.3926,6.8475,6.5586,6.5586,6.4785,6.4023,6.3398,6.3194,6.2744,6.207,6.207,6.1953,0.0,0.0,0.0,6.166,6.1269,6.0976,6.0694,6.0039,5.9687,5.9501,5.9266,5.9207,5.9207,5.9207,5.9207,5.9207,5.9207,5.9207,5.9207,5.9207,5.9207,5.9207,5.9207,5.9207,5.9207,5.9207,5.9207,5.9207,5.9207,5.9207,5.9207,5.9207,5.9207,5.9207,5.9207,5.9207,5.9207,5.9207,5.9207,5.9207,5.9207,5.9207,5.9207,5.9207,5.9207,5.9207,5.9207,5.9207,5.9207,5.9207,5.8973,5.8625,5.8203,5.7941,5.7687,5.7519,5.7312,5.7097,5.6875,5.6875,5.666,5.623,5.6009,5.5677,5.5234,5.4388,5.3881,3.9336,4.1211,4.3028,4.3183,4.3672,0.0,0.0,0.0,0.0,0.0,0.0,0.0,0.0,4.6935,0.0,0.0,0.0,0.0,6.6676,7.1728,7.6331,8.1353,8.2683,0.0,8.5468,0.0,0.0,0.0,0.0,8.5805,8.5275,8.0112,7.6699,7.5716,6.9598,6.6112,6.5586,6.4347,6.3457,6.2997,6.2637,6.2217,6.1719,6.1777,6.1777,6.1719,0.0,0.0,6.166,6.1269,6.0859,6.046,5.998,5.959,5.9297,5.9207,5.9207,5.9207,5.9207,5.9207,5.9207,5.9207,5.9207,5.9207,5.9207,5.9207,5.9207,5.9207,5.9207,5.9207,5.9207,5.9207,5.9207,5.9207,5.9207,5.9207,5.9207,5.9207,5.9207,5.9207,5.9207,5.9207,5.9207,5.9207,5.9207,5.9207,5.9207,5.9207,5.9207,5.9207,5.9207,5.9207,5.9207,5.9207,5.9207,5.9207,5.9032,5.8625,5.8538,5.832,5.7926,5.782,5.7625,5.7226,5.7148,5.6933,5.6609,5.6211,5.597,5.5872,5.4798,5.4232,4.0468,4.168,4.2265,4.125,4.1855,0.0,0.0,0.0,0.0,0.0,0.0,0.0,0.0,4.6654,0.0,0.0,0.0,6.2247,0.0,0.0,7.952,8.2233,0.0,8.5069,8.3989,8.5169,8.5998,0.0,0.0,8.4829,8.2095,8.0987,7.7971,7.2593,7.0621,6.8374,6.5636,6.4347,6.3457,6.2997,6.2939,6.249,6.1719,6.2099,6.207,6.1719,0.0,6.1719,6.166,6.1269,6.1064,6.0918,6.0098,5.9765,5.9659,5.9325,5.9207,5.9207,5.9207,5.9207,5.9207,5.9207,5.9207,5.9207,5.9207,5.9207,5.9207,5.9207,5.9207,5.9207,5.9207,5.9207,5.9207,5.9207,5.9207,5.9207,5.9207,5.9207,5.9207,5.9207,5.9207,5.9207,5.9207,5.9207,5.9207,5.9207,5.9207,5.9207,5.9207,5.9207,5.9207,5.9207,5.9207,5.9207,5.9207,5.9207,5.918,5.909,5.8711,5.832,5.7926,5.75,5.7285,5.7207,5.6855,5.664,5.6609,5.6523,5.6289,5.5911,5.5696,5.5228,3.9843,4.0918,4.1719,4.1562,0.0,4.5434,0.0,0.0,0.0,0.0,0.0,0.0,0.0,0.0,5.5411,0.0,0.0,0.0,0.0,0.0,0.0,0.0,0.0,8.4368,8.4818,8.5543,8.5998,8.5998,0.0,0.0,8.3875,8.2148,7.9739,7.6487,7.2498,6.9522,6.7704,6.5037,6.3457,6.2997,6.2783,6.2314,6.1719,6.1904,6.1894,6.1689,0.0,6.1367,6.1357,6.0898,6.0577,6.036,5.9952,5.9659,5.9453,5.9266,5.9207,5.9207,5.9207,5.9207,5.9207,5.9207,5.9207,5.9207,5.9207,5.9207,5.9207,5.9207,5.9207,5.9207,5.9207,5.9207,5.9207,5.9207,5.9207,5.9207,5.9207,5.9207,5.9207,5.9207,5.9207,5.9207,5.9207,5.9207,5.9266,5.9501,5.9355,5.9266,5.9501,5.9325,5.9207,5.9207,5.9207,5.9207,5.9207,5.9207,5.9207,5.9207,5.9004,5.8699,5.8242,5.8262,5.8055,5.7605,5.741,5.7195,5.6914,5.6726,5.6484,5.6269,5.6028,5.5696,3.9726,4.0625,4.1602,4.2597,0.0,4.7278,4.8102,0.0,0.0,0.0,0.0,0.0,0.0,5.7514,0.0,6.9673,0.0,0.0,0.0,0.0,0.0,0.0,0.0,8.4142,8.5847,8.5998,8.5998,8.5998,8.5998,8.5998,8.5998,8.3652,8.1793,8.0618,7.4776,7.1036,6.9714,6.581,6.3574,6.2997,6.2578,6.2158,6.1719,6.1601,6.1543,6.1543,6.1104,6.0947,6.0898,6.0449,6.0069,5.9776,5.9707,5.9473,5.9207,5.9207,5.9207,5.9207,5.9207,5.9207,5.9207,5.9207,5.9207,5.9207,5.9207,5.9207,5.9207,5.9207,5.9207,5.9207,5.9207,5.9207,5.9207,5.9207,5.9207,5.9207,5.9207,5.9207,5.9207,5.9207,5.9266,5.9355,5.9355,5.9414,5.959,5.9893,5.959,5.9453,5.9765,5.9453,5.9207,5.9207,5.9207,5.9207,5.9207,5.9207,5.9207,5.9207,5.9207,5.9051,5.8683,5.8887,5.8699,5.7926,5.7808,5.75,5.707,5.6738,5.6609,5.6582,5.625,5.6009,4.1621,4.1953,4.2168,4.3848,4.3854,0.0,4.9007,5.0166,0.0,0.0,0.0,0.0,0.0,5.7781,6.2084,6.8871,7.209,7.5905,0.0,0.0,0.0,0.0,0.0,8.5847,8.597,8.5998,8.5998,8.5998,8.5998,8.5998,8.5998,8.5799,8.4267,8.1247,7.7416,7.377,7.0368,6.629,6.3817,6.2997,6.2578,6.2158,6.1689,6.1308,6.1133,6.1122,6.0635,6.046,6.0421,6.0011,5.9824,5.9765,5.9383,5.9227,5.9207,5.9207,5.9207,5.9207,5.9207,5.9207,5.9207,5.9207,5.9207,5.9207,5.9207,5.9207,5.9207,5.9207,5.9207,5.9207,5.9207,5.9207,5.9207,5.9207,5.9207,5.9207,5.9207,5.9207,5.9207,5.9207,5.9483,5.9765,5.9765,6.0069,6.0314,6.0342,6.0011,5.9765,5.9805,5.9453,5.9207,5.9207,5.9207,5.9207,5.9207,5.9207,5.9207,5.9207,5.9207,5.918,5.9149,5.8769,5.8332,5.7926,5.7461,5.7051,5.6621,5.6601,5.6609,5.6609,5.6589,5.6328,4.086,4.2557,4.4106,4.4653,0.0,0.0,0.0,0.0,0.0,0.0,0.0,0.0,0.0,0.0,6.9231,7.3528,7.7132,8.0494,8.3552,8.479,8.5521,8.595,8.5998,8.5998,8.5998,8.5998,8.5998,8.5998,8.5998,8.5847,8.5468,8.5794,8.4201,8.0266,7.7042,7.3604,6.9891,6.593,6.3613,6.2997,6.2578,6.2158,6.1689,6.1298,6.1094,6.1064,6.0332,6.0039,6.0011,5.959,5.9442,5.9414,5.9266,5.9207,5.9207,5.9207,5.9207,5.9207,5.9207,5.9207,5.9207,5.9207,5.9207,5.9207,5.9207,5.9207,5.9207,5.9207,5.9207,5.9207,5.9207,5.9207,5.9207,5.9207,5.9207,5.9266,5.9531,5.957,5.957,5.957,5.9893,6.0098,5.9835,6.0128,6.049,6.0801,6.046,6.0186,6.0186,5.9824,5.9473,5.9227,5.9207,5.9207,5.9207,5.9207,5.9207,5.9207,5.9207,5.9062,5.8769,5.8859,5.8711,5.8273,5.8097,5.7793,5.741,5.7109,5.6836,5.6609,5.6609,5.6504,4.1298,4.3039,4.503,0.0,0.0,0.0,0.0,0.0,0.0,0.0,0.0,0.0,0.0,0.0,0.0,0.0,8.055,8.3386,8.4667,8.5496,8.5998,8.5998,8.5998,8.5998,8.5998,8.5998,8.5998,8.5998,8.5998,8.5747,8.5116,8.5496,8.3827,7.9699,7.6635,7.3223,6.9417,6.5599,6.3398,6.2812,6.2393,6.2012,6.1689,6.1133,6.087,6.0811,5.998,5.9601,5.959,5.9297,5.9207,5.9207,5.9207,5.9207,5.9207,5.9207,5.9207,5.9207,5.9207,5.9207,5.9207,5.9207,5.9207,5.9207,5.9207,5.9207,5.9207,5.9207,5.9207,5.9207,5.9207,5.9207,5.9207,5.9207,5.9207,5.9266,5.9559,5.9601,5.9648,5.9776,6.0128,6.0362,6.0215,6.0538,6.0928,6.125,6.0918,6.0625,6.0625,6.0128,5.9648,5.9238,5.9207,5.9207,5.9207,5.9207,5.9207,5.9207,5.9207,5.9062,5.8742,5.9032,5.8976,5.8507,5.8507,5.8301,5.7898,5.7422,5.7129,5.6999,5.6745,5.6687,4.348,4.3518,0.0,0.0,0.0,0.0,0.0,0.0,0.0,0.0,0.0,0.0,0.0,0.0,0.0,0.0,0.0,8.4089,8.5747,8.5998,8.5998,8.5998,8.5998,8.5998,8.5998,8.5998,8.5998,8.5998,8.5998,8.5719,8.5116,8.5089,8.3407,7.9812,7.6675,7.3135,6.917,6.5548,6.3322,6.2461,6.2002,6.1748,6.166,6.0811,6.0401,6.0362,5.9559,5.9207,5.9207,5.9207,5.9207,5.9207,5.9207,5.9207,5.9207,5.9207,5.9207,5.9207,5.9207,5.9207,5.9207,5.9207,5.9207,5.9207,5.9207,5.9207,5.9207,5.9207,5.9207,5.9207,5.9207,5.9207,5.9207,5.9207,5.9207,5.9207,5.9207,5.9207,5.9325,5.9718,6.0128,6.0566,6.1015,6.1426,6.1689,6.1689,6.1367,6.1094,6.1094,6.0332,5.9648,5.9238,5.9207,5.9207,5.9207,5.9207,5.9207,5.9207,5.9207,5.9207,5.9207,5.9207,5.8976,5.8507,5.8507,5.832,5.7898,5.7441,5.7441,5.7879,5.6999,5.6797,4.1562,4.4268,0.0,4.9186,0.0,0.0,0.0,6.5632,0.0,0.0,0.0,0.0,0.0,0.0,0.0,0.0,0.0,0.0,8.4667,8.5496,8.5998,8.5998,8.5998,8.5998,8.5998,8.5998,8.5822,8.542,8.5367,8.4966,8.4037,8.4341,8.2666,7.8568,7.7625,7.5363,7.1546,6.9838,6.8648,6.8017,6.7544,6.5353,6.166,6.0811,6.0401,6.0362,5.9559,5.9207,5.9207,5.9207,5.9207,5.9207,5.9207,5.9207,5.9207,5.9207,5.9207,5.9207,5.9207,5.9207,5.9207,5.9207,5.9207,5.9207,5.9207,5.9207,5.9207,5.9207,5.9207,5.9207,5.9207,5.9207,5.9207,5.9207,5.9207,5.9266,5.9542,5.9601,5.9676,5.9776,6.0128,6.0342,6.0215,6.0801,6.1298,6.1298,6.1181,6.0888,6.0273,5.9707,5.9325,5.9207,5.9207,5.9207,5.9207,5.9207,5.9207,5.9207,5.9207,5.9207,5.9207,5.9207,5.9121,5.9004,5.9004,5.8769,5.832,5.791,5.7578,5.7383,5.6836,5.666,4.4482,4.7443,0.0,5.3937,5.7724,6.2279,6.8256,0.0,0.0,0.0,0.0,0.0,0.0,0.0,0.0,0.0,0.0,0.0,8.4539,8.542,8.5922,8.5671,8.5847,8.5922,8.5671,8.5618,8.5496,8.5116,8.4913,8.4416,8.3537,8.3587,8.1829,7.7807,7.749,7.5676,7.2021,7.1239,7.073,7.0422,6.9724,6.78,6.4807,6.2739,6.1221,6.0128,5.9473,5.9207,5.9207,5.9207,5.9207,5.9207,5.9207,5.9207,5.9207,5.9207,5.9207,5.9207,5.9207,5.9207,5.9207,5.9207,5.9207,5.9207,5.9207,5.9207,5.9207,5.9207,5.9207,5.9207,5.9207,5.9207,5.9207,5.9207,5.9207,5.9266,5.9512,5.9542,5.9618,5.9765,6.0011,6.0128,6.0069,6.046,6.0811,6.0811,6.0811,6.0566,5.9893,5.959,5.9383,5.9207,5.9207,5.9207,5.9207,5.9207,5.9207,5.9207,5.9207,5.9207,5.9207,5.9207,5.9207,5.9207,5.9207,5.9062,5.8769,5.8332,5.7996,5.7687,5.7109,5.6836,4.9826,5.1666,5.4341,6.1083,6.277,0.0,7.1638,0.0,0.0,0.0,0.0,0.0,0.0,0.0,0.0,8.2208,8.3587,8.4439,8.489,8.5543,8.5747,8.5116,8.5543,8.5671,8.5089,8.5041,8.4988,8.4966,8.4464,8.3914,8.3361,8.2861,8.1025,7.7675,7.7013,7.5165,7.1906,7.1398,7.1104,7.109,7.0104,6.9717,6.978,6.6064,6.2948,6.0503,6.0119,5.9969,5.9969,5.9969,5.9802,5.9607,5.9865,5.9802,5.9607,5.9865,5.9969,5.9941,5.9682,5.9559,5.9543,5.9272,5.9207,5.9207,5.9207,5.9207,5.9207,5.9207,5.9207,5.9207,5.9207,5.9207,5.9207,5.9207,5.9207,5.9207,5.9207,5.9207,5.9297,5.9659,5.9746,5.9863,6.0245,6.0314,6.0342,6.0342,6.0342,6.0215,5.9805,5.9746,5.9618,5.9238,5.9207,5.9207,5.9207,5.9207,5.9207,5.9207,5.9207,5.9207,5.9207,5.9207,5.9207,5.9207,5.9207,5.9207,5.9207,5.8742,5.848,5.8421,5.7598,5.7187,4.7216,5.0967,0.0,6.1126,6.7402,7.3116,7.6482,7.9117,8.0498,0.0,0.0,0.0,8.2258,8.1957,8.1856,8.2585,8.3587,8.4188,8.3889,8.5094,8.5618,8.4587,8.4966,8.5089,8.4539,8.4464,8.4288,8.3889,8.3336,8.2784,8.2206,8.1679,8.0836,7.9604,7.9454,7.8595,7.6934,7.6812,7.6346,7.5513,7.5292,7.3829,7.1258,6.8588,6.685,6.5938,6.5829,6.5785,6.5785,6.5785,6.4493,6.2719,6.4929,6.4439,6.2773,6.4982,6.5785,6.5465,6.327,6.2507,6.2138,5.9921,5.9207,5.9207,5.9207,5.9207,5.9207,5.9207,5.9207,5.9207,5.9207,5.9207,5.9207,5.9207,5.9207,5.9207,5.9207,5.9207,5.9227,5.9297,5.9325,5.9355,5.9442,5.9718,5.9922,5.9922,5.9922,5.9776,5.9383,5.9325,5.9297,5.9207,5.9207,5.9207,5.9207,5.9207,5.9207,5.9207,5.9207,5.9207,5.9207,5.9207,5.9207,5.9207,5.9207,5.9207,5.9207,5.8742,5.8332,5.8016,5.7461,5.7031,4.9268,5.3445,5.8365,6.5226,0.0,7.6708,7.7837,7.9393,8.0448,7.982,8.1302,8.2786,8.3037,8.2886,8.2786,8.3062,8.3537,8.3813,8.3537,8.4464,8.4865,8.4041,8.4614,8.479,8.3989,8.3914,8.3688,8.3162,8.2357,8.1754,8.1427,8.0899,8.0473,8.0223,7.967,7.9092,7.8515,7.7988,7.7586,7.7285,7.6758,7.5584,7.3736,6.9775,6.7813,6.7593,6.7593,6.7593,6.7593,6.7593,6.6721,6.5572,6.7012,6.6694,6.5598,6.7065,6.7593,6.7382,6.5897,6.5411,6.517,6.3704,6.3236,6.2964,6.161,6.121,6.0934,5.9559,5.9207,5.9207,5.9207,5.9207,5.9207,5.9207,5.9207,5.9207,5.9207,5.9207,5.9207,5.9207,5.9207,5.9207,5.9207,5.9355,5.9512,5.9512,5.9512,5.9442,5.9227,5.9207,5.9207,5.9207,5.9207,5.9207,5.9207,5.9207,5.9207,5.9207,5.9207,5.9207,5.9207,5.9207,5.9207,5.9207,5.9207,5.9207,5.9207,5.8945,5.8594,5.8183,5.7941,5.7617,5.188,5.6789,6.2172,7.0069,7.49,0.0,7.7712,7.9018,8.0348,8.0774,8.183,8.2861,8.3386,8.3162,8.2987,8.3412,8.3412,8.3361,8.3361,8.3813,8.3962,8.3412,8.4165,8.4288,8.3286,8.311,8.2884,8.2459,8.1453,8.0824,8.0724,8.0197,7.9845,7.9771,7.8841,7.8314,7.8214,7.7335,7.7084,7.7411,7.6506,7.6104,7.5956,7.1226,6.906,6.906,6.906,6.906,6.906,6.906,6.8773,6.8355,6.8851,6.8747,6.8381,6.8877,6.906,6.8982,6.8485,6.8328,6.8224,6.7751,6.7593,6.7065,6.4229,6.3384,6.2807,5.9985,5.9207,5.9207,5.9207,5.9207,5.9207,5.9207,5.9207,5.9207,5.9207,5.9207,5.9207,5.9207,5.9207,5.9207,5.9207,5.9207,5.9207,5.9207,5.9207,5.9207,5.9207,5.9207,5.9207,5.9207,5.9207,5.9207,5.9207,5.9207,5.9207,5.9207,5.9207,5.9207,5.9207,5.9207,5.9207,5.9207,5.9207,5.9207,5.9207,5.9207,5.8945,5.8507,5.8507,5.8273,4.996,5.8533,6.7588,7.1664,7.5201,7.7712,0.0,0.0,8.0197,0.0,8.1579,8.2861,8.3386,8.3437,8.3412,8.3487,8.3112,8.2811,8.2811,8.3261,8.3386,8.2861,8.2936,8.276,8.2106,8.1602,8.1301,8.1226,8.0648,8.0122,7.9645,7.9068,7.849,7.8063,7.7888,7.7586,7.7134,7.6984,7.6707,7.633,7.6179,7.6104,7.6079,7.5311,7.4962,7.4962,7.4962,7.4962,7.4962,7.4962,7.3485,7.1482,7.3987,7.3434,7.1534,7.4037,7.4962,7.4588,7.2119,7.1228,7.0843,6.8381,6.7593,6.7065,6.4229,6.3384,6.2807,5.9985,5.9207,5.9207,5.9207,5.9207,5.9207,5.9207,5.9207,5.9207,5.9207,5.9207,5.9207,5.9207,5.9207,5.9207,5.9207,5.9207,5.9207,5.9207,5.9207,5.9207,5.9207,5.9207,5.9207,5.9207,5.9207,5.9207,5.9207,5.9207,5.9207,5.9207,5.9207,5.9207,5.9207,5.9207,5.9207,5.9207,5.9207,5.9207,5.9207,5.9207,5.8945,5.8507,5.8507,5.8273,5.4497,6.1759,6.8371,7.2615,7.5276,7.6958,7.7561,7.8515,7.9419,8.0072,8.08,8.1453,8.2005,8.2079,8.2079,8.2079,8.1905,8.1754,8.1754,8.1955,8.2004,8.1779,8.2005,8.198,8.1401,8.115,8.0874,8.0573,8.0072,7.9495,7.8942,7.864,7.8239,7.7712,7.7411,7.7159,7.6908,7.6607,7.633,7.6104,7.6104,7.6104,7.6104,7.6104,7.6104,7.6104,7.6104,7.6104,7.6104,7.6104,7.536,7.4338,7.5609,7.5335,7.4363,7.5633,7.6104,7.5931,7.4638,7.4213,7.4012,7.2778,7.1278,6.9424,6.6615,6.4633,6.2807,5.9985,5.9207,5.9207,5.9207,5.9207,5.9207,5.9207,5.9207,5.9207,5.9207,5.9207,5.9207,5.9207,5.9207,5.9207,5.9207,5.9207,5.9207,5.9207,5.9207,5.9207,5.9207,5.9207,5.9207,5.9207,5.9207,5.9207,5.9207,5.9207,5.9207,5.9207,5.9207,5.9207,5.9207,5.9207,5.9207,5.9207,5.9207,5.9207,5.9207,5.9207,5.909,5.8887,5.8887,5.8817,5.7645,6.2781,6.6686,7.1535,7.4096,7.5778,7.7034,7.7913,7.8741,7.9594,7.9896,8.0122,8.0523,8.0824,8.1,8.1,8.0899,8.0849,8.1,8.0874,8.0849,8.1,8.1226,8.1252,8.0849,8.0548,8.0197,7.9795,7.9269,7.8716,7.8113,7.8088,7.7862,7.731,7.6908,7.6707,7.6707,7.6305,7.6104,7.6104,7.6104,7.6104,7.6104,7.6104,7.6104,7.6104,7.6104,7.6104,7.6104,7.6104,7.6104,7.6104,7.6104,7.6104,7.6104,7.6104,7.6104,7.6104,7.6104,7.6104,7.6104,7.6104,7.4638,7.2246,6.8669,6.6137,6.371,6.0199,5.9207,5.9207,5.9207,5.9207,5.9207,5.9207,5.9207,5.9207,5.9207,5.9207,5.9207,5.9207,5.9207,5.9207,5.9207,5.9207,5.9207,5.9207,5.9207,5.9207,5.9207,5.9207,5.9207,5.9207,5.9207,5.9207,5.9207,5.9207,5.9207,5.9207,5.9207,5.9207,5.9207,5.9207,5.9207,5.9207,5.9207,5.9207,5.9207,5.9207,5.9207,5.9207,5.9207,5.9207,5.585,5.9311,6.2566,6.7041,7.0958,7.417,7.5828,7.7385,7.8515,7.8565,7.9043,7.9444,7.9469,8.0297,8.1,8.1,8.0573,8.0397,8.0925,8.0548,8.0423,8.095,8.0573,8.0247,8.0222,7.9243,7.8615,7.859,7.8088,7.7536,7.7009,7.6984,7.6732,7.6205,7.6154,7.6154,7.6154,7.6129,7.6104,7.6104,7.6104,7.6104,7.6104,7.6104,7.6104,7.6104,7.6104,7.6104,7.6104,7.6104,7.6104,7.6104,7.6104,7.6104,7.6104,7.6104,7.6104,7.6104,7.6104,7.6104,7.6104,7.6104,7.6005,7.4837,6.9268,6.7487,6.6238,6.0741,5.9207,5.9207,5.9207,5.9207,5.9207,5.9207,5.9207,5.9207,5.9207,5.9207,5.9207,5.9207,5.9207,5.9207,5.9207,5.9207,5.9207,5.9207,5.9207,5.9207,5.9207,5.9207,5.9207,5.9207,5.9207,5.9207,5.9207,5.9207,5.9207,5.9207,5.9207,5.9207,5.9207,5.9207,5.9207,5.9207,5.9207,5.9207,5.9207,5.9207,5.9207,5.9207,5.9207,5.9207,5.6296,5.883,6.1165,6.5609,6.91,7.201,7.4045,7.6054,7.7561,7.7913,7.8164,7.8314,7.8314,7.9218,7.9972,7.9972,7.9796,7.9746,7.9947,7.9796,7.9746,7.9947,7.9796,7.9545,7.9142,7.8741,7.8339,7.8013,7.7812,7.7461,7.6933,7.6908,7.6657,7.6129,7.6104,7.6104,7.6104,7.5703,7.5703,7.6104,7.5703,7.5728,7.6104,7.6104,7.5878,7.5527,7.5527,7.5527,7.5552,7.5929,7.5878,7.5578,7.5954,7.6104,7.6104,7.6104,7.6104,7.6104,7.6104,7.6104,7.6104,7.6104,7.4862,7.2602,6.8773,6.6323,6.4115,6.027,5.9207,5.9207,5.9207,5.9207,5.9207,5.9207,5.9207,5.9207,5.9207,5.9207,5.9207,5.9207,5.9207,5.9207,5.9207,5.9207,5.9207,5.9207,5.9207,5.9207,5.9207,5.9207,5.9207,5.9207,5.9207,5.9207,5.9207,5.9207,5.9207,5.9207,5.9207,5.9207,5.9207,5.9207,5.9207,5.9207,5.9207,5.9207,5.9207,5.9207,5.9207,5.9207,5.9207,5.9207,5.559,5.7298,5.9282,6.4103,6.6538,6.877,7.2464,7.4423,7.5753,7.6657,7.731,7.7712,7.7712,7.8314,7.8892,7.9068,7.9269,7.9394,7.9394,7.9218,7.9093,7.9093,7.8942,7.8666,7.8264,7.8088,7.7812,7.7461,7.726,0.0,7.6657,7.6632,7.6456,7.6104,7.6104,7.5979,7.5803,7.5402,7.5302,7.5527,7.5101,7.5151,7.5527,7.5527,7.5301,7.4925,7.4925,7.4925,7.4976,7.5352,7.5402,7.5252,7.5628,7.5904,7.6104,7.6104,7.6104,7.6104,7.6104,7.6104,7.6104,7.6104,7.4788,7.2703,6.9888,6.7698,6.563,6.2801,6.1328,6.0602,6.0602,5.9893,5.9207,5.9207,5.9207,5.9207,5.9207,5.9207,5.9207,5.9207,5.9207,5.9207,5.9207,5.9207,5.9207,5.9207,5.9207,5.9207,5.9207,5.9207,5.9207,5.9207,5.9207,5.9207,5.9207,5.9207,5.9207,5.9207,5.9207,5.9207,5.9207,5.9207,5.9207,5.9207,5.9207,5.9207,5.9207,5.9207,5.9207,5.9207,5.9207,5.9207,0.0,0.0,0.0,6.2094,6.3099,6.4408,7.0934,7.2466,7.2993,7.4725,7.6381,7.7536,7.7637,7.7662,7.7862,7.8364,7.8967,7.9344,7.9344,7.8867,7.8465,7.8465,7.8038,7.7687,7.7687,7.721,7.6883,7.6883,7.6381,7.6104,7.6104,7.6079,7.6079,7.6079,7.6054,7.5778,7.5177,7.5152,7.49,7.4398,7.4373,7.4373,7.4398,7.4398,7.4373,7.4373,7.4373,7.4348,7.4348,7.4373,7.47,7.5202,7.5177,7.5578,7.6104,7.6104,7.6104,7.6104,7.6104,7.6104,7.6104,7.6104,7.6104,7.5559,7.2653,7.1789,7.1203,6.8276,6.5518,6.3384,6.3303,6.1252,5.9207,5.9207,5.9207,5.9207,5.9207,5.9207,5.9207,5.9207,5.9207,5.9207,5.9207,5.9207,5.9207,5.9207,5.9207,5.9207,5.9207,5.9207,5.9207,5.9207,5.9207,5.9207,5.9207,5.9207,5.9207,5.9207,5.9207,5.9207,5.9207,5.9207,5.9207,5.9207,5.9207,5.9207,5.9207,5.9207,5.9207,5.9207,5.9207,5.918,5.3088,0.0,0.0,0.0,0.0,0.0,6.476,6.6467,6.8396,7.2062,7.2866,7.3668,7.6104,7.6858,7.7185,7.7335,7.7812,7.8164,7.8164,7.8038,7.7938,7.7938,7.7787,7.7536,7.7159,7.6984,7.6732,0.0,7.6179,7.6104,7.6104,7.5678,7.5453,7.5453,7.5075,7.4799,7.4624,7.4247,7.4171,7.4423,7.4021,7.4021,7.4398,7.4398,7.4197,7.382,7.382,7.3569,7.3244,7.4047,7.4474,7.4649,7.5051,7.5578,7.6104,7.6104,7.6104,7.6104,7.6104,7.6104,7.6104,7.6104,7.6104,7.5559,7.2653,7.1789,7.0792,6.5923,6.4007,6.2916,6.0907,5.9774,5.9207,5.9207,5.9207,5.9207,5.9207,5.9207,5.9207,5.9207,5.9207,5.9207,5.9207,5.9207,5.9207,5.9207,5.9207,5.9207,5.9207,5.9207,5.9207,5.9207,5.9207,5.9207,5.9207,5.9207,5.9207,5.9207,5.9207,5.9207,5.9207,5.9207,5.9207,5.9207,5.9207,5.9207,5.9207,5.9207,5.9207,5.9207,5.9207,5.9004,0.0,0.0,0.0,0.0,0.0,0.0,6.2571,6.3902,6.5509,6.993,7.1158,7.2186,7.4597,7.5678,7.6205,7.6205,7.6657,7.721,7.7637,7.7511,7.7385,7.7385,7.7185,7.6908,7.6582,7.6557,7.6456,7.6129,7.6104,7.6104,7.6104,7.5527,7.5202,7.5202,7.4674,7.4273,7.4071,7.377,7.3644,7.3696,7.3369,7.3369,7.3696,7.3696,7.352,7.3217,7.3217,7.3018,7.2767,7.3419,7.3821,7.4121,7.4649,7.5202,7.5778,7.6004,7.6104,7.6104,7.6104,7.6104,7.6104,7.6104,7.6104,7.5782,7.4113,7.3586,7.2905,6.9632,6.6986,6.4498,6.1672,6.0088,5.9207,5.9207,5.9207,5.9207,5.9207,5.9207,5.9207,5.9207,5.9207,5.9207,5.9207,5.9207,5.9207,5.9207,5.9207,5.9207,5.9207,5.9207,5.9207,5.9207,5.9207,5.9207,5.9207,5.9207,5.9207,5.9207,5.9207,5.9207,5.9207,5.9207,5.9207,5.9207,5.9207,5.9207,5.9207,5.9207,5.9207,5.9207,5.9207,5.8945,0.0,0.0,0.0,0.0,0.0,0.0,6.2134,6.2797,6.3454,6.77,6.9755,7.1259,7.2765,7.3871,7.4525,7.4499,7.5226,7.6205,7.736,7.7109,7.6808,7.6808,7.6331,7.5979,7.5979,7.5953,7.5928,7.5928,7.5928,7.5928,7.5928,7.5352,7.5002,7.5002,7.4499,7.3947,7.3418,7.3468,7.3217,7.2616,7.2666,7.2717,7.2717,7.2717,7.2717,7.2717,7.2717,7.2717,7.2717,7.2717,7.3093,7.3745,7.4198,7.4775,7.5352,7.5904,7.6104,7.6104,7.6104,7.6104,7.6104,7.6104,7.6104,7.6104,7.6104,7.6104,7.603,7.5708,7.1762,6.6933,6.4142,6.1535,5.9607,5.9272,5.9207,5.9207,5.9207,5.9207,5.9207,5.9207,5.9207,5.9207,5.9207,5.9207,5.9207,5.9207,5.9207,5.9207,5.9207,5.9207,5.9207,5.9207,5.9207,5.9207,5.9207,5.9207,5.9207,5.9207,5.9207,5.9207,5.9207,5.9207,5.9207,5.9207,5.9207,5.9207,5.9207,5.9207,5.918,5.9121,5.918,5.8945,0.0,0.0,0.0,0.0,0.0,0.0,5.6739,5.7744,5.9734,6.2802,6.368,6.5082,6.8876,7.0106,7.0384,6.9956,7.2263,7.4623,7.618,7.6305,7.628,7.628,7.5728,7.5377,7.5377,7.5,7.4724,7.4724,7.4724,7.4724,7.4724,7.4222,7.392,7.392,7.3344,7.2767,7.2238,7.2666,7.2591,7.2062,7.2491,7.2717,7.2717,7.2717,7.2717,7.2717,7.2717,7.2717,7.2717,7.2717,7.3319,7.4248,7.4348,7.5025,7.5929,7.6079,7.6104,7.6104,7.6104,7.6104,7.6104,7.6104,7.6104,7.6104,7.6104,7.6104,7.5633,7.3284,7.0199,6.6933,6.4142,6.2998,6.2001,5.9726,5.9207,5.9207,5.9207,5.9207,5.9207,5.9207,5.9207,5.9207,5.9207,5.9207,5.9207,5.9207,5.9207,5.9207,5.9207,5.9207,5.9207,5.9207,5.9207,5.9207,5.9207,5.9207,5.9207,5.9207,5.9207,5.9207,5.9207,5.9207,5.9207,5.9207,5.9207,5.9207,5.9207,5.9207,5.9004,5.8652,5.9004,5.8945,0.0,0.0,0.0,5.5483,0.0,0.0,0.0,5.6463,5.7675,6.1266,6.1567,6.227,6.5886,6.6764,6.7141,6.7719,6.9903,7.1912,7.3064,7.4623,7.5653,7.5653,7.5151,7.48,7.48,7.4549,7.4398,7.4398,7.4398,7.4398,7.4398,7.3895,7.3594,7.3594,7.2765,7.229,7.229,7.229,7.229,7.229,7.2566,7.2717,7.2717,7.2717,7.2717,7.2717,7.2717,7.2717,7.2717,7.2717,7.3219,7.4021,7.4322,7.4925,7.5678,7.5979,7.6104,7.6104,7.6104,7.6104,7.6104,7.6104,7.6104,7.6104,7.6104,7.6104,7.5807,7.4363,7.1891,6.9034,6.6216,6.4445,6.2671,5.9865,5.9207,5.9207,5.9207,5.9207,5.9207,5.9207,5.9207,5.9207,5.9207,5.9207,5.9207,5.9207,5.9207,5.9207,5.9207,5.9207,5.9207,5.9207,5.9207,5.9207,5.9207,5.9207,5.9207,5.9207,5.9207,5.9207,5.9207,5.9207,5.9207,5.9207,5.9207,5.9207,5.9207,5.9207,5.9062,5.8859,5.909,5.8945,0.0,0.0,0.0,0.0,0.0,5.5717,0.0,0.0,0.0,5.9885,5.9935,6.0111,6.2592,6.3144,6.3621,6.4877,6.699,6.855,6.8821,7.1711,0.0,7.4223,7.3947,7.3746,7.3746,7.357,7.357,7.3871,7.3745,7.377,7.4047,7.3669,7.3418,7.3418,7.2439,7.2113,7.2541,7.2138,7.2138,7.2541,7.2666,7.2717,7.2717,7.2717,7.2717,7.2717,7.2717,7.2717,7.2717,7.2717,7.3118,7.3795,7.4223,7.4725,7.5277,7.5878,7.6104,7.6104,7.6104,7.6104,7.6104,7.6104,7.6104,7.6104,7.6104,7.6104,7.6104,7.6104,7.4438,7.184,6.8459,6.5897,6.3378,5.9985,5.9207,5.9207,5.9207,5.9207,5.9207,5.9207,5.9207,5.9207,5.9207,5.9207,5.9207,5.9207,5.9207,5.9207,5.9207,5.9207,5.9207,5.9207,5.9207,5.9207,5.9207,5.9207,5.9207,5.9207,5.9207,5.9207,5.9207,5.9207,5.9207,5.9207,5.9207,5.9207,5.9207,5.9207,5.9207,5.9207,5.9207,5.9004,0.0,0.0,0.0,0.0,5.9363,0.0,0.0,0.0,5.6552,5.5634,0.0,0.0,0.0,0.0,0.0,0.0,0.0,0.0,6.3781,6.6517,6.9175,7.0679,7.1232,7.1483,7.1483,7.0558,7.0583,7.2087,7.1307,7.1408,7.2817,7.2842,7.2792,7.2792,7.2238,7.1937,7.1987,7.1937,7.1937,7.2012,7.2466,7.2717,7.2717,7.2717,7.2717,7.2717,7.2717,7.2717,7.2717,7.2717,7.3344,7.4322,7.4373,7.4725,7.5277,7.5878,7.6104,7.6104,7.6104,7.6104,7.6104,7.6104,7.6104,7.6104,7.6104,7.6104,7.6104,7.6104,7.5856,7.4388,6.8982,6.7356,6.5785,6.0456,5.9207,5.9207,5.9207,5.9207,5.9207,5.9207,5.9207,5.9207,5.9207,5.9207,5.9207,5.9207,5.9207,5.9207,5.9207,5.9207,5.9207,5.9207,5.9207,5.9207,5.9207,5.9207,5.9207,5.9207,5.9207,5.9207,5.9207,5.9207,5.9207,5.9207,5.9207,5.9207,5.9207,5.9207,5.9207,5.9207,5.9207,5.918,0.0,0.0,0.0,0.0,0.0,0.0,0.0,0.0,5.4719,0.0,0.0,0.0,0.0,0.0,0.0,0.0,5.9112,0.0,0.0,6.2747,6.566,6.8924,0.0,0.0,6.9125,6.9027,6.9228,6.993,6.9855,7.0229,7.1234,7.1912,7.2365,7.2692,7.2164,7.2039,7.2365,7.2062,7.2062,7.2365,7.2591,7.2717,7.2717,7.2717,7.2717,7.2717,7.2717,7.2892,7.3217,7.3217,7.3694,7.4423,7.475,7.5202,7.5753,7.6004,7.6104,7.6104,7.6104,7.6104,7.6104,7.6104,7.6104,7.6104,7.6104,7.6104,7.6104,7.6104,7.6104,7.5161,7.1098,6.8825,6.6588,6.2582,6.0393,5.9207,5.9207,5.9207,5.9207,5.9207,5.9207,5.9207,5.9207,5.9207,5.9207,5.9207,5.9207,5.9207,5.9207,5.9207,5.9207,5.9207,5.9207,5.9207,5.9207,5.9207,5.9207,5.9207,5.9207,5.9207,5.9207,5.9207,5.9207,5.9207,5.9207,5.9207,5.9207,5.9207,5.9207,5.9207,5.9207,5.9207,6.0788,0.0,0.0,0.0,0.0,0.0,0.0,0.0,0.0,0.0,0.0,0.0,0.0,0.0,0.0,0.0,0.0,5.8359,0.0,5.9514,0.0,0.0,0.0,0.0,0.0,6.7342,6.7668,6.8145,6.8224,6.8801,7.0001,7.0807,7.1537,7.224,7.1887,7.1887,7.2265,7.2037,7.2113,7.2491,7.2641,7.2717,7.2717,7.2867,7.2943,7.2943,7.3093,7.3394,7.382,7.382,7.4146,7.4649,7.5051,7.5578,7.6104,7.6104,7.6104,7.6104,7.6104,7.6104,7.6104,7.6104,7.6104,7.6104,7.6104,7.6104,7.6104,7.6104,7.6104,7.5435,7.2551,7.0302,6.7856,6.4229,6.1837,6.0151,5.9375,5.9207,5.9207,5.9207,5.9207,5.9207,5.9207,5.9207,5.9207,5.9207,5.9207,5.9207,5.9207,5.9207,5.9207,5.9207,5.9207,5.9207,5.9207,5.9207,5.9207,5.9207,5.9207,5.9207,5.9207,5.9207,5.9207,5.9207,5.9207,5.9149,5.9004,5.9149,5.9121,5.9004,5.9149,5.9207,0.0,0.0,0.0,5.9282,0.0,0.0,0.0,0.0,5.6602,0.0,0.0,0.0,0.0,0.0,0.0,0.0,0.0,0.0,0.0,0.0,0.0,0.0,0.0,0.0,0.0,6.4927,6.5304,6.6937,6.6058,6.6614,6.928,6.9456,7.0006,7.1131,7.1131,7.1131,7.1156,7.1661,7.1912,7.1937,7.2441,7.2717,7.2717,7.3318,7.3569,7.3594,7.4121,7.4348,7.4373,7.4373,7.47,7.5202,7.5177,7.5578,7.6104,7.6104,7.6104,7.6104,7.6104,7.6104,7.6104,7.6104,7.6104,7.6104,7.6104,7.6104,7.6104,7.6104,7.6104,7.5435,7.2551,7.1738,7.0253,6.4714,6.333,6.2507,5.9802,5.9207,5.9207,5.9207,5.9207,5.9207,5.9207,5.9207,5.9207,5.9207,5.9207,5.9207,5.9207,5.9207,5.9207,5.9207,5.9207,5.9207,5.9207,5.9207,5.9207,5.9207,5.9207,5.9207,5.9207,5.9207,5.9207,5.9207,5.9207,5.8993,5.8507,5.8976,5.8973,5.8519,5.9004,5.9207,0.0,0.0,6.6692,6.225,0.0,0.0,0.0,0.0,0.0,0.0,0.0,0.0,0.0,0.0,0.0,0.0,0.0,0.0,0.0,0.0,0.0,0.0,0.0,0.0,0.0,6.3048,6.3626,6.4182,6.4228,6.4957,6.6614,6.8073,6.9228,6.9956,7.0706,7.1106,7.1106,7.1282,7.1535,7.1912,7.2064,7.2565,7.3318,7.3519,7.3795,7.4146,7.4298,7.4599,7.4925,7.4925,7.5252,7.5803,7.5803,7.5904,7.6104,7.6104,7.6104,7.6104,7.6104,7.6104,7.6104,7.6104,7.6104,7.6104,7.6104,7.6104,7.6104,7.6104,7.6104,7.5881,7.4912,7.3234,7.1305,6.9424,6.611,6.3134,6.2193,6.0512,5.9207,5.9207,5.9207,5.9207,5.9207,5.9207,5.9207,5.9207,5.9207,5.9207,5.9207,5.9207,5.9207,5.9207,5.9207,5.9207,5.9207,5.9207,5.9207,5.9207,5.9207,5.9207,5.9207,5.9207,5.9207,5.9207,5.9207,5.9121,5.8945,5.9121,5.9121,5.8973,5.9121,5.9207,6.6589,6.7643,0.0,6.4559,6.345,0.0,5.8052,0.0,0.0,0.0,0.0,0.0,0.0,0.0,0.0,0.0,0.0,0.0,0.0,5.4504,0.0,0.0,0.0,0.0,0.0,6.1466,6.1622,6.1622,6.1994,6.2772,6.4053,6.6036,6.7646,6.8801,6.9905,7.0506,7.0506,7.0905,7.1259,7.161,7.1811,7.2389,7.3293,7.3494,7.3895,7.4398,7.4599,7.5001,7.5527,7.5527,7.5753,7.6104,7.6104,7.6104,7.6104,7.6104,7.6104,7.6104,7.6104,7.6104,7.6104,7.6104,7.6104,7.6104,7.6104,7.6104,7.6154,7.633,7.6255,7.6154,7.633,7.4861,7.3082,7.2044,6.9034,6.5843,6.3845,6.1974,6.0409,5.9375,5.9207,5.9207,5.9207,5.9207,5.9207,5.9207,5.9207,5.9207,5.9207,5.9207,5.9207,5.9207,5.9207,5.9207,5.9207,5.9207,5.9207,5.9207,5.9207,5.9207,5.9207,5.9207,5.9325,5.9601,5.9355,5.9266,5.9414,5.9266,5.9121,5.8945,5.8945,5.9051]}]]